[[{"header":{"parameterUnit":"m.s-1","parameterCategory":1,"la1":31.0,"la2":29.5877,"lo1":-88.7671,"lo2":-86.6584,"dy":0.0162,"dx":0.0185,"nx":115,"ny":88,"refTime":"2023-05-20T06:00:00:Z","depth":0,"parameterNumber":2,"parameterNumberName":"U-component_of_WINDS"},"data":[0.0,0.0,0.0,0.0,0.0,0.0,0.0,0.0,0.0,0.0,0.0,0.0,0.0,0.0,0.0,0.0,0.0,0.0,0.0,0.0,0.0,0.0,0.0,0.0,0.0,0.0,0.0,0.0,0.0,0.0,0.0,0.0,0.0,0.0,0.0,0.0,0.0,0.0,0.0,0.0,0.0,0.0,0.0,0.0,0.0,0.0,0.0,0.0,0.0,0.0,0.0,0.0,0.0,0.0,0.0,0.0,0.0,0.0,0.0,0.0,0.0,0.0,0.0,0.0,0.0,0.0,0.0,0.0,0.0,0.0,0.0,0.0,0.0,0.0,0.0,0.0,0.0,0.0,0.0,0.0,0.0,0.0,0.0,0.0,0.0,0.0,0.0,0.0,0.0,0.0,0.0,0.0,0.0,0.0,0.0,0.0,0.0,0.0,0.0,0.0,0.0,0.0,0.0,0.0,0.0,0.0,0.0,0.0,0.0,0.0,0.0,0.0,0.0,0.0,0.0,0.0,0.0,0.0,0.0,0.0,0.0,0.0,0.0,0.0,0.0,0.0,0.0,0.0,0.0,0.0,0.0,0.0,0.0,0.0,0.0,0.0,0.0,0.0,0.0,0.0,0.0,0.0,0.0,0.0,0.0,0.0,0.0,0.0,0.0,0.0,0.0,0.0,0.0,0.0,0.0,0.0,0.0,0.0,0.0,0.0,0.0,0.0,0.0,0.0,0.0,0.0,0.0,0.0,0.0,0.0,0.0,0.0,0.0,0.0,0.0,0.0,0.0,0.0,0.0,0.0,0.0,0.0,0.0,0.0,0.0,0.0,0.0,0.0,0.0,0.0,0.0,0.0,0.0,0.0,0.0,0.0,0.0,0.0,0.0,0.0,0.0,0.0,0.0,0.0,0.0,0.0,0.0,0.0,0.0,0.0,0.0,0.0,0.0,0.0,0.0,0.0,0.0,0.0,0.0,0.0,0.0,0.0,0.0,0.0,0.0,0.0,0.0,0.0,0.0,0.0,0.0,0.0,0.0,0.0,0.0,0.0,0.0,0.0,0.0,0.0,0.0,0.0,0.0,0.0,0.0,0.0,0.0,0.0,0.0,0.0,0.0,0.0,0.0,0.0,0.0,0.0,0.0,0.0,0.0,0.0,0.0,0.0,0.0,0.0,0.0,0.0,0.0,0.0,0.0,0.0,0.0,0.0,0.0,0.0,0.0,0.0,0.0,0.0,0.0,0.0,0.0,0.0,0.0,0.0,0.0,0.0,0.0,0.0,0.0,0.0,0.0,0.0,0.0,0.0,0.0,0.0,0.0,0.0,0.0,0.0,0.0,0.0,0.0,0.0,0.0,0.0,0.0,0.0,0.0,0.0,0.0,0.0,0.0,0.0,0.0,0.0,0.0,0.0,0.0,0.0,0.0,0.0,0.0,0.0,0.0,0.0,0.0,0.0,0.0,0.0,0.0,0.0,0.0,0.0,0.0,0.0,0.0,0.0,0.0,0.0,0.0,0.0,0.0,0.0,0.0,0.0,0.0,0.0,0.0,0.0,0.0,0.0,0.0,0.0,0.0,0.0,0.0,0.0,0.0,0.0,0.0,0.0,0.0,0.0,0.0,0.0,0.0,0.0,0.0,0.0,0.0,0.0,0.0,0.0,0.0,0.0,0.0,0.0,0.0,0.0,0.0,0.0,0.0,0.0,0.0,0.0,0.0,0.0,0.0,0.0,0.0,0.0,0.0,0.0,0.0,0.0,0.0,0.0,0.0,0.0,0.0,0.0,0.0,0.0,0.0,0.0,0.0,0.0,0.0,0.0,0.0,0.0,0.0,0.0,0.0,0.0,0.0,0.0,0.0,0.0,0.0,0.0,0.0,0.0,0.0,0.0,0.0,0.0,0.0,0.0,0.0,0.0,0.0,0.0,0.0,0.0,0.0,0.0,0.0,0.0,0.0,0.0,0.0,0.0,0.0,0.0,0.0,0.0,0.0,0.0,0.0,0.0,0.0,0.0,0.0,0.0,0.0,0.0,0.0,0.0,0.0,0.0,0.0,0.0,0.0,0.0,0.0,0.0,0.0,0.0,0.0,0.0,0.0,0.0,0.0,0.0,0.0,0.0,0.0,0.0,0.0,0.0,0.0,0.0,0.0,0.0,0.0,0.0,0.0,0.0,0.0,0.0,0.0,0.0,0.0,0.0,0.0,0.0,0.0,0.0,0.0,0.0,0.0,0.0,0.0,0.0,0.0,0.0,0.0,0.0,0.0,0.0,0.0,0.0,0.0,0.0,0.0,0.0,0.0,0.0,0.0,0.0,0.0,0.0,0.0,0.0,0.0,0.0,0.0,0.0,0.0,0.0,0.0,0.0,0.0,0.0,0.0,0.0,0.0,0.0,0.0,0.0,0.0,0.0,0.0,0.0,0.0,0.0,0.0,0.0,0.0,0.0,0.0,0.0,0.0,0.0,0.0,0.0,0.0,0.0,0.0,0.0,0.0,0.0,0.0,0.0,0.0,0.0,0.0,0.0,0.0,0.0,0.0,0.0,0.0,0.0,0.0,0.0,0.0,0.0,0.0,0.0,0.0,0.0,0.0,0.0,0.0,0.0,0.0,0.0,0.0,0.0,0.0,0.0,0.0,0.0,0.0,0.0,0.0,0.0,0.0,0.0,0.0,0.0,0.0,0.0,0.0,0.0,0.0,0.0,0.0,0.0,0.0,0.0,0.0,0.0,0.0,0.0,0.0,0.0,0.0,0.0,0.0,0.0,0.0,0.0,0.0,0.0,0.0,0.0,0.0,0.0,0.0,0.0,0.0,0.0,0.0,0.0,0.0,0.0,0.0,0.0,0.0,0.0,0.0,0.0,0.0,0.0,0.0,0.0,0.0,0.0,0.0,0.0,0.0,0.0,0.0,0.0,0.0,0.0,0.0,0.0,0.0,0.0,0.0,0.0,0.0,0.0,0.0,0.0,0.0,0.0,0.0,0.0,0.0,0.0,0.0,0.0,0.0,0.0,0.0,0.0,0.0,0.0,0.0,0.0,0.0,0.0,0.0,0.0,0.0,0.0,0.0,0.0,0.0,0.0,0.0,0.0,0.0,0.0,0.0,0.0,0.0,0.0,0.0,0.0,0.0,0.0,0.0,0.0,0.0,0.0,0.0,0.0,0.0,0.0,0.0,0.0,0.0,0.0,0.0,0.0,0.0,0.0,0.0,0.0,0.0,0.0,0.0,0.0,0.0,0.0,0.0,0.0,0.0,0.0,0.0,0.0,0.0,0.0,0.0,0.0,0.0,0.0,0.0,0.0,0.0,0.0,0.0,0.0,0.0,0.0,0.0,0.0,0.0,0.0,0.0,0.0,0.0,0.0,0.0,0.0,0.0,0.0,0.0,0.0,0.0,0.0,0.0,0.0,0.0,0.0,0.0,0.0,0.0,0.0,0.0,0.0,0.0,0.0,0.0,0.0,0.0,0.0,0.0,0.0,0.0,0.0,0.0,0.0,0.0,0.0,0.0,0.0,0.0,0.0,0.0,0.0,0.0,0.0,0.0,0.0,0.0,0.0,0.0,0.0,0.0,0.0,0.0,0.0,0.0,0.0,0.0,0.0,0.0,0.0,0.0,0.0,0.0,0.0,0.0,0.0,0.0,0.0,0.0,0.0,0.0,0.0,0.0,0.0,0.0,0.0,0.0,0.0,0.0,0.0,0.0,0.0,0.0,0.0,0.0,0.0,0.0,0.0,0.0,0.0,0.0,0.0,0.0,0.0,0.0,0.0,0.0,0.0,0.0,0.0,0.0,0.0,0.0,0.0,0.0,0.0,0.0,0.0,0.0,0.0,0.0,0.0,0.0,0.0,0.0,0.0,0.0,0.0,0.0,0.0,0.0,0.0,0.0,0.0,0.0,0.0,0.0,0.0,0.0,0.0,0.0,0.0,0.0,0.0,0.0,0.0,0.0,0.0,0.0,0.0,0.0,0.0,0.0,0.0,0.0,0.0,0.0,0.0,0.0,0.0,0.0,0.0,0.0,0.0,0.0,0.0,0.0,0.0,0.0,0.0,0.0,0.0,0.0,0.0,0.0,0.0,0.0,0.0,0.0,0.0,0.0,0.0,0.0,0.0,0.0,0.0,0.0,0.0,0.0,0.0,0.0,0.0,0.0,0.0,0.0,0.0,0.0,0.0,0.0,0.0,0.0,0.0,0.0,0.0,0.0,0.0,0.0,0.0,0.0,0.0,0.0,0.0,0.0,0.0,0.0,0.0,0.0,0.0,0.0,0.0,2.0308,0.0,0.0,0.0,0.0,0.0,0.0,0.0,0.0,0.0,0.0,0.0,0.0,0.0,0.0,0.0,0.0,0.0,0.0,0.0,0.0,0.0,0.0,0.0,0.0,0.0,0.0,0.0,0.0,0.0,0.0,0.0,0.0,0.0,0.0,0.0,0.0,0.0,0.0,0.0,0.0,0.0,0.0,0.0,0.0,0.0,0.0,0.0,0.0,0.0,0.0,0.0,0.0,0.0,0.0,0.0,0.0,0.0,0.0,0.0,0.0,0.0,0.0,0.0,0.0,0.0,0.0,0.0,0.0,0.0,0.0,0.0,0.0,0.0,0.0,0.0,0.0,0.0,0.0,0.0,0.0,0.0,0.0,0.0,0.0,0.0,0.0,0.0,0.0,0.0,0.0,0.0,0.0,0.0,0.0,0.0,0.0,0.0,0.0,0.0,0.0,0.0,0.0,0.0,0.0,0.0,0.0,0.0,0.0,0.0,0.0,2.0379,2.0379,2.0354,2.0334,2.0289,0.0,0.0,0.0,0.0,0.0,0.0,0.0,0.0,0.0,0.0,0.0,0.0,0.0,0.0,0.0,0.0,0.0,0.0,0.0,0.0,0.0,0.0,0.0,0.0,0.0,0.0,0.0,0.0,0.0,0.0,0.0,0.0,0.0,0.0,0.0,0.0,0.0,0.0,0.0,0.0,0.0,0.0,0.0,0.0,0.0,0.0,0.0,0.0,0.0,0.0,0.0,0.0,0.0,0.0,0.0,0.0,0.0,0.0,0.0,0.0,0.0,0.0,0.0,0.0,0.0,0.0,0.0,0.0,0.0,0.0,0.0,0.0,0.0,0.0,0.0,0.0,0.0,0.0,0.0,0.0,0.0,0.0,0.0,0.0,0.0,0.0,0.0,0.0,0.0,0.0,0.0,0.0,0.0,0.0,0.0,0.0,0.0,0.0,0.0,0.0,0.0,0.0,0.0,0.0,0.0,0.0,0.0,0.0,0.0,0.0,0.0,0.0,2.0733,2.0514,2.0314,0.0,0.0,0.0,0.0,0.0,0.0,0.0,0.0,0.0,0.0,0.0,0.0,0.0,0.0,0.0,0.0,0.0,0.0,0.0,0.0,0.0,0.0,0.0,0.0,0.0,0.0,0.0,0.0,0.0,0.0,0.0,0.0,0.0,0.0,0.0,0.0,0.0,0.0,0.0,0.0,0.0,0.0,0.0,0.0,0.0,0.0,0.0,0.0,0.0,0.0,0.0,0.0,0.0,0.0,0.0,0.0,0.0,0.0,0.0,0.0,0.0,0.0,0.0,0.0,0.0,0.0,0.0,0.0,0.0,0.0,0.0,0.0,0.0,0.0,0.0,0.0,0.0,0.0,0.0,0.0,0.0,0.0,0.0,0.0,0.0,0.0,0.0,0.0,0.0,0.0,0.0,0.0,0.0,0.0,0.0,0.0,0.0,0.0,0.0,0.0,0.0,0.0,0.0,0.0,0.0,0.0,0.0,0.0,0.0,0.0,2.1871,2.2639,2.191,0.0,2.0369,0.0,0.0,0.0,0.0,0.0,0.0,0.0,0.0,0.0,0.0,0.0,0.0,0.0,0.0,0.0,0.0,0.0,0.0,0.0,0.0,0.0,0.0,0.0,0.0,0.0,0.0,0.0,0.0,0.0,0.0,0.0,0.0,0.0,0.0,0.0,0.0,0.0,0.0,0.0,0.0,0.0,0.0,0.0,0.0,0.0,0.0,0.0,0.0,0.0,0.0,0.0,0.0,0.0,0.0,0.0,0.0,0.0,0.0,0.0,0.0,0.0,0.0,0.0,0.0,0.0,0.0,0.0,0.0,0.0,0.0,0.0,0.0,0.0,0.0,0.0,0.0,0.0,0.0,0.0,0.0,0.0,0.0,0.0,0.0,0.0,0.0,0.0,0.0,0.0,0.0,0.0,0.0,0.0,0.0,0.0,0.0,0.0,0.0,0.0,0.0,0.0,0.0,0.0,0.0,0.0,0.0,0.0,0.0,0.0,0.0,2.2546,2.2887,2.2524,2.1902,0.0,0.0,0.0,0.0,0.0,0.0,0.0,0.0,0.0,0.0,0.0,0.0,0.0,0.0,0.0,0.0,0.0,0.0,0.0,0.0,0.0,0.0,0.0,0.0,0.0,0.0,0.0,0.0,0.0,0.0,0.0,0.0,0.0,0.0,0.0,0.0,0.0,0.0,0.0,0.0,0.0,0.0,0.0,0.0,0.0,0.0,0.0,0.0,0.0,0.0,0.0,0.0,0.0,0.0,0.0,0.0,0.0,0.0,0.0,0.0,0.0,0.0,0.0,0.0,0.0,0.0,0.0,0.0,0.0,0.0,0.0,0.0,0.0,0.0,0.0,0.0,0.0,0.0,0.0,0.0,0.0,0.0,0.0,0.0,0.0,0.0,0.0,0.0,0.0,0.0,0.0,0.0,0.0,0.0,0.0,0.0,0.0,0.0,0.0,0.0,0.0,0.0,0.0,0.0,0.0,0.0,0.0,0.0,0.0,0.0,2.3223,2.3244,2.3221,2.3165,2.2716,2.1893,0.0,0.0,0.0,0.0,0.0,0.0,0.0,0.0,0.0,0.0,0.0,0.0,0.0,0.0,0.0,0.0,0.0,0.0,0.0,0.0,0.0,0.0,0.0,0.0,0.0,0.0,0.0,0.0,0.0,0.0,0.0,0.0,0.0,0.0,0.0,0.0,0.0,0.0,0.0,0.0,0.0,0.0,0.0,0.0,0.0,0.0,0.0,0.0,0.0,0.0,0.0,0.0,0.0,0.0,0.0,0.0,0.0,0.0,0.0,0.0,0.0,0.0,0.0,0.0,0.0,0.0,0.0,0.0,0.0,0.0,0.0,0.0,0.0,0.0,0.0,0.0,0.0,0.0,0.0,0.0,0.0,0.0,0.0,0.0,0.0,0.0,0.0,0.0,0.0,0.0,0.0,0.0,0.0,0.0,0.0,0.0,0.0,0.0,0.0,0.0,0.0,0.0,0.0,0.0,0.0,0.0,0.0,0.0,2.4017,2.4043,2.4044,2.4052,2.4005,2.3563,0.0,0.0,0.0,0.0,0.0,0.0,0.0,0.0,0.0,0.0,0.0,0.0,0.0,0.0,0.0,0.0,0.0,0.0,0.0,0.0,0.0,0.0,0.0,0.0,0.0,0.0,0.0,0.0,0.0,0.0,0.0,0.0,0.0,0.0,0.0,0.0,0.0,0.0,0.0,0.0,0.0,0.0,0.0,0.0,0.0,0.0,0.0,0.0,0.0,0.0,0.0,0.0,0.0,0.0,0.0,0.0,0.0,0.0,0.0,0.0,0.0,0.0,0.0,0.0,0.0,0.0,0.0,0.0,0.0,0.0,0.0,0.0,0.0,0.0,0.0,0.0,0.0,0.0,0.0,0.0,0.0,0.0,0.0,0.0,0.0,0.0,0.0,0.0,0.0,0.0,0.0,0.0,0.0,0.0,0.0,0.0,0.0,0.0,0.0,0.0,0.0,0.0,0.0,0.0,0.0,0.0,0.0,0.0,0.0,2.4906,2.4899,2.4889,2.486,2.4831,2.4408,0.0,0.0,0.0,0.0,0.0,0.0,0.0,0.0,0.0,0.0,0.0,0.0,0.0,0.0,0.0,0.0,0.0,0.0,0.0,0.0,0.0,0.0,0.0,0.0,0.0,0.0,0.0,0.0,0.0,0.0,0.0,0.0,0.0,0.0,0.0,0.0,0.0,0.0,0.0,0.0,0.0,0.0,0.0,0.0,0.0,0.0,0.0,0.0,0.0,0.0,0.0,0.0,0.0,0.0,0.0,0.0,0.0,0.0,0.0,0.0,0.0,0.0,0.0,0.0,0.0,0.0,0.0,0.0,0.0,0.0,0.0,0.0,0.0,0.0,0.0,0.0,0.0,0.0,0.0,0.0,0.0,0.0,0.0,0.0,0.0,0.0,0.0,0.0,0.0,0.0,0.0,0.0,0.0,0.0,0.0,0.0,0.0,0.0,0.0,0.0,0.0,0.0,0.0,0.0,0.0,0.0,0.0,0.0,0.0,2.538,0.0,2.56,2.5311,2.5282,2.4962,0.0,0.0,0.0,0.0,0.0,0.0,0.0,0.0,0.0,0.0,0.0,0.0,0.0,0.0,0.0,0.0,0.0,0.0,0.0,0.0,0.0,0.0,0.0,0.0,0.0,0.0,0.0,0.0,0.0,0.0,0.0,0.0,0.0,0.0,0.0,0.0,0.0,0.0,0.0,0.0,0.0,0.0,0.0,0.0,0.0,0.0,0.0,0.0,0.0,0.0,0.0,0.0,0.0,0.0,0.0,0.0,0.0,0.0,0.0,0.0,0.0,0.0,0.0,0.0,0.0,0.0,0.0,0.0,0.0,0.0,0.0,0.0,0.0,0.0,0.0,0.0,0.0,0.0,0.0,0.0,0.0,0.0,0.0,0.0,0.0,0.0,0.0,0.0,0.0,0.0,0.0,0.0,0.0,0.0,0.0,0.0,0.0,0.0,0.0,0.0,0.0,0.0,0.0,0.0,0.0,0.0,0.0,0.0,2.538,2.536,2.6178,2.6196,2.5349,2.529,2.522,0.0,0.0,0.0,0.0,0.0,0.0,0.0,0.0,0.0,0.0,0.0,0.0,0.0,0.0,0.0,0.0,0.0,0.0,0.0,0.0,0.0,0.0,0.0,0.0,0.0,0.0,0.0,0.0,0.0,0.0,0.0,0.0,0.0,0.0,0.0,0.0,0.0,0.0,0.0,0.0,0.0,0.0,0.0,0.0,0.0,0.0,0.0,0.0,0.0,0.0,0.0,0.0,0.0,0.0,0.0,0.0,0.0,0.0,0.0,0.0,0.0,0.0,0.0,0.0,0.0,0.0,0.0,0.0,0.0,0.0,0.0,0.0,0.0,0.0,0.0,0.0,0.0,0.0,0.0,0.0,0.0,0.0,0.0,0.0,0.0,0.0,0.0,0.0,0.0,0.0,0.0,0.0,0.0,0.0,0.0,0.0,0.0,0.0,0.0,0.0,0.0,0.0,0.0,0.0,0.0,0.0,0.0,0.0,0.0,2.7124,2.7369,2.7061,2.6173,2.6105,2.5792,0.0,0.0,0.0,0.0,0.0,0.0,0.0,0.0,0.0,0.0,0.0,0.0,0.0,0.0,0.0,0.0,0.0,0.0,0.0,0.0,0.0,0.0,0.0,0.0,0.0,0.0,0.0,0.0,0.0,0.0,0.0,0.0,0.0,0.0,0.0,0.0,0.0,0.0,0.0,0.0,0.0,0.0,0.0,0.0,0.0,0.0,0.0,0.0,0.0,0.0,0.0,0.0,0.0,0.0,0.0,0.0,0.0,0.0,0.0,0.0,0.0,0.0,0.0,0.0,0.0,0.0,0.0,0.0,0.0,0.0,0.0,0.0,0.0,0.0,0.0,0.0,0.0,0.0,0.0,0.0,0.0,0.0,0.0,0.0,0.0,0.0,0.0,0.0,0.0,0.0,0.0,0.0,0.0,0.0,0.0,0.0,0.0,0.0,0.0,0.0,0.0,0.0,0.0,0.0,0.0,0.0,0.0,0.0,0.0,2.8833,2.851,2.7915,2.7006,2.6945,2.6515,2.5609,0.0,0.0,0.0,0.0,0.0,0.0,0.0,0.0,0.0,0.0,0.0,0.0,0.0,0.0,0.0,0.0,0.0,0.0,0.0,0.0,0.0,0.0,0.0,0.0,0.0,0.0,0.0,0.0,0.0,0.0,0.0,0.0,0.0,0.0,0.0,0.0,0.0,0.0,0.0,0.0,0.0,0.0,0.0,0.0,0.0,0.0,0.0,0.0,0.0,0.0,0.0,0.0,0.0,0.0,0.0,0.0,0.0,0.0,0.0,0.0,0.0,0.0,0.0,0.0,0.0,0.0,0.0,0.0,0.0,0.0,0.0,0.0,0.0,0.0,0.0,0.0,0.0,0.0,0.0,0.0,0.0,0.0,0.0,0.0,0.0,0.0,0.0,0.0,0.0,0.0,0.0,0.0,0.0,0.0,0.0,0.0,0.0,0.0,0.0,0.0,0.0,0.0,0.0,0.0,0.0,0.0,0.0,0.0,3.0456,2.9663,2.8795,2.7896,2.7821,2.7351,0.0,0.0,0.0,0.0,0.0,0.0,0.0,0.0,0.0,0.0,0.0,0.0,0.0,0.0,0.0,0.0,0.0,0.0,0.0,0.0,0.0,0.0,0.0,0.0,0.0,0.0,0.0,0.0,0.0,0.0,0.0,0.0,0.0,0.0,0.0,0.0,0.0,0.0,0.0,0.0,0.0,0.0,0.0,0.0,0.0,0.0,0.0,0.0,0.0,0.0,0.0,0.0,0.0,0.0,0.0,0.0,0.0,0.0,0.0,0.0,0.0,0.0,0.0,0.0,0.0,0.0,0.0,0.0,0.0,0.0,0.0,0.0,0.0,0.0,0.0,0.0,0.0,0.0,0.0,0.0,0.0,0.0,0.0,0.0,0.0,0.0,0.0,0.0,0.0,0.0,0.0,0.0,0.0,0.0,0.0,0.0,0.0,0.0,0.0,0.0,0.0,0.0,0.0,0.0,0.0,0.0,0.0,0.0,0.0,3.1347,3.1098,3.0209,2.8759,2.8664,2.8217,0.0,0.0,0.0,0.0,0.0,0.0,0.0,0.0,0.0,0.0,0.0,0.0,0.0,0.0,0.0,0.0,0.0,0.0,0.0,0.0,0.0,0.0,0.0,0.0,0.0,0.0,0.0,0.0,0.0,0.0,0.0,0.0,0.0,0.0,0.0,0.0,0.0,0.0,0.0,0.0,0.0,0.0,0.0,0.0,0.0,0.0,0.0,0.0,0.0,0.0,0.0,0.0,0.0,0.0,0.0,0.0,0.0,0.0,0.0,0.0,0.0,0.0,0.0,0.0,0.0,0.0,0.0,0.0,0.0,0.0,0.0,0.0,0.0,0.0,0.0,0.0,0.0,0.0,0.0,0.0,0.0,0.0,0.0,0.0,0.0,0.0,0.0,0.0,0.0,0.0,0.0,0.0,0.0,0.0,0.0,0.0,0.0,0.0,0.0,0.0,0.0,0.0,0.0,0.0,0.0,0.0,0.0,0.0,3.1783,3.2205,3.2146,3.1634,3.0637,2.9863,2.9031,0.0,0.0,0.0,0.0,0.0,0.0,0.0,0.0,0.0,0.0,0.0,0.0,0.0,0.0,0.0,0.0,0.0,0.0,0.0,0.0,0.0,0.0,0.0,0.0,0.0,0.0,0.0,0.0,0.0,0.0,0.0,0.0,0.0,0.0,0.0,0.0,0.0,0.0,0.0,0.0,0.0,0.0,0.0,0.0,0.0,0.0,0.0,0.0,0.0,0.0,0.0,0.0,0.0,0.0,0.0,0.0,0.0,0.0,0.0,0.0,0.0,0.0,0.0,0.0,0.0,0.0,0.0,0.0,0.0,0.0,0.0,0.0,0.0,0.0,0.0,0.0,0.0,0.0,0.0,0.0,0.0,0.0,0.0,0.0,0.0,0.0,0.0,0.0,0.0,0.0,0.0,0.0,0.0,0.0,0.0,0.0,0.0,0.0,0.0,0.0,0.0,0.0,0.0,0.0,0.0,0.0,0.0,0.0,3.2135,3.299,3.2957,3.2924,3.2867,3.1178,2.9865,0.0,0.0,0.0,0.0,0.0,0.0,0.0,0.0,0.0,0.0,0.0,0.0,0.0,0.0,0.0,0.0,0.0,0.0,0.0,0.0,0.0,0.0,0.0,0.0,0.0,0.0,0.0,0.0,0.0,0.0,0.0,0.0,0.0,0.0,0.0,0.0,0.0,0.0,0.0,0.0,0.0,0.0,0.0,0.0,0.0,0.0,0.0,0.0,0.0,0.0,0.0,0.0,0.0,0.0,0.0,0.0,0.0,0.0,0.0,0.0,0.0,0.0,0.0,0.0,0.0,0.0,0.0,0.0,0.0,0.0,0.0,0.0,0.0,0.0,0.0,0.0,0.0,0.0,0.0,0.0,0.0,0.0,0.0,0.0,0.0,0.0,0.0,0.0,0.0,0.0,0.0,0.0,0.0,0.0,0.0,0.0,0.0,0.0,0.0,0.0,0.0,0.0,0.0,0.0,0.0,0.0,0.0,0.0,3.2948,3.3795,3.3776,3.3738,3.3738,3.2038,3.1009,0.0,0.0,0.0,0.0,0.0,0.0,0.0,0.0,0.0,0.0,0.0,0.0,0.0,0.0,0.0,0.0,0.0,0.0,0.0,0.0,0.0,0.0,0.0,0.0,0.0,0.0,0.0,0.0,0.0,0.0,0.0,0.0,0.0,0.0,0.0,0.0,0.0,0.0,0.0,0.0,0.0,0.0,0.0,0.0,0.0,0.0,0.0,0.0,1.8809,0.0,0.0,0.0,0.0,0.0,0.0,0.0,0.0,0.0,0.0,0.0,0.0,0.0,0.0,0.0,0.0,0.0,0.0,0.0,0.0,0.0,0.0,0.0,0.0,0.0,0.0,0.0,0.0,0.0,0.0,0.0,0.0,0.0,0.0,0.0,0.0,0.0,0.0,0.0,0.0,0.0,0.0,0.0,0.0,0.0,0.0,0.0,0.0,0.0,0.0,0.0,0.0,0.0,0.0,0.0,0.0,0.0,0.0,0.0,3.38,3.4611,3.4626,3.4623,3.4565,3.3249,3.2137,0.0,0.0,0.0,0.0,0.0,0.0,0.0,0.0,0.0,0.0,0.0,0.0,0.0,0.0,0.0,0.0,0.0,0.0,0.0,0.0,0.0,0.0,0.0,0.0,0.0,0.0,0.0,0.0,0.0,0.0,0.0,0.0,0.0,0.0,0.0,0.0,0.0,0.0,0.0,0.0,0.0,0.0,0.0,0.0,0.0,0.0,0.0,0.0,0.0,0.0,0.0,0.0,0.0,0.0,0.0,0.0,0.0,0.0,0.0,0.0,0.0,0.0,0.0,0.0,0.0,0.0,0.0,0.0,0.0,0.0,0.0,0.0,0.0,0.0,0.0,0.0,0.0,0.0,0.0,0.0,0.0,0.0,0.0,0.0,0.0,0.0,0.0,0.0,0.0,0.0,0.0,0.0,0.0,0.0,0.0,0.0,0.0,0.0,0.0,0.0,0.0,0.0,0.0,0.0,0.0,0.0,0.0,3.3513,3.44,3.5248,3.528,3.5277,3.5261,3.4456,3.3266,3.1727,0.0,0.0,0.0,0.0,0.0,0.0,0.0,0.0,0.0,0.0,0.0,0.0,0.0,0.0,0.0,0.0,0.0,0.0,0.0,0.0,0.0,0.0,0.0,0.0,0.0,0.0,0.0,0.0,0.0,0.0,0.0,0.0,0.0,0.0,0.0,0.0,0.0,0.0,2.1852,2.1924,0.0,0.0,0.0,0.0,0.0,0.0,0.0,0.0,1.9787,0.0,0.0,0.0,0.0,0.0,0.0,0.0,0.0,0.0,0.0,0.0,0.0,0.0,0.0,0.0,0.0,0.0,0.0,0.0,0.0,0.0,0.0,0.0,0.0,0.0,0.0,0.0,0.0,0.0,0.0,0.0,0.0,0.0,0.0,0.0,0.0,0.0,0.0,0.0,0.0,0.0,0.0,0.0,0.0,0.0,0.0,0.0,0.0,0.0,0.0,0.0,0.0,0.0,0.0,0.0,0.0,3.2573,3.3459,3.4318,3.5209,3.5209,3.5229,3.5217,3.5013,3.4372,3.3315,0.0,0.0,0.0,0.0,0.0,0.0,0.0,0.0,0.0,0.0,0.0,0.0,0.0,0.0,0.0,0.0,0.0,0.0,0.0,0.0,0.0,0.0,0.0,0.0,0.0,0.0,0.0,0.0,0.0,0.0,0.0,0.0,0.0,0.0,0.0,0.0,0.0,0.0,0.0,2.1664,2.1664,0.0,0.0,0.0,0.0,0.0,0.0,0.0,0.0,1.9899,0.0,0.0,0.0,0.0,0.0,0.0,0.0,0.0,0.0,0.0,0.0,0.0,0.0,0.0,0.0,0.0,0.0,0.0,0.0,0.0,0.0,0.0,0.0,0.0,0.0,0.0,0.0,0.0,0.0,0.0,0.0,0.0,0.0,0.0,0.0,0.0,0.0,0.0,0.0,0.0,0.0,0.0,0.0,0.0,0.0,0.0,0.0,0.0,0.0,0.0,0.0,0.0,0.0,0.0,0.0,3.2545,3.4217,3.5302,3.5775,3.6231,3.6231,3.5775,3.574,3.5096,0.0,0.0,0.0,0.0,0.0,0.0,0.0,0.0,0.0,0.0,0.0,0.0,0.0,0.0,0.0,0.0,0.0,0.0,0.0,0.0,0.0,0.0,0.0,0.0,0.0,0.0,0.0,0.0,0.0,0.0,0.0,0.0,0.0,0.0,0.0,0.0,0.0,0.0,0.0,0.0,2.1608,2.1589,2.1511,0.0,0.0,0.0,0.0,0.0,0.0,2.0713,2.0555,0.0,0.0,0.0,0.0,0.0,0.0,0.0,0.0,0.0,0.0,0.0,0.0,0.0,0.0,0.0,0.0,0.0,0.0,0.0,0.0,0.0,0.0,0.0,0.0,0.0,0.0,0.0,0.0,0.0,0.0,0.0,0.0,0.0,0.0,0.0,0.0,0.0,0.0,0.0,0.0,0.0,0.0,0.0,0.0,0.0,0.0,0.0,0.0,0.0,0.0,0.0,0.0,0.0,0.0,0.0,3.2673,3.4983,3.6217,3.6311,3.7129,3.7262,3.6577,3.6388,3.5628,0.0,0.0,0.0,0.0,0.0,0.0,0.0,0.0,0.0,0.0,0.0,0.0,0.0,0.0,0.0,0.0,0.0,0.0,0.0,0.0,0.0,0.0,0.0,0.0,0.0,0.0,0.0,0.0,0.0,0.0,0.0,0.0,0.0,0.0,0.0,0.0,0.0,0.0,0.0,0.0,0.0,2.1466,2.134,2.1324,0.0,0.0,0.0,0.0,2.099,2.0958,0.0,0.0,0.0,0.0,0.0,0.0,0.0,0.0,0.0,0.0,0.0,0.0,0.0,0.0,0.0,0.0,0.0,0.0,0.0,0.0,0.0,0.0,0.0,0.0,0.0,0.0,0.0,0.0,0.0,0.0,0.0,0.0,0.0,0.0,0.0,0.0,0.0,0.0,0.0,0.0,0.0,0.0,0.0,0.0,0.0,0.0,0.0,0.0,0.0,0.0,0.0,0.0,0.0,0.0,0.0,0.0,3.3337,3.5211,3.6193,3.6257,3.7127,3.7528,3.7376,3.6615,3.6062,0.0,0.0,0.0,0.0,0.0,0.0,0.0,0.0,0.0,0.0,0.0,0.0,0.0,0.0,0.0,0.0,0.0,0.0,0.0,0.0,0.0,0.0,0.0,0.0,0.0,0.0,0.0,0.0,0.0,0.0,0.0,0.0,0.0,0.0,0.0,0.0,0.0,0.0,0.0,0.0,0.0,2.1151,2.1135,2.1038,2.0958,0.0,0.0,2.0778,2.0595,2.0561,0.0,0.0,0.0,0.0,0.0,0.0,0.0,0.0,0.0,0.0,0.0,0.0,0.0,0.0,0.0,0.0,0.0,0.0,0.0,0.0,0.0,0.0,0.0,0.0,0.0,0.0,0.0,0.0,0.0,0.0,0.0,0.0,0.0,0.0,0.0,0.0,0.0,0.0,0.0,0.0,0.0,0.0,0.0,0.0,0.0,0.0,0.0,0.0,0.0,0.0,0.0,0.0,0.0,0.0,0.0,3.2647,3.4035,3.5807,3.6952,3.7454,3.8326,3.8561,3.8066,3.7686,3.6979,0.0,0.0,0.0,0.0,0.0,0.0,0.0,0.0,0.0,0.0,0.0,0.0,0.0,0.0,0.0,0.0,0.0,0.0,0.0,0.0,0.0,0.0,0.0,0.0,0.0,0.0,0.0,0.0,0.0,0.0,0.0,0.0,0.0,0.0,0.0,0.0,0.0,0.0,0.0,0.0,0.0,0.0,2.1327,2.1607,0.0,0.0,0.0,2.1481,2.1335,0.0,0.0,0.0,0.0,0.0,0.0,0.0,0.0,0.0,0.0,0.0,0.0,0.0,0.0,0.0,0.0,0.0,0.0,0.0,0.0,0.0,0.0,0.0,0.0,0.0,0.0,0.0,0.0,0.0,0.0,0.0,0.0,0.0,0.0,0.0,0.0,0.0,0.0,0.0,0.0,0.0,0.0,0.0,0.0,0.0,0.0,0.0,0.0,0.0,0.0,0.0,0.0,0.0,0.0,0.0,0.0,0.0,3.4722,3.6273,3.7469,3.8338,3.9204,3.9364,3.8761,3.8535,0.0,0.0,0.0,0.0,0.0,0.0,0.0,0.0,0.0,0.0,0.0,0.0,0.0,0.0,0.0,0.0,0.0,0.0,0.0,0.0,0.0,0.0,0.0,0.0,0.0,0.0,0.0,2.3494,0.0,0.0,0.0,0.0,0.0,0.0,0.0,0.0,0.0,0.0,0.0,0.0,0.0,0.0,2.1933,2.1662,2.2059,2.227,0.0,0.0,2.1862,2.1704,2.1505,2.1222,0.0,0.0,0.0,0.0,0.0,0.0,0.0,0.0,0.0,0.0,0.0,0.0,0.0,0.0,0.0,0.0,0.0,0.0,0.0,0.0,0.0,0.0,0.0,0.0,0.0,0.0,0.0,0.0,0.0,0.0,0.0,0.0,0.0,0.0,0.0,0.0,0.0,0.0,0.0,0.0,0.0,0.0,0.0,0.0,0.0,0.0,0.0,0.0,0.0,0.0,0.0,0.0,0.0,0.0,0.0,3.5366,3.6403,3.7356,3.8219,3.9052,3.9489,3.9414,3.8646,3.7791,0.0,0.0,0.0,0.0,0.0,0.0,0.0,0.0,0.0,0.0,0.0,0.0,0.0,0.0,0.0,0.0,0.0,0.0,0.0,0.0,0.0,0.0,0.0,0.0,0.0,0.0,0.0,0.0,0.0,0.0,0.0,0.0,0.0,0.0,0.0,0.0,0.0,0.0,0.0,0.0,0.0,2.2262,2.2087,2.2002,2.1877,0.0,0.0,2.134,2.1029,2.0961,2.0752,2.0274,0.0,0.0,0.0,0.0,0.0,0.0,0.0,0.0,0.0,0.0,0.0,0.0,0.0,0.0,0.0,0.0,0.0,0.0,0.0,0.0,0.0,0.0,0.0,0.0,0.0,0.0,0.0,0.0,0.0,0.0,0.0,0.0,0.0,0.0,0.0,0.0,0.0,0.0,0.0,0.0,0.0,0.0,0.0,0.0,0.0,0.0,0.0,0.0,0.0,0.0,0.0,0.0,0.0,3.3935,3.6037,3.6946,3.7821,3.8646,3.9107,3.9317,3.9264,3.8973,3.8398,0.0,0.0,0.0,0.0,0.0,0.0,0.0,0.0,0.0,0.0,0.0,0.0,0.0,0.0,0.0,0.0,0.0,0.0,0.0,0.0,0.0,0.0,0.0,0.0,0.0,0.0,0.0,0.0,2.3077,2.2919,2.2535,0.0,0.0,0.0,0.0,0.0,0.0,0.0,0.0,0.0,0.0,2.244,2.2237,2.2399,0.0,0.0,2.2076,2.1842,2.1737,2.1408,2.0996,2.0456,2.0207,0.0,0.0,0.0,0.0,0.0,0.0,0.0,0.0,0.0,0.0,0.0,0.0,0.0,0.0,0.0,0.0,0.0,0.0,0.0,0.0,0.0,0.0,0.0,0.0,0.0,0.0,0.0,0.0,0.0,0.0,0.0,0.0,0.0,0.0,0.0,0.0,0.0,0.0,0.0,0.0,0.0,0.0,0.0,0.0,0.0,0.0,0.0,0.0,0.0,0.0,0.0,0.0,3.4504,3.6269,3.7127,3.8158,3.9264,3.9386,3.9416,3.9398,3.9416,3.8906,0.0,0.0,0.0,0.0,0.0,0.0,0.0,0.0,0.0,0.0,0.0,0.0,0.0,0.0,0.0,0.0,0.0,0.0,0.0,0.0,0.0,0.0,0.0,0.0,0.0,0.0,0.0,0.0,2.2919,2.2668,2.226,0.0,0.0,0.0,0.0,0.0,0.0,0.0,0.0,0.0,0.0,2.2597,2.2338,2.2539,2.2572,2.2342,2.2123,2.1888,2.1746,2.1396,2.0984,2.0377,0.0,0.0,0.0,0.0,0.0,0.0,0.0,0.0,0.0,0.0,0.0,0.0,0.0,0.0,0.0,0.0,0.0,0.0,0.0,0.0,0.0,0.0,0.0,0.0,0.0,0.0,0.0,0.0,0.0,0.0,0.0,0.0,0.0,0.0,0.0,0.0,0.0,0.0,0.0,0.0,0.0,0.0,0.0,0.0,0.0,0.0,0.0,0.0,0.0,0.0,0.0,0.0,0.0,3.4292,3.5973,3.6918,3.8211,3.9905,3.9963,4.0001,4.0074,4.0001,3.9185,3.7544,0.0,0.0,0.0,0.0,0.0,0.0,0.0,0.0,0.0,0.0,0.0,0.0,0.0,0.0,0.0,0.0,0.0,0.0,0.0,0.0,0.0,0.0,0.0,0.0,0.0,0.0,2.2971,2.2693,2.2422,0.0,0.0,0.0,0.0,0.0,0.0,0.0,0.0,0.0,0.0,2.2529,2.274,2.2249,2.2217,2.1983,2.1533,2.1423,2.1229,2.0749,2.0636,2.0446,0.0,0.0,0.0,0.0,0.0,0.0,0.0,0.0,0.0,0.0,0.0,0.0,0.0,0.0,0.0,0.0,0.0,0.0,0.0,0.0,0.0,0.0,0.0,0.0,0.0,0.0,0.0,0.0,0.0,0.0,0.0,0.0,0.0,0.0,0.0,0.0,0.0,0.0,0.0,0.0,2.6081,2.6611,0.0,0.0,0.0,0.0,0.0,0.0,0.0,0.0,0.0,0.0,0.0,0.0,3.5385,3.6533,3.7884,3.8948,3.9652,4.0221,4.054,4.0573,4.0028,3.8871,3.7112,0.0,0.0,0.0,0.0,0.0,0.0,0.0,0.0,0.0,0.0,0.0,0.0,0.0,0.0,0.0,0.0,0.0,0.0,0.0,0.0,0.0,0.0,0.0,0.0,0.0,2.4406,0.0,0.0,0.0,0.0,0.0,0.0,0.0,0.0,0.0,0.0,0.0,2.1787,2.1669,2.1874,2.1935,2.1698,2.1361,2.1189,0.0,0.0,0.0,0.0,0.0,0.0,0.0,0.0,0.0,0.0,0.0,0.0,0.0,0.0,1.8215,1.8969,1.8933,1.8784,1.8806,0.0,0.0,0.0,0.0,0.0,0.0,0.0,0.0,0.0,0.0,0.0,0.0,0.0,0.0,0.0,0.0,2.5389,0.0,0.0,0.0,0.0,0.0,0.0,0.0,0.0,2.5719,2.6056,2.6813,2.7614,2.8076,0.0,2.9013,2.9088,0.0,0.0,0.0,0.0,0.0,0.0,0.0,0.0,3.5928,3.7072,3.8401,3.9463,4.0221,4.0799,4.1087,4.1104,3.9999,3.8791,3.7486,3.6913,3.6107,0.0,0.0,0.0,0.0,0.0,0.0,0.0,0.0,0.0,0.0,0.0,0.0,0.0,0.0,0.0,0.0,0.0,0.0,0.0,0.0,0.0,0.0,0.0,2.4883,0.0,0.0,0.0,0.0,0.0,0.0,0.0,0.0,0.0,2.169,2.1668,2.1586,2.141,2.1353,2.1282,2.1299,0.0,0.0,0.0,0.0,0.0,0.0,0.0,1.9961,1.9559,1.92,1.8823,1.8284,1.8068,1.8023,1.7944,0.0,0.0,1.8726,1.8637,1.8553,1.8566,1.8389,1.8057,1.7588,1.7314,1.6957,0.0,0.0,0.0,0.0,0.0,0.0,0.0,0.0,2.7561,2.7466,0.0,0.0,0.0,0.0,0.0,0.0,0.0,0.0,0.0,0.0,2.6494,2.6845,2.7616,2.8415,2.9101,2.9755,3.0412,3.0722,3.0653,2.9826,0.0,0.0,0.0,0.0,0.0,0.0,3.5936,3.7577,3.8528,3.977,4.1447,4.1593,4.1648,4.1595,3.9986,3.8939,3.8645,3.7199,3.6345,3.6256,3.4606,0.0,0.0,0.0,0.0,0.0,0.0,0.0,0.0,0.0,0.0,0.0,0.0,0.0,0.0,0.0,0.0,0.0,0.0,0.0,0.0,2.4798,0.0,0.0,0.0,0.0,0.0,0.0,0.0,0.0,0.0,0.0,2.1859,2.151,2.1246,2.1377,0.0,0.0,0.0,0.0,2.069,2.0969,2.0632,2.0344,2.0088,1.9784,1.9437,1.9123,0.0,0.0,1.8309,1.8434,1.8423,1.8291,1.833,1.8392,1.7801,1.7752,1.777,1.7755,1.7644,1.7531,1.7445,1.7132,1.6828,2.8556,0.0,0.0,0.0,0.0,2.7624,2.7616,2.758,2.7504,2.7411,2.7315,2.7027,0.0,0.0,0.0,0.0,0.0,0.0,2.6757,2.725,2.7785,2.8451,2.9163,2.9961,3.0396,3.0567,3.0736,3.1016,3.1385,3.1049,3.1,3.128,0.0,0.0,0.0,0.0,3.659,3.8117,3.9002,3.9953,4.1074,4.1663,4.168,4.1149,4.0566,3.97,3.8461,3.7905,3.7031,3.5937,3.537,0.0,0.0,0.0,0.0,0.0,0.0,0.0,0.0,0.0,0.0,0.0,0.0,0.0,0.0,0.0,0.0,0.0,0.0,0.0,2.6362,2.6083,2.5782,0.0,0.0,0.0,0.0,0.0,0.0,0.0,0.0,0.0,2.1597,2.1437,2.1239,0.0,0.0,2.0729,2.0466,2.0484,2.0595,2.0831,0.0,0.0,0.0,2.0171,1.9702,1.9046,1.8288,1.7738,1.7678,1.7647,1.7595,1.7533,1.7533,1.7575,1.7417,1.7712,1.7957,1.798,1.7761,1.7561,1.7567,1.7137,1.6781,3.029,2.9396,2.8791,2.8565,2.8588,2.8588,2.8579,2.8536,2.8442,2.8345,2.8228,2.7859,2.7603,2.7513,2.732,0.0,0.0,0.0,2.8075,2.8469,2.9243,2.9834,3.0323,3.1093,3.1418,3.1358,3.16,3.1846,3.2143,3.2335,3.2378,3.2378,0.0,0.0,3.5183,3.592,3.7101,3.8654,3.9451,4.0311,4.1167,4.1662,4.1637,4.1117,4.0793,4.0109,3.907,3.8262,3.7446,3.6499,3.5792,3.4966,0.0,0.0,0.0,0.0,0.0,0.0,0.0,0.0,0.0,0.0,0.0,2.7516,2.7483,0.0,0.0,0.0,2.75,2.7233,2.7096,2.6584,0.0,0.0,0.0,0.0,0.0,0.0,0.0,2.2995,2.2555,2.2055,2.1465,2.14,2.1199,2.0668,2.069,2.0668,2.0439,0.0,2.0545,2.068,2.0449,2.0288,2.0333,1.9987,1.9477,1.8854,1.825,1.7799,1.7725,1.7735,1.769,1.7626,1.769,1.769,1.769,1.7989,1.8091,1.7822,1.7567,1.7432,1.7345,1.7,1.6697,3.2336,3.226,3.0793,3.0212,3.0278,3.0278,3.0247,3.0162,3.0037,2.9916,2.9718,2.8875,2.8372,2.8176,2.8058,0.0,0.0,2.9362,2.9984,3.0013,3.0758,3.1093,3.1129,3.1908,3.222,3.211,3.2762,3.3015,3.2897,3.3489,3.3776,3.3669,3.3595,3.4219,3.5466,3.6319,3.7492,3.9083,3.9891,4.0707,4.1515,4.1577,4.1515,4.1363,4.0717,4.0227,4.0033,3.8564,3.769,3.7491,3.601,3.5094,3.4922,0.0,0.0,0.0,0.0,0.0,0.0,0.0,0.0,0.0,0.0,0.0,0.0,0.0,0.0,0.0,2.8186,0.0,2.7478,2.666,0.0,0.0,0.0,2.4851,2.4471,2.3889,2.3245,2.2669,0.0,0.0,0.0,0.0,2.1231,2.0702,2.066,2.0744,2.0768,2.0557,2.0444,2.0546,2.0291,2.0042,1.9857,1.9396,1.8931,1.8539,1.8434,1.8365,1.821,1.823,1.8317,1.821,1.8327,1.8395,1.8472,1.8285,1.8058,1.743,1.7298,1.7216,1.7086,1.688,1.665,3.2259,3.2297,3.1902,3.1822,3.1922,3.1889,3.1836,3.1762,3.107,3.0678,3.0527,2.9587,2.9031,2.8809,2.9389,2.9545,2.941,3.0384,3.0812,3.0794,3.1546,3.1908,3.1944,3.2683,3.2973,3.2834,3.2952,3.3205,3.356,3.3721,3.4234,3.4987,3.5018,3.5153,3.5536,3.6858,3.8007,3.899,3.9773,4.0515,4.1194,4.1197,4.1169,4.1029,4.0745,4.0289,3.9657,3.9203,3.8391,3.7137,3.6655,3.5912,3.466,3.4167,0.0,0.0,0.0,0.0,0.0,0.0,0.0,0.0,0.0,2.8451,2.8414,0.0,2.8485,0.0,2.8339,2.8086,2.7869,2.7436,0.0,0.0,2.6275,2.5782,2.5274,2.4673,2.4115,2.3539,2.3032,2.2485,2.1869,2.1744,2.1479,2.0831,2.076,2.0698,2.0523,2.0569,2.0501,2.0279,2.0053,1.9802,1.9341,1.8865,1.8482,1.8357,1.8144,1.792,1.7852,1.7784,1.7803,1.7852,1.7842,1.792,1.8086,1.7978,1.7833,1.759,1.7591,1.7541,1.7514,1.7101,1.675,3.3208,3.3266,3.3271,3.3353,3.3375,3.2656,3.2335,3.226,3.1713,3.1466,3.1347,3.0692,3.0272,3.0094,3.0467,3.0567,3.0493,3.1238,3.1556,3.1564,3.2361,3.2712,3.2719,3.3418,3.3736,3.3611,3.3856,3.4084,3.434,3.4553,3.4986,3.5518,3.6139,3.6388,3.635,3.7474,3.8442,3.9157,3.9905,4.044,4.0805,4.0831,4.0745,4.0648,4.0534,4.0297,3.9805,3.9336,3.8696,3.7818,3.7,3.6198,3.5299,3.4538,3.3651,0.0,0.0,0.0,0.0,0.0,0.0,0.0,0.0,0.0,0.0,0.0,2.893,0.0,2.8822,0.0,2.8181,2.765,2.7121,2.6733,2.6228,2.5741,2.5224,2.4673,2.4089,2.3475,2.3071,2.2617,2.2071,2.1888,2.1692,2.1105,2.0881,2.0643,2.0317,2.0339,2.0237,1.9857,1.9594,1.9341,1.8808,1.8574,1.8419,1.8301,1.8238,1.8151,1.8151,1.809,1.81,1.8151,1.8151,1.8085,1.8052,1.7968,1.7852,1.7657,1.7548,1.7489,1.7451,1.7194,1.6908,3.4386,3.4491,3.4473,3.4517,3.4449,3.3144,3.2541,3.2483,3.231,3.2133,3.1952,3.1668,3.152,3.1371,3.1352,3.1301,3.1302,3.2027,3.2343,3.2397,3.3067,3.3436,3.3473,3.4091,3.4357,3.4357,3.49,3.5171,3.5137,3.557,3.5749,3.5727,3.696,3.7508,3.7442,3.8145,3.8853,3.9512,4.0246,4.0607,4.0591,4.0557,4.0491,4.0391,4.0256,4.0188,4.007,3.9312,3.8824,3.869,3.7252,3.6306,3.609,3.4752,3.3865,0.0,3.2889,0.0,0.0,0.0,0.0,0.0,0.0,0.0,0.0,2.9222,2.9417,2.9881,2.9355,2.8828,2.8443,2.7696,2.6983,2.6504,2.6012,2.549,2.5032,2.4481,2.3917,2.3218,2.3044,2.2732,2.2176,2.2031,2.1889,2.1481,2.1149,2.0751,2.0293,2.0129,1.9868,1.9404,1.922,1.9094,1.8694,1.8645,1.8579,1.8485,1.8489,1.8646,1.8599,1.8609,1.8627,1.8618,1.859,1.8486,1.8218,1.8139,1.7977,1.7748,1.7535,1.7367,1.7222,1.7157,1.7107,3.4234,3.4344,3.4354,3.4363,3.4431,3.4117,3.4027,3.4011,3.329,3.2527,3.1755,3.1544,3.1371,3.1297,3.1829,3.2046,3.2045,3.2814,3.3176,3.3194,3.3339,3.3677,3.4163,3.4281,3.463,3.516,3.5134,3.5386,3.5879,3.5834,3.6029,3.6493,3.7111,3.7617,0.0,0.0,0.0,0.0,4.0915,4.1153,4.1087,4.0978,4.0845,4.0671,4.01,0.0,3.9764,3.9492,3.9054,3.8367,3.7845,0.0,0.0,0.0,0.0,0.0,0.0,0.0,0.0,0.0,0.0,0.0,3.1197,3.0757,2.9816,2.9686,2.9664,2.9605,2.9476,2.9169,2.8701,2.8311,2.7887,2.7384,2.6985,2.6491,2.5916,2.5406,2.4902,2.4289,2.3793,2.3225,2.2651,2.2506,2.2312,2.1667,2.1565,2.136,2.0839,2.0162,1.9709,1.9609,1.9554,1.9473,1.935,1.9111,1.8889,1.8826,1.8635,1.8508,1.8453,1.8378,1.8286,1.8443,1.848,1.8489,1.8543,1.8451,1.8328,1.8209,1.8073,1.7742,1.7292,1.7107,1.6968,3.4067,0.0,3.4148,3.4173,0.0,0.0,3.4221,3.4227,3.386,3.3356,3.2779,3.2647,3.2535,3.242,3.2756,3.2835,3.2814,3.3212,3.3628,3.3991,3.3912,3.4248,3.4929,3.5259,3.5554,3.5897,3.6061,3.636,3.6657,3.6408,3.6574,3.7276,3.7689,3.8163,3.8794,3.9628,4.029,4.076,4.1002,4.1218,4.155,4.151,4.1167,4.055,0.0,0.0,0.0,0.0,0.0,0.0,0.0,0.0,0.0,0.0,0.0,3.3726,3.3646,3.3112,3.1908,3.1763,3.1621,3.1221,3.1189,3.102,3.0621,3.0587,3.0478,3.0244,3.0176,2.9772,2.9033,2.8629,2.8127,2.7416,2.6855,2.6426,2.6217,2.5768,2.536,2.5037,2.4558,2.3954,2.3389,2.3069,2.2671,2.2103,2.1842,2.1646,2.1062,2.0546,2.0128,1.9858,1.9635,1.9535,1.9472,1.929,1.9173,1.9107,1.8948,1.8831,1.885,1.8782,1.8696,1.8859,1.885,1.8803,1.8685,1.8581,1.8469,1.8267,1.8199,1.8013,1.7687,1.7576,1.744,3.3895,3.3965,3.4094,3.4168,3.4194,3.4323,3.4397,3.4378,0.0,0.0,0.0,3.3807,3.368,3.3595,3.3637,3.3669,3.3628,3.3755,3.419,3.4757,3.4645,3.4997,3.569,3.6251,3.6523,3.6595,3.7071,3.7297,3.7259,3.6886,3.7067,3.7731,3.8188,3.8738,3.9518,4.0442,4.098,4.1052,4.1127,4.1421,4.1999,4.1955,4.151,4.0601,4.0469,3.9946,3.9018,3.8946,3.8825,3.8567,3.7809,3.727,3.699,3.6318,3.5498,3.4634,3.4587,3.3925,3.2431,3.2337,3.2003,3.1192,3.1145,3.1189,3.127,3.1258,3.116,3.0923,3.068,3.0166,2.9286,2.8801,2.8157,2.7234,2.6709,2.6441,2.639,2.5991,2.5688,2.5506,2.504,2.4576,2.394,2.3575,2.3131,2.2617,2.2263,2.1775,2.1229,2.0833,2.0452,2.007,1.9919,1.9728,1.958,1.9429,1.943,1.9449,1.9307,1.9283,1.9292,1.9292,1.9292,1.9228,1.9292,1.9146,1.8907,1.8825,1.8677,1.8373,1.8315,1.8294,1.8309,1.833,1.8174,3.3671,3.3808,3.4476,3.4853,3.5018,3.568,3.5947,3.5762,3.4502,3.3913,3.3807,3.3671,3.3605,3.3528,3.4177,3.4443,3.4498,3.515,3.5467,0.0,3.5425,3.5774,3.6324,3.6467,3.6774,3.7234,3.7281,3.7259,3.7126,3.6829,3.7043,3.7629,3.8019,3.8789,3.98,4.0381,4.0892,4.1331,4.2055,4.2411,4.2435,4.2265,4.2104,4.1763,4.1205,4.0508,3.9771,3.9455,3.9048,3.8424,3.8067,3.7403,3.6584,3.64,3.5906,3.493,3.4867,3.4466,3.3677,3.363,3.3263,3.2455,3.2377,3.1949,3.0947,3.0756,3.0654,3.0479,3.0295,2.9818,2.9361,2.895,2.849,2.784,2.7554,2.7276,2.6794,2.6432,2.6043,2.5612,2.4911,2.4378,2.3954,2.3833,2.3585,2.2965,2.2684,2.2488,2.1774,2.0971,2.0545,2.0416,2.046,2.0428,2.0312,2.0023,1.9818,1.9778,1.9483,1.9292,1.9292,1.9292,1.9292,1.9292,1.9292,1.9256,1.9191,1.9246,1.9131,1.9045,1.9003,1.9012,1.9045,1.9054,1.8861,3.3746,3.4251,3.4634,3.5093,3.5648,3.5996,3.6113,3.6029,3.5345,3.5015,3.5005,3.4889,3.4848,3.4824,3.5126,3.5258,3.5276,3.5557,3.5872,3.6237,3.6119,3.6464,3.7094,3.7059,3.7147,3.7374,3.7279,3.7108,3.7083,3.7207,3.7592,3.8173,3.8862,3.9394,3.9815,4.0758,4.1211,4.1322,4.2071,4.2565,4.2823,4.2797,4.2458,4.1929,4.1499,4.0951,4.0118,3.9849,3.9392,3.8627,3.8332,3.7821,3.6904,3.6754,3.6322,3.54,3.5338,3.4926,3.4102,3.3967,3.3713,3.3318,3.2982,3.2553,3.187,3.1597,3.1397,3.1125,3.0835,3.0335,2.9672,2.916,2.8554,2.7879,2.7454,2.7174,2.7093,2.6698,2.6373,2.614,2.5753,2.5136,2.451,2.441,2.4167,2.3424,2.2947,2.2466,2.2035,2.1339,2.0893,2.0847,2.0757,2.0624,2.0566,2.0177,1.9932,1.9923,1.9529,1.9292,1.9292,1.9292,1.9292,1.9292,1.9292,1.9292,1.9292,1.9292,1.9292,1.9292,1.9292,1.9292,1.9292,1.9292,1.9091,3.3743,3.457,3.4818,3.5483,3.643,3.6516,3.6497,3.6497,3.6516,3.6497,3.643,3.6108,3.5895,3.5882,3.5983,3.6041,3.6009,3.6121,3.6471,3.6926,3.6859,3.7077,3.7578,3.7449,3.7374,3.7337,3.7185,3.7031,3.7018,3.7533,3.8114,3.8786,3.9576,3.9884,3.9711,4.095,4.1465,4.1253,4.2038,4.2665,4.3007,4.3007,4.2668,4.1996,4.1808,4.13,4.0534,4.027,3.975,3.8944,3.8728,3.8229,3.7371,3.7202,3.6723,3.5966,3.5797,3.5383,3.4499,3.4075,3.3864,3.3864,3.3425,3.3034,3.2855,3.2477,3.2098,3.1627,3.1218,3.0734,2.99,2.934,2.8736,2.7973,2.7509,2.7309,2.7344,2.7025,2.6725,2.6637,2.6302,2.5779,2.517,2.4909,2.4394,2.3582,2.2863,2.2327,2.2101,2.1589,2.1215,2.1128,2.0886,2.0654,2.0566,2.0255,2.001,1.9904,1.9608,1.9381,1.9301,1.9292,1.9292,1.9292,1.9292,1.9292,1.9292,1.9292,1.9292,1.9292,1.9292,1.9292,1.9292,1.9292,1.9219,3.3526,3.4297,3.5076,3.6348,3.7727,3.795,3.7947,3.7881,3.802,3.8038,3.7772,3.6531,3.5919,3.5928,3.6562,3.6819,3.6775,3.7442,3.7698,3.7578,3.7596,3.7524,3.7431,3.7411,3.7299,3.7147,3.7091,3.6992,3.6864,3.7509,3.8303,3.9268,3.9598,3.9713,3.9845,4.0713,4.1172,4.1064,4.2245,4.2883,4.2921,4.2761,4.2539,4.2348,4.2141,4.1693,4.1054,4.0848,4.0325,3.9518,3.933,3.8748,3.7809,3.7653,3.7218,3.6243,3.6166,3.5766,3.4988,3.4273,3.3864,3.3698,3.3577,3.3319,3.3134,3.2827,3.2205,3.1337,3.085,3.0433,2.9875,2.9586,2.9157,2.8543,2.8366,2.8193,2.7578,2.7311,2.7069,2.6471,2.6164,2.5688,2.5087,2.4838,2.4368,2.3535,2.281,2.2327,2.2101,2.1665,2.1215,2.1128,2.0886,2.0644,2.0566,2.0411,2.0167,1.9913,1.9687,1.9469,1.9381,1.9292,1.9292,1.9292,1.9292,1.9292,1.9292,1.9292,1.9292,1.9292,1.9292,1.9292,1.9292,1.9292,1.9246,3.3501,3.4741,3.5182,3.6357,3.7861,3.802,3.802,3.7985,3.8038,3.8072,3.8016,3.7416,3.7178,3.7232,3.7507,3.7548,3.7533,3.7736,3.7774,3.7703,3.7649,3.7559,3.7411,3.7356,3.7243,3.7091,3.697,3.6886,3.6917,3.7612,3.8706,3.9904,3.9834,3.9677,3.9795,4.0713,4.114,4.105,4.2255,4.284,4.2606,4.2509,4.2381,4.2238,4.2061,4.1836,4.1581,4.1243,4.0781,4.0006,3.9765,3.9209,3.8412,3.8142,3.7625,3.6853,3.6219,3.5773,3.5437,3.4913,3.4651,3.4588,3.4103,3.3691,3.3328,3.2908,3.2251,3.1536,3.1027,3.0559,2.9797,2.9477,2.9099,2.8651,2.8406,2.8066,2.7603,2.7268,2.693,2.6358,2.6025,2.563,2.4981,2.4406,2.3943,2.3408,2.2853,2.2456,2.2273,2.1807,2.1359,2.1205,2.0974,2.0731,2.0644,2.0411,2.0177,1.9923,1.9696,1.9557,1.9427,1.9292,1.9292,1.9311,1.9329,1.9329,1.9292,1.9292,1.9292,1.9292,1.9292,1.9292,1.9292,1.9292,1.9292,3.3406,3.4942,3.5581,3.656,3.7685,3.7757,3.7775,3.7828,3.7828,3.7881,3.7967,3.7967,3.802,3.8106,3.8036,3.8002,3.7949,3.7774,3.7703,3.7667,3.7613,3.7503,3.7392,3.7301,3.7206,3.7087,3.6886,3.6951,3.7238,3.7813,3.8935,4.0116,3.9935,3.9778,3.999,4.0806,4.1198,4.1402,4.2264,4.2619,4.235,4.2302,4.219,4.2061,4.1882,4.1833,4.1767,4.1472,4.1021,4.0485,4.0189,3.9694,3.8912,3.8637,3.8116,3.738,3.6401,3.5829,3.5829,3.5368,3.5148,3.5037,3.4478,3.3966,3.3616,3.3151,3.2571,3.1948,3.1537,3.087,2.9855,2.9412,2.9036,2.8576,2.821,2.7868,2.7403,2.7079,2.6802,2.635,2.6168,2.5754,2.517,2.4572,2.4119,2.4004,2.3373,2.2785,2.2719,2.2289,2.1842,2.1567,2.143,2.1076,2.0732,2.0644,2.0409,2.0318,2.0146,2.0065,1.9758,1.9696,1.9641,1.9861,1.9622,1.9476,1.9512,1.9476,1.9292,1.9292,1.9292,1.9292,1.9292,1.9292,1.9292,3.3195,3.4848,3.6478,3.7193,3.7334,3.7392,3.7503,3.7631,3.7667,3.7792,3.7899,3.7899,3.7899,3.7934,3.7967,3.7985,3.7881,3.7757,3.7685,3.7613,3.7594,3.7484,3.7297,3.7281,3.7206,3.7027,3.6846,3.7332,3.837,3.8288,3.884,4.0053,3.9833,3.9976,4.0429,4.0835,4.1304,4.188,4.2255,4.2334,4.2141,4.2028,4.1963,4.1898,4.1736,4.1522,4.139,4.1323,4.1091,4.0805,4.0706,4.0276,3.9336,3.9161,3.8637,3.7692,3.6709,3.6201,3.6045,3.5452,3.4964,3.4854,3.4543,3.4341,3.4134,3.3722,3.3138,3.2412,3.215,3.143,3.0297,2.9734,2.9172,2.8411,2.8,2.7681,2.7143,2.7054,2.6728,2.6621,2.6324,2.6033,2.5865,2.5437,2.5015,2.478,2.4216,2.3679,2.3536,2.3109,2.2696,2.2362,2.2159,2.1767,2.0909,2.0957,2.1031,2.0838,2.0838,2.0902,2.081,2.0622,2.0493,2.0347,2.0081,1.9897,1.9833,1.9641,1.9384,1.9292,1.9292,1.9292,1.9292,1.9292,1.9292,3.296,3.4666,3.5852,3.665,3.7185,3.7279,3.7372,3.741,3.7466,3.7577,3.7703,3.7775,3.781,3.7917,3.7828,3.7792,3.7739,3.7685,3.7613,3.7594,3.7503,3.7392,3.7297,3.7206,3.7129,3.6987,3.6858,3.7351,3.8391,3.8802,3.9316,3.9901,3.9816,3.994,4.0403,4.0828,4.1304,4.1822,4.2194,4.2318,4.2091,4.1962,4.1833,4.1736,4.167,4.1522,4.1323,4.1221,4.107,4.0799,4.0662,4.0432,3.9895,3.926,3.8581,3.7963,3.7243,3.6556,3.602,3.5604,3.5078,3.4645,3.4332,3.4142,3.3868,3.3605,3.3213,3.2793,3.2457,3.1846,3.1006,3.0365,2.9835,2.9306,2.8897,2.8512,2.8145,2.7792,2.7523,2.7189,2.6635,2.619,2.5965,2.5509,2.5138,2.5039,2.4341,2.3902,2.3758,2.3437,2.2992,2.2625,2.2441,2.2187,2.1614,2.1523,2.1568,2.1332,2.1263,2.108,2.095,2.0771,2.0585,2.0622,2.042,2.0209,2.0081,1.9705,1.9448,1.9356,1.9356,1.9292,1.9292,1.9292,1.9292,3.3017,3.437,3.5325,3.6211,3.6935,3.7087,3.7182,3.722,3.7279,3.7392,3.754,3.7559,3.7685,3.7775,3.7739,3.7685,3.7685,3.7613,3.7577,3.7577,3.7466,3.7354,3.7297,3.7167,3.7052,3.6961,3.698,3.7448,3.8334,3.9063,3.9606,3.9935,3.9764,4.0021,4.0558,4.0902,4.1327,4.2048,4.2278,4.2221,4.2055,4.1928,4.1752,4.1588,4.1522,4.139,4.1272,4.1086,4.0882,4.073,4.0524,4.0331,4.006,3.933,3.8736,3.8377,3.7686,3.6998,3.6472,3.5853,3.5223,3.4679,3.4174,3.3799,3.3536,3.3312,3.3086,3.2846,3.2547,3.2154,3.1554,3.0993,3.0462,2.9874,2.9403,2.9035,2.869,2.8303,2.7792,2.7391,2.7138,2.6698,2.6364,2.5927,2.5694,2.5576,2.4852,2.4285,2.4182,2.3865,2.3453,2.3029,2.3006,2.2774,2.2443,2.2324,2.2187,2.1981,2.1749,2.1457,2.124,2.1004,2.0842,2.086,2.0732,2.0503,2.02,1.9806,1.9622,1.9522,1.9366,1.9292,1.9292,1.9292,1.9356,3.3317,3.4167,3.5092,3.5919,3.6673,3.6788,3.6891,3.7009,3.7069,3.7223,3.7374,3.7411,3.7503,3.7577,3.7613,3.7613,3.7613,3.7577,3.7577,3.7577,3.7466,3.7354,3.7297,3.7167,3.7062,3.6946,3.7366,3.7853,3.8333,3.9119,3.961,3.9715,3.9729,4.0167,4.1165,4.1091,4.1612,4.2439,4.2348,4.2092,4.2055,4.1765,4.1588,4.1588,4.139,4.1272,4.1102,4.095,4.073,4.0524,4.0401,4.0137,3.9753,3.9334,3.906,3.8868,3.8105,3.7666,3.736,3.6112,3.5321,3.485,3.417,3.3606,3.3326,3.3157,3.2846,3.2561,3.2417,3.2173,3.1909,3.1536,3.099,2.975,2.9425,2.9137,2.8758,2.8233,2.7655,2.7347,2.7446,2.7661,2.7267,2.6721,2.6389,2.6263,2.5684,2.5009,2.4977,2.463,2.4276,2.3846,2.3533,2.3338,2.3142,2.3096,2.2842,2.259,2.239,2.2108,2.1936,2.1655,2.1365,2.1346,2.1044,2.0814,2.0585,2.0228,2.0017,1.987,1.9622,1.9494,1.9586,1.9659,1.9549,3.275,3.3962,3.4357,3.5342,3.6516,3.6684,3.6806,3.6869,3.697,3.7087,3.7223,3.7354,3.7411,3.7466,3.754,3.7577,3.7577,3.7577,3.7577,3.7594,3.7392,3.7334,3.7259,3.7126,3.7211,3.7544,3.8105,3.8646,3.9046,3.9751,4.0034,3.9747,3.9677,4.0197,4.0992,4.1065,4.1586,4.2486,4.2285,4.2092,4.2071,4.1765,4.1588,4.1588,4.1355,4.1169,4.1117,4.0882,4.073,4.0539,4.0401,4.0121,3.9681,3.9322,3.9031,3.8841,3.8488,3.7856,3.7243,3.6678,3.5798,3.4925,3.4328,3.3861,3.3213,3.2917,3.2704,3.2417,3.2228,3.195,3.1669,3.1373,3.0939,3.0564,3.0229,2.973,2.9378,2.8795,2.8312,2.7758,2.7799,2.7719,2.7231,2.6809,2.6629,2.6574,2.591,2.5475,2.52,2.4946,2.4519,2.3917,2.3831,2.3657,2.3309,2.3144,2.3018,2.2804,2.2591,2.2441,2.2264,2.2087,2.182,2.1649,2.1355,2.1135,2.0906,2.0686,2.0391,2.031,2.0145,2.0108,2.0136,2.0008,1.9907,3.2217,3.3391,3.3837,3.4766,3.6004,3.6422,3.6643,3.6708,3.6869,3.697,3.7069,3.7241,3.7354,3.7411,3.7503,3.754,3.7577,3.7577,3.7577,3.7594,3.741,3.7297,3.7259,3.7027,3.7231,3.7791,3.8382,3.8917,3.9392,4.0061,4.0188,3.9781,3.9677,4.0163,4.0885,4.1007,4.1526,4.2328,4.2206,4.2076,4.1992,4.1749,4.1588,4.1522,4.1288,4.1117,4.1049,4.0814,4.0593,4.0401,4.0191,3.991,3.9466,3.9177,3.887,3.8723,3.8412,3.7953,3.7382,3.6946,3.6282,3.5079,3.451,3.3872,3.307,3.2704,3.2489,3.2228,3.2023,3.1817,3.1522,3.1211,3.0986,3.0748,3.0482,3.0075,2.9611,2.9052,2.8486,2.8018,2.78,2.7557,2.7219,2.6891,2.6629,2.6479,2.5994,2.5475,2.52,2.5031,2.4519,2.409,2.3841,2.358,2.3232,2.3144,2.3144,2.2931,2.2677,2.253,2.2353,2.1998,2.1731,2.1722,2.1511,2.1484,2.1291,2.0934,2.0734,2.0702,2.0659,2.0452,2.034,2.0219,2.0129,3.1754,3.2599,3.3494,3.438,3.5229,3.6125,3.6485,3.6544,3.6708,3.6869,3.6987,3.7069,3.7223,3.7337,3.7392,3.7466,3.7558,3.754,3.754,3.7503,3.7372,3.7259,3.722,3.7009,3.7335,3.7965,3.8387,3.8883,3.958,4.008,4.0087,3.9729,3.9728,4.0113,4.068,4.0909,4.1417,4.2104,4.2157,4.206,4.191,4.1718,4.1588,4.1588,4.1288,4.1117,4.1049,4.0677,4.0401,4.0261,3.991,3.961,3.9162,3.8943,3.8723,3.8516,3.8156,3.7929,3.771,3.7035,3.6226,3.5501,3.4587,3.3612,3.2966,3.2571,3.2286,3.2023,3.189,3.1669,3.1347,3.1048,3.0748,3.0355,3.0062,2.9677,2.9209,2.8736,2.8351,2.795,2.7696,2.7441,2.7219,2.6809,2.664,2.6468,2.6078,2.557,2.5285,2.4935,2.4605,2.4176,2.3841,2.358,2.3232,2.3144,2.3057,2.2969,2.2706,2.253,2.2353,2.1998,2.1731,2.1722,2.1704,2.1704,2.156,2.1253,2.1116,2.1094,2.0925,2.0629,2.0524,2.0584,2.0452,3.1732,3.2576,3.3447,3.4339,3.516,3.6008,3.6402,3.6502,3.6643,3.6806,3.6851,3.7013,3.7147,3.7185,3.7279,3.7334,3.7372,3.7372,3.7372,3.7354,3.7223,3.7126,3.7167,3.74,3.7885,3.853,3.8991,3.9521,4.0161,4.0235,4.0087,3.9729,3.9694,3.9864,4.0229,4.077,4.1135,4.1562,4.1981,4.2044,4.1878,4.1718,4.1604,4.1588,4.1288,4.1117,4.1049,4.0486,4.0137,4.0066,3.9839,3.9553,3.9104,3.887,3.8723,3.8441,3.8156,3.7853,3.7658,3.7286,3.6612,3.5821,3.4985,3.4178,3.3202,3.2604,3.2209,3.189,3.1656,3.136,3.1061,3.0748,3.0279,2.9729,2.9521,2.9287,2.8882,2.8566,2.8191,2.795,2.7615,2.7452,2.7219,2.6903,2.6629,2.6479,2.6173,2.5633,2.5285,2.5105,2.4775,2.4176,2.3754,2.3493,2.3232,2.3144,2.3047,2.3047,2.2784,2.2432,2.2255,2.1998,2.182,2.1731,2.1722,2.1722,2.1722,2.1533,2.1566,2.1484,2.1396,2.1165,2.1157,2.1175,2.0944,3.1484,3.2004,3.2929,3.3778,3.4597,3.5483,3.6049,3.6409,3.6544,3.6684,3.6788,3.6891,3.7031,3.7091,3.7203,3.7241,3.7297,3.7297,3.7297,3.7279,3.7147,3.7069,3.7163,3.7533,3.8173,3.886,3.9307,3.9843,4.0349,4.0387,4.0087,3.9781,3.9677,3.9727,3.9992,4.0598,4.113,4.1385,4.1805,4.2044,4.1894,4.1733,4.1604,4.1538,4.1288,4.1034,4.083,4.0277,4.0011,3.994,3.9711,3.9409,3.9017,3.8855,3.8649,3.8292,3.7915,3.7701,3.7457,3.7289,3.6712,3.5906,3.5141,3.4353,3.3422,3.2581,3.1963,3.1743,3.1495,3.1198,3.0836,3.0457,2.9908,2.9353,2.9118,2.8973,2.8803,2.8419,2.8111,2.7881,2.7626,2.7371,2.7231,2.6809,2.664,2.6552,2.6162,2.5749,2.5285,2.52,2.4861,2.4186,2.3754,2.3493,2.3319,2.3144,2.3057,2.296,2.2696,2.2432,2.2176,2.1909,2.182,2.1731,2.1731,2.1731,2.1731,2.1731,2.1695,2.1658,2.1731,2.1651,2.1482,2.1311,2.1122,3.1173,3.1297,3.2224,3.302,3.3802,3.4685,3.5473,3.6118,3.6253,3.6481,3.6667,3.6748,3.693,3.7052,3.7108,3.7164,3.7259,3.722,3.7259,3.722,3.7126,3.7048,3.7053,3.7742,3.8338,3.8929,3.9359,3.9945,4.0349,4.0337,4.0087,3.9781,3.9677,3.9661,3.9851,4.0541,4.1021,4.1193,4.1741,4.2028,4.1863,4.1733,4.1604,4.1522,4.1288,4.0898,4.0539,4.0207,4.0011,4.0011,3.9625,3.9265,3.887,3.8782,3.8501,3.8081,3.7763,3.7534,3.7303,3.7134,3.6732,3.5969,3.5142,3.43,3.3465,3.2563,3.1964,3.1596,3.136,3.1061,3.0609,3.01,2.9611,2.9209,2.8882,2.8803,2.8645,2.8271,2.7881,2.7881,2.7476,2.7231,2.7067,2.6914,2.6617,2.6585,2.6162,2.5654,2.5285,2.5115,2.469,2.4013,2.3754,2.358,2.3319,2.3144,2.3057,2.2969,2.2608,2.2344,2.1998,2.183,2.1731,2.1731,2.1731,2.1731,2.1731,2.1731,2.1731,2.1731,2.1731,2.1562,2.1482,2.123,2.105,3.1213,3.1342,3.2264,3.2752,3.3144,3.395,3.4749,3.5421,3.5578,3.5989,3.658,3.6731,3.6873,3.7009,3.7009,3.7048,3.7066,3.7066,3.7066,3.7066,3.7066,3.6948,3.7126,3.7979,3.8643,3.9076,3.9945,4.0426,4.0451,4.0337,4.0087,3.9729,3.9694,3.9481,3.9309,4.0394,4.0782,4.0764,4.1564,4.2012,4.1928,4.1733,4.1588,4.1522,4.1288,4.0882,4.0539,4.0207,4.0011,3.994,3.964,3.9265,3.887,3.8782,3.8501,3.8005,3.7701,3.7548,3.7303,3.7007,3.6665,3.6207,3.5485,3.464,3.372,3.2809,3.2062,3.1479,3.1035,3.0685,3.0305,2.9677,2.93,2.9052,2.8816,2.8498,2.8339,2.8099,2.7881,2.7615,2.7383,2.7231,2.7149,2.682,2.6629,2.649,2.61,2.557,2.5285,2.5105,2.4519,2.3927,2.3754,2.3667,2.3319,2.3144,2.3057,2.2969,2.2618,2.2353,2.2097,2.183,2.1731,2.1731,2.1731,2.1731,2.1731,2.1731,2.1731,2.1731,2.1642,2.1562,2.1392,2.114,2.0969,3.1291,3.1419,3.1927,3.2402,3.2835,3.3348,3.3955,3.4616,3.476,3.529,3.5943,3.6168,3.6439,3.6886,3.6908,3.6891,3.6869,3.6886,3.6869,3.6869,3.6869,3.6846,3.698,3.7781,3.846,3.892,3.9733,4.0233,4.0431,4.0387,4.0121,3.9729,3.9677,3.9415,3.9183,4.0295,4.0766,4.0809,4.1483,4.2061,4.1962,4.1702,4.1472,4.1421,4.1169,4.0898,4.0539,4.0261,4.0137,3.9925,3.9711,3.9337,3.887,3.8782,3.8427,3.7839,3.7701,3.7457,3.7148,3.6864,3.6642,3.6377,3.5696,3.4879,3.3998,3.3148,3.2332,3.1721,3.1107,3.0546,3.0152,2.9521,2.9143,2.9064,2.8736,2.8351,2.8122,2.7962,2.7788,2.7534,2.7301,2.7208,2.7044,2.6809,2.6523,2.6362,2.5994,2.5475,2.5285,2.5031,2.4519,2.41,2.3841,2.3667,2.3319,2.3057,2.3057,2.2882,2.2706,2.2441,2.2264,2.1998,2.1731,2.1731,2.1731,2.1731,2.1731,2.1731,2.1731,2.1731,2.1651,2.1562,2.1383,2.1212,2.0942,3.1423,3.1513,3.1559,3.1994,3.2599,3.271,3.3179,3.3835,3.3921,3.4414,3.5151,3.5392,3.5936,3.6429,3.6713,3.6766,3.6742,3.6702,3.6766,3.6788,3.6766,3.6725,3.6899,3.7262,3.7958,3.8728,3.9485,3.9971,4.0412,4.0485,4.0221,3.9833,3.9677,3.9468,3.9462,4.0287,4.088,4.0813,4.1643,4.2109,4.2076,4.1783,4.1519,4.1185,4.1117,4.0898,4.0539,4.0331,4.0207,3.9996,3.9854,3.9394,3.8943,3.8782,3.8501,3.7687,3.7625,3.7457,3.7148,3.6864,3.6563,3.6363,3.5741,3.5056,3.431,3.3365,3.2571,3.1896,3.1213,3.0445,3.0088,2.9456,2.9143,2.9064,2.8736,2.8351,2.8042,2.7881,2.7788,2.7452,2.7301,2.7138,2.6962,2.6715,2.6512,2.6212,2.576,2.5475,2.5285,2.4946,2.4444,2.41,2.3841,2.358,2.3222,2.3144,2.3057,2.2969,2.2706,2.253,2.2353,2.1998,2.1741,2.1731,2.1731,2.1731,2.1731,2.1731,2.1731,2.1731,2.1642,2.1651,2.1463,2.1186,2.1006,3.1517,3.1593,3.1596,3.1757,3.1935,3.199,3.2438,3.3024,3.3093,3.3602,3.4424,3.5087,3.5404,3.5826,3.6458,3.6667,3.6626,3.6661,3.6684,3.6667,3.6684,3.6643,3.6655,3.671,3.7465,3.8518,3.9301,3.9868,4.0412,4.0485,4.0288,3.9935,3.9729,3.952,3.9653,4.0327,4.0874,4.0889,4.1689,4.211,4.2044,4.1896,4.1551,4.1185,4.1117,4.0898,4.0608,4.0401,4.0207,3.9996,3.9854,3.9379,3.8929,3.8782,3.8427,3.7991,3.7701,3.7457,3.724,3.6772,3.647,3.6284,3.5922,3.5143,3.438,3.3554,3.2744,3.174,3.1034,3.0317,2.9869,2.9378,2.9143,2.8973,2.8749,2.8351,2.8042,2.7881,2.7708,2.7371,2.7219,2.7067,2.688,2.6715,2.6418,2.6107,2.5654,2.538,2.5285,2.4861,2.4358,2.41,2.3841,2.3493,2.3222,2.3135,2.3057,2.296,2.2784,2.252,2.2353,2.2008,2.1741,2.183,2.1731,2.1731,2.1731,2.1731,2.1731,2.1731,2.1731,2.1731,2.1553,2.1374,2.1195,3.1614,3.1688,3.1709,3.1746,3.18,3.18,3.199,3.2283,3.2352,3.2803,3.3464,3.4042,3.4683,3.5272,3.5804,3.6162,3.6433,3.6502,3.6544,3.6544,3.6502,3.6502,3.6485,3.6444,3.731,3.8284,3.9008,3.9709,4.048,4.0517,4.0337,4.002,3.9833,3.959,3.9541,4.0022,4.0557,4.0924,4.1494,4.1949,4.2061,4.1865,4.1519,4.1303,4.1102,4.095,4.073,4.047,4.0277,4.0066,3.9925,3.9538,3.9104,3.8797,3.8516,3.8005,3.7701,3.7534,3.724,3.6772,3.6405,3.6325,3.5978,3.5453,3.4674,3.3847,3.2747,3.142,3.0804,3.02,2.9804,2.9378,2.9143,2.9052,2.8749,2.8431,2.8111,2.795,2.7708,2.7371,2.7301,2.7056,2.6798,2.655,2.6418,2.599,2.5559,2.538,2.52,2.4861,2.4358,2.41,2.3764,2.3493,2.3222,2.3135,2.3144,2.3047,2.2872,2.2608,2.2441,2.2176,2.2008,2.1919,2.183,2.1741,2.1731,2.1731,2.1731,2.1731,2.1731,2.1642,2.1651,2.1562,2.1284,3.1709,3.18,3.18,3.18,3.18,3.18,3.1783,3.1837,3.1854,3.2165,3.2683,3.3052,3.3761,3.4599,3.5209,3.5693,3.6249,3.6284,3.6385,3.6402,3.6402,3.6402,3.6402,3.6533,3.7094,3.8405,3.8663,3.9359,4.0422,4.0534,4.037,4.0138,3.9884,3.9677,3.9668,3.9902,4.0393,4.0874,4.1281,4.1645,4.1901,4.1817,4.1522,4.1307,4.1153,4.1018,4.0799,4.0593,4.0331,4.0066,3.994,3.9696,3.9177,3.8943,3.8575,3.8066,3.7777,3.7534,3.7303,3.6772,3.6405,3.6405,3.5978,3.5548,3.486,3.3807,3.2527,3.0958,3.0407,3.02,2.9817,2.9456,2.9221,2.9052,2.8816,2.8431,2.8179,2.8018,2.7788,2.7545,2.7301,2.7056,2.6715,2.655,2.6407,2.6074,2.5559,2.538,2.52,2.4946,2.4529,2.411,2.3764,2.3406,2.3232,2.3135,2.3144,2.3047,2.2882,2.2715,2.2618,2.2441,2.2274,2.2097,2.2008,2.183,2.183,2.1731,2.1731,2.1731,2.1731,2.1642,2.1651,2.1562,2.1472,3.18,3.18,3.18,3.18,3.18,3.18,3.1856,3.1912,3.1912,3.1946,3.2171,3.2743,3.3121,3.3667,3.4789,3.5576,3.6111,3.6284,3.6284,3.6343,3.6301,3.6301,3.636,3.6284,3.7094,3.8267,3.8543,3.9445,4.0285,4.0497,4.0436,4.0255,3.9935,3.9677,3.9709,3.9797,4.0376,4.0949,4.1472,4.1885,4.2043,4.1978,4.1686,4.1406,4.1153,4.1034,4.0814,4.0608,4.0331,4.0066,4.0011,3.9711,3.9177,3.8943,3.8738,3.8366,3.7991,3.761,3.7471,3.6864,3.6405,3.6325,3.5965,3.5562,3.4807,3.3686,3.2437,3.1292,3.07,3.02,2.9817,2.9534,2.9275,2.9118,2.8882,2.8578,2.8259,2.803,2.7788,2.7626,2.7383,2.7056,2.6633,2.6561,2.6407,2.6063,2.5728,2.5464,2.5211,2.4871,2.4529,2.411,2.3851,2.3493,2.3319,2.3144,2.3115,2.3125,2.296,2.2794,2.2715,2.2618,2.253,2.2362,2.2185,2.2008,2.183,2.1731,2.1731,2.1731,2.1731,2.1731,2.1731,2.1651,2.1562,3.191,3.18,3.18,3.1819,3.1856,3.1839,3.1929,3.1984,3.202,3.2037,3.2018,3.2277,3.2827,3.3632,3.4766,3.5594,3.6163,3.6284,3.6284,3.6284,3.6284,3.6284,3.6284,3.6335,3.6973,3.7801,3.8439,3.9077,3.9903,4.0377,4.0436,4.0387,4.0037,3.9781,3.9677,3.9661,4.0193,4.0958,4.1678,4.2109,4.2109,4.193,4.1752,4.1456,4.1236,4.1102,4.0882,4.0677,4.0401,4.0207,4.0081,3.9839,3.9466,3.909,3.8723,3.8649,3.7991,3.761,3.7548,3.6943,3.6642,3.6325,3.6031,3.5588,3.4687,3.3535,3.2391,3.1265,3.0713,3.0213,2.9817,2.9534,2.9365,2.9118,2.8961,2.8657,2.8339,2.803,2.78,2.7638,2.7383,2.7056,2.6715,2.6633,2.6385,2.6063,2.5717,2.5527,2.5189,2.4786,2.4529,2.411,2.3851,2.358,2.3406,2.3232,2.3066,2.3066,2.3076,2.2921,2.296,2.2794,2.26,2.2463,2.2432,2.2167,2.1998,2.183,2.1741,2.1741,2.1731,2.1731,2.1731,2.1642,2.1562,3.2001,3.1873,3.1873,3.1893,3.193,3.1948,3.202,3.2108,3.2108,3.2126,3.2073,3.2071,3.2671,3.3736,3.4507,3.5232,3.599,3.6197,3.6284,3.6343,3.6343,3.6402,3.6419,3.6471,3.6834,3.7517,3.8355,3.9053,3.9704,4.0216,4.0534,4.0485,4.0138,3.9884,3.9677,3.9634,3.9941,4.0974,4.1785,4.2138,4.219,4.1996,4.1882,4.162,4.137,4.1185,4.1034,4.0814,4.0524,4.0277,4.0066,3.9925,3.9625,3.9162,3.8782,3.8649,3.8066,3.7701,3.7471,3.7084,3.6628,3.6391,3.6017,3.5359,3.4353,3.3437,3.2521,3.1356,3.0739,3.0265,2.9907,2.9689,2.9365,2.9209,2.8961,2.8736,2.851,2.8191,2.7881,2.7719,2.7464,2.7056,2.6798,2.6622,2.6373,2.5968,2.5706,2.5505,2.5179,2.4775,2.4423,2.4166,2.3811,2.3523,2.3236,2.3093,2.3006,2.2891,2.29,2.2842,2.2658,2.2572,2.2437,2.2457,2.2446,2.2473,2.2277,2.2069,2.175,2.1741,2.1731,2.1731,2.1731,2.1713,2.1624,3.2073,3.2073,3.209,3.2073,3.2073,3.2073,3.2126,3.2179,3.2179,3.2179,3.2144,3.2089,3.2342,3.3114,3.3978,3.472,3.5335,3.599,3.6333,3.6461,3.6502,3.6561,3.6579,3.67,3.6918,3.7542,3.82,3.8936,3.9664,4.0191,4.046,4.0485,4.0238,3.9969,3.978,3.9668,4.0067,4.0951,4.1656,4.2096,4.2187,4.2126,4.1996,4.1833,4.1488,4.1205,4.1102,4.0882,4.0593,4.0331,4.0137,3.9925,3.9696,3.9177,3.8855,3.8649,3.8217,3.7853,3.7548,3.7084,3.6707,3.6298,3.5843,3.5238,3.4286,3.3487,3.2579,3.1539,3.0791,3.0356,3.0113,2.9844,2.9534,2.9287,2.904,2.8816,2.8578,2.8191,2.7962,2.78,2.7545,2.7138,2.6809,2.6715,2.6385,2.5979,2.5717,2.5443,2.5189,2.4786,2.4488,2.4149,2.3768,2.3372,2.3018,2.2809,2.2646,2.2512,2.2428,2.232,2.2119,2.2074,2.2259,2.2262,2.2322,2.2457,2.2524,2.2098,2.1757,2.1756,2.1722,2.1695,2.1566,2.1456,2.145,3.2284,3.2284,3.2284,3.2232,3.2144,3.2144,3.2232,3.2319,3.2319,3.2267,3.2179,3.2143,3.2418,3.3087,3.3792,3.4552,3.5272,3.6056,3.6374,3.6502,3.6602,3.6661,3.6737,3.673,3.6846,3.7175,3.7766,3.8469,3.9116,3.9871,4.0332,4.0412,4.0337,4.0087,3.99,3.9871,4.0358,4.0895,4.1458,4.1979,4.2233,4.219,4.1996,4.1898,4.1538,4.1272,4.1102,4.0882,4.0677,4.047,4.0137,3.9996,3.9783,3.9322,3.8958,3.8797,3.8366,3.7991,3.761,3.724,3.685,3.6391,3.6031,3.5399,3.4286,3.3582,3.2686,3.1733,3.083,3.0381,3.0088,2.9934,2.9624,2.9365,2.9118,2.8973,2.8657,2.8271,2.8042,2.7881,2.7626,2.7208,2.6962,2.6633,2.6313,2.5979,2.5644,2.538,2.5115,2.4777,2.4449,2.3998,2.3606,2.3247,2.2794,2.2571,2.2247,2.2135,2.1952,2.1892,2.1762,2.1904,2.206,2.2035,2.2055,2.2107,2.2053,2.1874,2.1748,2.1692,2.1646,2.1612,2.1447,2.12,2.1158,3.2422,3.2406,3.2406,3.2371,3.2267,3.2267,3.2301,3.2406,3.2406,3.2319,3.2179,3.2214,3.2526,3.3182,3.3908,3.4614,3.5376,3.6087,3.6481,3.6626,3.6667,3.6725,3.6783,3.68,3.6835,3.6882,3.7411,3.8178,3.8893,3.9461,4.0083,4.0443,4.0453,4.0238,4.0036,4.0024,4.0317,4.0729,4.1263,4.1768,4.2104,4.2221,4.2109,4.1963,4.167,4.1406,4.1236,4.1018,4.0799,4.0524,4.0331,4.0081,3.9854,3.9538,3.9104,3.8797,3.8501,3.8127,3.7763,3.7303,3.6929,3.6484,3.6246,3.533,3.4364,3.3617,3.2762,3.1588,3.0829,3.042,3.0216,2.9998,2.9767,2.9431,2.9209,2.8973,2.8724,2.8407,2.8111,2.7881,2.7626,2.7278,2.694,2.661,2.6224,2.5924,2.5728,2.5454,2.5158,2.4777,2.4315,2.3888,2.3464,2.3033,2.2706,2.2291,2.1899,2.171,2.1551,2.156,2.1519,2.1634,2.167,2.1689,2.1637,2.1675,2.1709,2.1697,2.1618,2.1556,2.1401,2.1172,2.108,2.0842,2.0824,3.2473,3.2406,3.2406,3.2388,3.2388,3.2406,3.2406,3.2406,3.2406,3.2336,3.2214,3.2232,3.2546,3.3223,3.3917,3.4679,3.5374,3.6232,3.6708,3.6731,3.6771,3.6851,3.6891,3.6948,3.6886,3.6991,3.7416,3.8017,3.8851,3.9316,4.0038,4.0521,4.0583,4.0337,4.007,3.9694,3.9771,4.0163,4.0819,4.1368,4.18,4.2204,4.2222,4.2061,4.1882,4.162,4.1272,4.1102,4.095,4.0746,4.0401,4.0207,3.9925,3.9625,3.9265,3.887,3.8649,3.8292,3.7839,3.7162,3.6707,3.6484,3.6232,3.5421,3.4197,3.3403,3.2834,3.1517,3.0888,3.0609,3.0368,3.0139,2.9819,2.9521,2.93,2.9064,2.8803,2.8486,2.8271,2.7891,2.7649,2.7336,2.6835,2.6483,2.6063,2.5837,2.5695,2.5421,2.5051,2.4524,2.3981,2.3566,2.3051,2.2773,2.2306,2.1927,2.1558,2.1286,2.1221,2.1302,2.1155,2.1115,2.1154,2.1211,2.1269,2.1218,2.1455,2.1631,2.1345,2.1099,2.0857,2.0576,2.0521,2.0466,2.0393,3.2557,3.2523,3.2523,3.2523,3.2523,3.2422,3.2406,3.2406,3.2406,3.2354,3.2336,3.2354,3.2354,3.2877,3.3873,3.4638,3.5018,3.6277,3.6788,3.6811,3.6851,3.6948,3.6987,3.697,3.697,3.6965,3.7308,3.8,3.899,3.9328,4.0019,4.056,4.0631,4.0337,4.0037,3.978,3.9859,4.0267,4.0793,4.1373,4.18,4.2219,4.2365,4.2109,4.2012,4.1752,4.139,4.1221,4.1034,4.0814,4.0539,4.0207,3.9996,3.9711,3.9409,3.9017,3.8797,3.8366,3.7839,3.7226,3.6929,3.6665,3.6253,3.5442,3.4163,3.3587,3.2675,3.1615,3.1013,3.0685,3.0444,3.0216,2.9908,2.9689,2.9468,2.9143,2.8895,2.8578,2.8327,2.7888,2.7521,2.6714,2.6086,2.597,2.5625,2.5304,2.5082,2.502,2.473,2.4122,2.3541,2.3057,2.2656,2.2298,2.202,2.1758,2.1589,2.1476,2.1332,2.1316,2.1111,2.0896,2.082,2.0968,2.0859,2.084,2.1006,2.1123,2.0748,2.0448,2.037,2.0273,2.02,1.9989,1.9806,3.2639,3.2588,3.2588,3.2588,3.2573,3.2473,3.244,3.2406,3.2406,3.2406,3.2406,3.2406,3.2564,3.302,3.3876,3.4821,3.499,3.6182,3.6869,3.6851,3.6948,3.6987,3.697,3.697,3.697,3.7023,3.7311,3.7965,3.9058,3.9216,3.9887,4.0582,4.0648,4.0387,4.0087,3.9883,3.9776,4.0147,4.0628,4.1243,4.1678,4.2088,4.2555,4.2238,4.2061,4.1817,4.1538,4.1272,4.1086,4.0882,4.0608,4.0331,4.0066,3.9854,3.9553,3.9177,3.8797,3.8264,3.7566,3.7177,3.6745,3.6199,3.6156,3.5485,3.4263,3.3513,3.2591,3.1766,3.1114,3.0761,3.052,3.0305,3.0075,2.9856,2.9534,2.9287,2.9003,2.8688,2.8203,2.7858,2.7214,2.6299,2.5407,2.5273,2.5139,2.4824,2.4511,2.44,2.433,2.3737,2.3181,2.2772,2.2346,2.2118,2.1973,2.1793,2.1655,2.1589,2.1512,2.1369,2.1205,2.0954,2.0799,2.0654,2.0722,2.0674,2.0615,2.0537,2.0517,2.0339,2.0207,2.008,1.9866,1.9613,1.9467,3.2722,3.2621,3.2606,3.2621,3.2606,3.2574,3.2473,3.244,3.2406,3.244,3.2422,3.244,3.2669,3.3459,3.432,3.4969,3.5671,3.657,3.6921,3.7027,3.7066,3.7066,3.7027,3.7027,3.7027,3.7264,3.7638,3.8262,3.9153,3.9799,4.0372,4.0621,4.0631,4.0436,4.0238,3.9952,3.9761,4.0001,4.0508,4.1033,4.1351,4.2158,4.2486,4.2348,4.219,4.2012,4.1736,4.1472,4.1221,4.1018,4.0882,4.0486,4.0207,3.9996,3.9625,3.9133,3.8649,3.7929,3.7154,3.6816,3.6305,3.578,3.5474,3.4927,3.4265,3.3403,3.2603,3.1875,3.136,3.1061,3.0773,3.0533,3.0305,2.9998,2.9677,2.9394,2.9086,2.8651,2.8132,2.7603,2.703,2.6209,2.5272,2.4918,2.4623,2.4304,2.4018,2.3863,2.3748,2.3406,2.2917,2.2621,2.2283,2.1911,2.1807,2.1807,2.1807,2.1655,2.1578,2.1512,2.1262,2.1108,2.0886,2.0819,2.0644,2.0557,2.0566,2.0566,2.0498,2.0391,2.0203,1.9986,1.9771,1.9537,1.9366,3.2993,3.2961,3.2898,3.2866,3.2884,3.2773,3.2623,3.2557,3.2557,3.2557,3.2557,3.2557,3.2682,3.2981,3.427,3.4942,3.5666,3.6443,3.7044,3.722,3.7182,3.722,3.72,3.7175,3.7158,3.7361,3.7877,3.8601,3.9371,4.0219,4.0804,4.0948,4.0745,4.0583,4.0387,4.0121,3.9901,3.991,4.0479,4.0819,4.1167,4.1885,4.2236,4.2345,4.2222,4.2061,4.1882,4.1538,4.1288,4.1102,4.0882,4.0593,4.0277,4.0036,3.9606,3.8537,3.806,3.7652,3.6736,3.6288,3.5926,3.535,3.4913,3.4381,3.3864,3.3274,3.255,3.2018,3.1508,3.1211,3.0911,3.0685,3.0457,3.0152,2.9756,2.9349,2.9006,2.8439,2.79,2.7107,2.6541,2.5727,2.4809,2.4374,2.4063,2.3727,2.3566,2.3416,2.3286,2.3015,2.2754,2.2482,2.2255,2.1904,2.1807,2.1807,2.1807,2.1731,2.1655,2.1578,2.1425,2.1195,2.1061,2.0896,2.0644,2.0644,2.0566,2.0566,2.0566,2.0489,2.0371,2.0048,1.9715,1.9469,1.9292,3.3104,3.3086,3.3073,3.3042,3.3011,3.2948,3.2852,3.2787,3.2621,3.2588,3.2588,3.2588,3.2606,3.2889,3.4199,3.5049,3.5172,3.6516,3.7259,3.7259,3.7297,3.7297,3.7312,3.7309,3.7235,3.7496,3.7928,3.8661,3.955,4.0534,4.1244,4.1093,4.0858,4.0745,4.0534,4.0288,4.0087,4.0101,4.0324,4.0669,4.109,4.1583,4.2064,4.2194,4.2124,4.2142,4.1916,4.1638,4.1421,4.1236,4.1003,4.0746,4.0309,3.9823,3.9058,3.8027,3.7668,3.7031,3.621,3.5867,3.5453,3.4868,3.4327,3.3858,3.3415,3.2942,3.2413,3.1944,3.1609,3.136,3.1136,3.0836,3.0533,3.0228,2.9745,2.9277,2.871,2.8123,2.733,2.6509,2.5796,2.5016,2.4349,2.3943,2.3689,2.362,2.342,2.3293,2.3101,2.2854,2.2616,2.2444,2.2185,2.1949,2.1883,2.1807,2.1807,2.1807,2.1731,2.1655,2.1502,2.1282,2.1051,2.0896,2.0654,2.0654,2.0576,2.0576,2.0566,2.0566,2.0411,2.0186,1.9872,1.9636,1.946,3.3147,3.3165,3.3099,3.3117,3.3104,3.3086,3.3055,3.2979,3.277,3.2621,3.2621,3.2621,3.2639,3.2973,3.4304,3.5013,3.551,3.6609,3.7372,3.7334,3.7372,3.7372,3.7372,3.7334,3.7352,3.7544,3.8072,3.8836,3.974,4.0674,4.129,4.1093,4.0982,4.084,4.0648,4.0436,4.0255,4.0189,4.0301,4.0467,4.0674,4.1222,4.1858,4.1841,4.1973,4.2173,4.2013,4.1868,4.1752,4.1421,4.106,4.0758,3.9963,3.9329,3.8348,3.7584,3.7168,3.6478,3.582,3.5423,3.4886,3.435,3.3758,3.355,3.3254,3.2897,3.2441,3.2136,3.1803,3.1582,3.1299,3.1035,3.0709,3.0213,2.9706,2.9074,2.8337,2.7619,2.6724,2.6057,2.5479,2.4811,2.4487,2.4116,2.3824,2.3677,2.3383,2.3224,2.3075,2.2852,2.2628,2.2402,2.2176,2.1949,2.1883,2.1807,2.1807,2.1807,2.1807,2.1731,2.1655,2.1349,2.1051,2.0896,2.0731,2.0654,2.0576,2.0576,2.0566,2.0566,2.0411,2.0255,2.0029,1.9794,1.9548,3.3473,3.3491,3.3345,3.3256,3.3117,3.3104,3.3086,3.3073,3.3024,3.293,3.2852,3.2834,3.2888,3.3158,3.4476,3.5188,3.5616,3.6738,3.7379,3.7521,3.7521,3.7521,3.7521,3.7484,3.7466,3.7658,3.8203,3.9168,4.0063,4.0894,4.1318,4.118,4.1059,4.0935,4.0745,4.0551,4.0372,4.0273,4.0171,4.0333,4.0525,4.0464,4.0664,4.1096,4.1492,4.1652,4.1564,4.1677,4.1658,4.1507,4.0689,3.9823,3.8769,3.8482,3.7871,3.7037,3.6656,3.6045,3.548,3.5019,3.467,3.4257,3.3868,3.3591,3.3241,3.286,3.2561,3.23,3.2023,3.1743,3.1495,3.122,3.0803,3.018,2.9497,2.8727,2.7965,2.7071,2.6115,2.566,2.5207,2.4873,2.4562,2.4273,2.4043,2.3824,2.3457,2.3224,2.3224,2.3001,2.2703,2.2478,2.2252,2.2025,2.1883,2.1807,2.1807,2.1807,2.1807,2.1731,2.1721,2.1425,2.1128,2.0896,2.0741,2.0654,2.0576,2.0576,2.0566,2.0566,2.0566,2.0333,2.0177,1.9942,1.9627,3.3605,3.3605,3.352,3.3433,3.3345,3.3327,3.3268,3.3226,3.3226,3.3135,3.3011,3.3028,3.3172,3.3584,3.4804,3.5627,3.5985,3.7148,3.7632,3.7757,3.7721,3.7703,3.7667,3.7649,3.7612,3.7733,3.8688,3.9615,4.0246,4.1147,4.1515,4.1318,4.1215,4.1076,4.084,4.0697,4.0502,4.0406,4.0104,4.0154,4.0385,4.028,4.0226,4.0697,4.0906,4.0982,4.101,4.1084,4.0896,4.0705,4.002,3.9131,3.8277,3.7866,3.7288,3.6602,3.615,3.5768,3.5251,3.4883,3.4616,3.4346,3.4059,3.3799,3.3466,3.3086,3.2775,3.2516,3.2241,3.1963,3.1523,3.1222,3.0664,3.0069,2.9125,2.8145,2.7372,2.6491,2.5987,2.5657,2.5289,2.5004,2.4706,2.449,2.42,2.3897,2.3604,2.3372,2.3298,2.3224,2.2927,2.2617,2.2402,2.2176,2.2035,2.1883,2.1807,2.1807,2.1807,2.1731,2.1655,2.1349,2.1128,2.0974,2.0819,2.0654,2.0576,2.0576,2.0576,2.0566,2.0566,2.0489,2.0333,2.0098,1.9784,3.3661,3.3633,3.3633,3.3587,3.3605,3.3605,3.352,3.3452,3.3422,3.3334,3.3262,3.3322,3.3759,3.4375,3.5292,3.6029,3.6732,3.7416,3.7792,3.7882,3.7882,3.7828,3.7757,3.7739,3.7685,3.8148,3.9014,3.9394,3.9746,4.0916,4.1648,4.1426,4.1335,4.1198,4.1029,4.084,4.0648,4.0468,4.0286,4.0087,4.0103,4.0074,4.0034,4.0137,4.0336,4.0495,4.0324,4.0257,4.003,3.969,3.9314,3.8481,3.7776,3.7338,3.6838,3.628,3.5982,3.5679,3.5279,3.5067,3.4802,3.4481,3.4264,3.3991,3.366,3.3382,3.3016,3.2646,3.2372,3.2028,3.1662,3.1103,3.0533,2.9758,2.8711,2.7734,2.6892,2.6188,2.591,2.5688,2.5407,2.5135,2.4849,2.4634,2.4418,2.4055,2.3824,2.3593,2.3446,2.3298,2.3075,2.2852,2.2553,2.2402,2.2111,2.2035,2.1883,2.1807,2.1807,2.1655,2.1589,2.1436,2.1205,2.0974,2.0819,2.0731,2.0654,2.0576,2.0576,2.0576,2.0576,2.0566,2.0411,2.0255,1.9942,3.3842,3.3753,3.3753,3.3698,3.3605,3.3605,3.3577,3.3577,3.3549,3.3549,3.3691,3.4182,3.4492,3.4429,3.5885,3.6676,3.698,3.7646,3.7827,3.7917,3.7952,3.7899,3.7864,3.7828,3.7757,3.8257,3.902,3.9611,3.9921,4.1054,4.1736,4.156,4.1426,4.129,4.1093,4.0935,4.0806,4.0628,4.0402,4.0221,3.9969,3.988,3.9565,3.9643,3.9818,3.9871,3.9901,4.0135,4.0055,3.9731,3.8965,3.8013,3.7344,3.6909,3.6568,3.6333,3.6022,3.5782,3.5459,3.5279,3.4949,3.4683,3.4414,3.421,3.3882,3.3675,3.3297,3.2917,3.2618,3.2132,3.1726,3.1021,3.0387,2.935,2.8274,2.7516,2.6721,2.6396,2.6062,2.5828,2.5618,2.5336,2.504,2.4838,2.4646,2.4345,2.4055,2.3824,2.3593,2.3372,2.3224,2.3001,2.2777,2.2478,2.2176,2.2101,2.1959,2.1883,2.1807,2.1731,2.1655,2.1578,2.1349,2.1128,2.0896,2.0819,2.0731,2.0576,2.0576,2.0576,2.0576,2.0566,2.0489,2.0323,2.0089]},{"header":{"parameterUnit":"m.s-1","parameterCategory":1,"la1":31.0,"la2":29.5877,"lo1":-88.7671,"lo2":-86.6584,"dy":0.0162,"dx":0.0185,"nx":115,"ny":88,"refTime":"2023-05-20T06:00:00:Z","depth":0,"parameterNumber":3,"parameterNumberName":"V-component_of_WINDS"},"data":[0.0,0.0,0.0,0.0,0.0,0.0,0.0,0.0,0.0,0.0,0.0,0.0,0.0,0.0,0.0,0.0,0.0,0.0,0.0,0.0,0.0,0.0,0.0,0.0,0.0,0.0,0.0,0.0,0.0,0.0,0.0,0.0,0.0,0.0,0.0,0.0,0.0,0.0,0.0,0.0,0.0,0.0,0.0,0.0,0.0,0.0,0.0,0.0,0.0,0.0,0.0,0.0,0.0,0.0,0.0,0.0,0.0,0.0,0.0,0.0,0.0,0.0,0.0,0.0,0.0,0.0,0.0,0.0,0.0,0.0,0.0,0.0,0.0,0.0,0.0,0.0,0.0,0.0,0.0,0.0,0.0,0.0,0.0,0.0,0.0,0.0,0.0,0.0,0.0,0.0,0.0,0.0,0.0,0.0,0.0,0.0,0.0,0.0,0.0,0.0,0.0,0.0,0.0,0.0,0.0,0.0,0.0,0.0,0.0,0.0,0.0,0.0,0.0,0.0,0.0,0.0,0.0,0.0,0.0,0.0,0.0,0.0,0.0,0.0,0.0,0.0,0.0,0.0,0.0,0.0,0.0,0.0,0.0,0.0,0.0,0.0,0.0,0.0,0.0,0.0,0.0,0.0,0.0,0.0,0.0,0.0,0.0,0.0,0.0,0.0,0.0,0.0,0.0,0.0,0.0,0.0,0.0,0.0,0.0,0.0,0.0,0.0,0.0,0.0,0.0,0.0,0.0,0.0,0.0,0.0,0.0,0.0,0.0,0.0,0.0,0.0,0.0,0.0,0.0,0.0,0.0,0.0,0.0,0.0,0.0,0.0,0.0,0.0,0.0,0.0,0.0,0.0,0.0,0.0,0.0,0.0,0.0,0.0,0.0,0.0,0.0,0.0,0.0,0.0,0.0,0.0,0.0,0.0,0.0,0.0,0.0,0.0,0.0,0.0,0.0,0.0,0.0,0.0,0.0,0.0,0.0,0.0,0.0,0.0,0.0,0.0,0.0,0.0,0.0,0.0,0.0,0.0,0.0,0.0,0.0,0.0,0.0,0.0,0.0,0.0,0.0,0.0,0.0,0.0,0.0,0.0,0.0,0.0,0.0,0.0,0.0,0.0,0.0,0.0,0.0,0.0,0.0,0.0,0.0,0.0,0.0,0.0,0.0,0.0,0.0,0.0,0.0,0.0,0.0,0.0,0.0,0.0,0.0,0.0,0.0,0.0,0.0,0.0,0.0,0.0,0.0,0.0,0.0,0.0,0.0,0.0,0.0,0.0,0.0,0.0,0.0,0.0,0.0,0.0,0.0,0.0,0.0,0.0,0.0,0.0,0.0,0.0,0.0,0.0,0.0,0.0,0.0,0.0,0.0,0.0,0.0,0.0,0.0,0.0,0.0,0.0,0.0,0.0,0.0,0.0,0.0,0.0,0.0,0.0,0.0,0.0,0.0,0.0,0.0,0.0,0.0,0.0,0.0,0.0,0.0,0.0,0.0,0.0,0.0,0.0,0.0,0.0,0.0,0.0,0.0,0.0,0.0,0.0,0.0,0.0,0.0,0.0,0.0,0.0,0.0,0.0,0.0,0.0,0.0,0.0,0.0,0.0,0.0,0.0,0.0,0.0,0.0,0.0,0.0,0.0,0.0,0.0,0.0,0.0,0.0,0.0,0.0,0.0,0.0,0.0,0.0,0.0,0.0,0.0,0.0,0.0,0.0,0.0,0.0,0.0,0.0,0.0,0.0,0.0,0.0,0.0,0.0,0.0,0.0,0.0,0.0,0.0,0.0,0.0,0.0,0.0,0.0,0.0,0.0,0.0,0.0,0.0,0.0,0.0,0.0,0.0,0.0,0.0,0.0,0.0,0.0,0.0,0.0,0.0,0.0,0.0,0.0,0.0,0.0,0.0,0.0,0.0,0.0,0.0,0.0,0.0,0.0,0.0,0.0,0.0,0.0,0.0,0.0,0.0,0.0,0.0,0.0,0.0,0.0,0.0,0.0,0.0,0.0,0.0,0.0,0.0,0.0,0.0,0.0,0.0,0.0,0.0,0.0,0.0,0.0,0.0,0.0,0.0,0.0,0.0,0.0,0.0,0.0,0.0,0.0,0.0,0.0,0.0,0.0,0.0,0.0,0.0,0.0,0.0,0.0,0.0,0.0,0.0,0.0,0.0,0.0,0.0,0.0,0.0,0.0,0.0,0.0,0.0,0.0,0.0,0.0,0.0,0.0,0.0,0.0,0.0,0.0,0.0,0.0,0.0,0.0,0.0,0.0,0.0,0.0,0.0,0.0,0.0,0.0,0.0,0.0,0.0,0.0,0.0,0.0,0.0,0.0,0.0,0.0,0.0,0.0,0.0,0.0,0.0,0.0,0.0,0.0,0.0,0.0,0.0,0.0,0.0,0.0,0.0,0.0,0.0,0.0,0.0,0.0,0.0,0.0,0.0,0.0,0.0,0.0,0.0,0.0,0.0,0.0,0.0,0.0,0.0,0.0,0.0,0.0,0.0,0.0,0.0,0.0,0.0,0.0,0.0,0.0,0.0,0.0,0.0,0.0,0.0,0.0,0.0,0.0,0.0,0.0,0.0,0.0,0.0,0.0,0.0,0.0,0.0,0.0,0.0,0.0,0.0,0.0,0.0,0.0,0.0,0.0,0.0,0.0,0.0,0.0,0.0,0.0,0.0,0.0,0.0,0.0,0.0,0.0,0.0,0.0,0.0,0.0,0.0,0.0,0.0,0.0,0.0,0.0,0.0,0.0,0.0,0.0,0.0,0.0,0.0,0.0,0.0,0.0,0.0,0.0,0.0,0.0,0.0,0.0,0.0,0.0,0.0,0.0,0.0,0.0,0.0,0.0,0.0,0.0,0.0,0.0,0.0,0.0,0.0,0.0,0.0,0.0,0.0,0.0,0.0,0.0,0.0,0.0,0.0,0.0,0.0,0.0,0.0,0.0,0.0,0.0,0.0,0.0,0.0,0.0,0.0,0.0,0.0,0.0,0.0,0.0,0.0,0.0,0.0,0.0,0.0,0.0,0.0,0.0,0.0,0.0,0.0,0.0,0.0,0.0,0.0,0.0,0.0,0.0,0.0,0.0,0.0,0.0,0.0,0.0,0.0,0.0,0.0,0.0,0.0,0.0,0.0,0.0,0.0,0.0,0.0,0.0,0.0,0.0,0.0,0.0,0.0,0.0,0.0,0.0,0.0,0.0,0.0,0.0,0.0,0.0,0.0,0.0,0.0,0.0,0.0,0.0,0.0,0.0,0.0,0.0,0.0,0.0,0.0,0.0,0.0,0.0,0.0,0.0,0.0,0.0,0.0,0.0,0.0,0.0,0.0,0.0,0.0,0.0,0.0,0.0,0.0,0.0,0.0,0.0,0.0,0.0,0.0,0.0,0.0,0.0,0.0,0.0,0.0,0.0,0.0,0.0,0.0,0.0,0.0,0.0,0.0,0.0,0.0,0.0,0.0,0.0,0.0,0.0,0.0,0.0,0.0,0.0,0.0,0.0,0.0,0.0,0.0,0.0,0.0,0.0,0.0,0.0,0.0,0.0,0.0,0.0,0.0,0.0,0.0,0.0,0.0,0.0,0.0,0.0,0.0,0.0,0.0,0.0,0.0,0.0,0.0,0.0,0.0,0.0,0.0,0.0,0.0,0.0,0.0,0.0,0.0,0.0,0.0,0.0,0.0,0.0,0.0,0.0,0.0,0.0,0.0,0.0,0.0,0.0,0.0,0.0,0.0,0.0,0.0,0.0,0.0,0.0,0.0,0.0,0.0,0.0,0.0,0.0,0.0,0.0,0.0,0.0,0.0,0.0,0.0,0.0,0.0,0.0,0.0,0.0,0.0,0.0,0.0,0.0,0.0,0.0,0.0,0.0,0.0,0.0,0.0,0.0,0.0,0.0,0.0,0.0,0.0,0.0,0.0,0.0,0.0,0.0,0.0,0.0,0.0,0.0,0.0,0.0,0.0,0.0,0.0,0.0,0.0,0.0,0.0,0.0,0.0,0.0,0.0,0.0,0.0,0.0,0.0,0.0,0.0,0.0,0.0,0.0,0.0,0.0,0.0,0.0,0.0,0.0,0.0,0.0,0.0,0.0,0.0,0.0,0.0,0.0,0.0,0.0,0.0,0.0,0.0,0.0,0.0,0.0,0.0,0.0,0.0,0.0,0.0,0.0,0.0,0.0,0.0,0.0,0.0,0.0,0.0,0.0,0.0,0.0,0.0,0.0,0.0,0.0,0.0,0.0,0.0,0.0,0.0,0.0,0.0,-0.299,0.0,0.0,0.0,0.0,0.0,0.0,0.0,0.0,0.0,0.0,0.0,0.0,0.0,0.0,0.0,0.0,0.0,0.0,0.0,0.0,0.0,0.0,0.0,0.0,0.0,0.0,0.0,0.0,0.0,0.0,0.0,0.0,0.0,0.0,0.0,0.0,0.0,0.0,0.0,0.0,0.0,0.0,0.0,0.0,0.0,0.0,0.0,0.0,0.0,0.0,0.0,0.0,0.0,0.0,0.0,0.0,0.0,0.0,0.0,0.0,0.0,0.0,0.0,0.0,0.0,0.0,0.0,0.0,0.0,0.0,0.0,0.0,0.0,0.0,0.0,0.0,0.0,0.0,0.0,0.0,0.0,0.0,0.0,0.0,0.0,0.0,0.0,0.0,0.0,0.0,0.0,0.0,0.0,0.0,0.0,0.0,0.0,0.0,0.0,0.0,0.0,0.0,0.0,0.0,0.0,0.0,0.0,0.0,0.0,0.0,-0.2909,-0.2909,-0.2951,-0.2948,-0.2987,0.0,0.0,0.0,0.0,0.0,0.0,0.0,0.0,0.0,0.0,0.0,0.0,0.0,0.0,0.0,0.0,0.0,0.0,0.0,0.0,0.0,0.0,0.0,0.0,0.0,0.0,0.0,0.0,0.0,0.0,0.0,0.0,0.0,0.0,0.0,0.0,0.0,0.0,0.0,0.0,0.0,0.0,0.0,0.0,0.0,0.0,0.0,0.0,0.0,0.0,0.0,0.0,0.0,0.0,0.0,0.0,0.0,0.0,0.0,0.0,0.0,0.0,0.0,0.0,0.0,0.0,0.0,0.0,0.0,0.0,0.0,0.0,0.0,0.0,0.0,0.0,0.0,0.0,0.0,0.0,0.0,0.0,0.0,0.0,0.0,0.0,0.0,0.0,0.0,0.0,0.0,0.0,0.0,0.0,0.0,0.0,0.0,0.0,0.0,0.0,0.0,0.0,0.0,0.0,0.0,0.0,0.0,0.0,0.0,0.0,0.0,0.0,-0.3052,-0.3066,-0.3081,0.0,0.0,0.0,0.0,0.0,0.0,0.0,0.0,0.0,0.0,0.0,0.0,0.0,0.0,0.0,0.0,0.0,0.0,0.0,0.0,0.0,0.0,0.0,0.0,0.0,0.0,0.0,0.0,0.0,0.0,0.0,0.0,0.0,0.0,0.0,0.0,0.0,0.0,0.0,0.0,0.0,0.0,0.0,0.0,0.0,0.0,0.0,0.0,0.0,0.0,0.0,0.0,0.0,0.0,0.0,0.0,0.0,0.0,0.0,0.0,0.0,0.0,0.0,0.0,0.0,0.0,0.0,0.0,0.0,0.0,0.0,0.0,0.0,0.0,0.0,0.0,0.0,0.0,0.0,0.0,0.0,0.0,0.0,0.0,0.0,0.0,0.0,0.0,0.0,0.0,0.0,0.0,0.0,0.0,0.0,0.0,0.0,0.0,0.0,0.0,0.0,0.0,0.0,0.0,0.0,0.0,0.0,0.0,0.0,0.0,-0.3366,-0.3383,-0.3372,0.0,-0.3363,0.0,0.0,0.0,0.0,0.0,0.0,0.0,0.0,0.0,0.0,0.0,0.0,0.0,0.0,0.0,0.0,0.0,0.0,0.0,0.0,0.0,0.0,0.0,0.0,0.0,0.0,0.0,0.0,0.0,0.0,0.0,0.0,0.0,0.0,0.0,0.0,0.0,0.0,0.0,0.0,0.0,0.0,0.0,0.0,0.0,0.0,0.0,0.0,0.0,0.0,0.0,0.0,0.0,0.0,0.0,0.0,0.0,0.0,0.0,0.0,0.0,0.0,0.0,0.0,0.0,0.0,0.0,0.0,0.0,0.0,0.0,0.0,0.0,0.0,0.0,0.0,0.0,0.0,0.0,0.0,0.0,0.0,0.0,0.0,0.0,0.0,0.0,0.0,0.0,0.0,0.0,0.0,0.0,0.0,0.0,0.0,0.0,0.0,0.0,0.0,0.0,0.0,0.0,0.0,0.0,0.0,0.0,0.0,0.0,0.0,-0.3722,-0.3574,-0.3618,-0.3665,0.0,0.0,0.0,0.0,0.0,0.0,0.0,0.0,0.0,0.0,0.0,0.0,0.0,0.0,0.0,0.0,0.0,0.0,0.0,0.0,0.0,0.0,0.0,0.0,0.0,0.0,0.0,0.0,0.0,0.0,0.0,0.0,0.0,0.0,0.0,0.0,0.0,0.0,0.0,0.0,0.0,0.0,0.0,0.0,0.0,0.0,0.0,0.0,0.0,0.0,0.0,0.0,0.0,0.0,0.0,0.0,0.0,0.0,0.0,0.0,0.0,0.0,0.0,0.0,0.0,0.0,0.0,0.0,0.0,0.0,0.0,0.0,0.0,0.0,0.0,0.0,0.0,0.0,0.0,0.0,0.0,0.0,0.0,0.0,0.0,0.0,0.0,0.0,0.0,0.0,0.0,0.0,0.0,0.0,0.0,0.0,0.0,0.0,0.0,0.0,0.0,0.0,0.0,0.0,0.0,0.0,0.0,0.0,0.0,0.0,-0.3938,-0.4046,-0.3834,-0.3929,-0.4005,-0.4058,0.0,0.0,0.0,0.0,0.0,0.0,0.0,0.0,0.0,0.0,0.0,0.0,0.0,0.0,0.0,0.0,0.0,0.0,0.0,0.0,0.0,0.0,0.0,0.0,0.0,0.0,0.0,0.0,0.0,0.0,0.0,0.0,0.0,0.0,0.0,0.0,0.0,0.0,0.0,0.0,0.0,0.0,0.0,0.0,0.0,0.0,0.0,0.0,0.0,0.0,0.0,0.0,0.0,0.0,0.0,0.0,0.0,0.0,0.0,0.0,0.0,0.0,0.0,0.0,0.0,0.0,0.0,0.0,0.0,0.0,0.0,0.0,0.0,0.0,0.0,0.0,0.0,0.0,0.0,0.0,0.0,0.0,0.0,0.0,0.0,0.0,0.0,0.0,0.0,0.0,0.0,0.0,0.0,0.0,0.0,0.0,0.0,0.0,0.0,0.0,0.0,0.0,0.0,0.0,0.0,0.0,0.0,0.0,-0.3804,-0.4239,-0.4348,-0.4187,-0.4341,-0.4367,0.0,0.0,0.0,0.0,0.0,0.0,0.0,0.0,0.0,0.0,0.0,0.0,0.0,0.0,0.0,0.0,0.0,0.0,0.0,0.0,0.0,0.0,0.0,0.0,0.0,0.0,0.0,0.0,0.0,0.0,0.0,0.0,0.0,0.0,0.0,0.0,0.0,0.0,0.0,0.0,0.0,0.0,0.0,0.0,0.0,0.0,0.0,0.0,0.0,0.0,0.0,0.0,0.0,0.0,0.0,0.0,0.0,0.0,0.0,0.0,0.0,0.0,0.0,0.0,0.0,0.0,0.0,0.0,0.0,0.0,0.0,0.0,0.0,0.0,0.0,0.0,0.0,0.0,0.0,0.0,0.0,0.0,0.0,0.0,0.0,0.0,0.0,0.0,0.0,0.0,0.0,0.0,0.0,0.0,0.0,0.0,0.0,0.0,0.0,0.0,0.0,0.0,0.0,0.0,0.0,0.0,0.0,0.0,0.0,-0.4056,-0.4334,-0.4501,-0.4551,-0.4602,-0.4634,0.0,0.0,0.0,0.0,0.0,0.0,0.0,0.0,0.0,0.0,0.0,0.0,0.0,0.0,0.0,0.0,0.0,0.0,0.0,0.0,0.0,0.0,0.0,0.0,0.0,0.0,0.0,0.0,0.0,0.0,0.0,0.0,0.0,0.0,0.0,0.0,0.0,0.0,0.0,0.0,0.0,0.0,0.0,0.0,0.0,0.0,0.0,0.0,0.0,0.0,0.0,0.0,0.0,0.0,0.0,0.0,0.0,0.0,0.0,0.0,0.0,0.0,0.0,0.0,0.0,0.0,0.0,0.0,0.0,0.0,0.0,0.0,0.0,0.0,0.0,0.0,0.0,0.0,0.0,0.0,0.0,0.0,0.0,0.0,0.0,0.0,0.0,0.0,0.0,0.0,0.0,0.0,0.0,0.0,0.0,0.0,0.0,0.0,0.0,0.0,0.0,0.0,0.0,0.0,0.0,0.0,0.0,0.0,0.0,-0.4304,0.0,-0.4629,-0.4691,-0.4743,-0.4852,0.0,0.0,0.0,0.0,0.0,0.0,0.0,0.0,0.0,0.0,0.0,0.0,0.0,0.0,0.0,0.0,0.0,0.0,0.0,0.0,0.0,0.0,0.0,0.0,0.0,0.0,0.0,0.0,0.0,0.0,0.0,0.0,0.0,0.0,0.0,0.0,0.0,0.0,0.0,0.0,0.0,0.0,0.0,0.0,0.0,0.0,0.0,0.0,0.0,0.0,0.0,0.0,0.0,0.0,0.0,0.0,0.0,0.0,0.0,0.0,0.0,0.0,0.0,0.0,0.0,0.0,0.0,0.0,0.0,0.0,0.0,0.0,0.0,0.0,0.0,0.0,0.0,0.0,0.0,0.0,0.0,0.0,0.0,0.0,0.0,0.0,0.0,0.0,0.0,0.0,0.0,0.0,0.0,0.0,0.0,0.0,0.0,0.0,0.0,0.0,0.0,0.0,0.0,0.0,0.0,0.0,0.0,0.0,-0.4532,-0.4529,-0.4616,-0.4737,-0.4698,-0.4802,-0.4959,0.0,0.0,0.0,0.0,0.0,0.0,0.0,0.0,0.0,0.0,0.0,0.0,0.0,0.0,0.0,0.0,0.0,0.0,0.0,0.0,0.0,0.0,0.0,0.0,0.0,0.0,0.0,0.0,0.0,0.0,0.0,0.0,0.0,0.0,0.0,0.0,0.0,0.0,0.0,0.0,0.0,0.0,0.0,0.0,0.0,0.0,0.0,0.0,0.0,0.0,0.0,0.0,0.0,0.0,0.0,0.0,0.0,0.0,0.0,0.0,0.0,0.0,0.0,0.0,0.0,0.0,0.0,0.0,0.0,0.0,0.0,0.0,0.0,0.0,0.0,0.0,0.0,0.0,0.0,0.0,0.0,0.0,0.0,0.0,0.0,0.0,0.0,0.0,0.0,0.0,0.0,0.0,0.0,0.0,0.0,0.0,0.0,0.0,0.0,0.0,0.0,0.0,0.0,0.0,0.0,0.0,0.0,0.0,0.0,-0.5088,-0.4949,-0.4893,-0.4969,-0.5015,-0.5189,0.0,0.0,0.0,0.0,0.0,0.0,0.0,0.0,0.0,0.0,0.0,0.0,0.0,0.0,0.0,0.0,0.0,0.0,0.0,0.0,0.0,0.0,0.0,0.0,0.0,0.0,0.0,0.0,0.0,0.0,0.0,0.0,0.0,0.0,0.0,0.0,0.0,0.0,0.0,0.0,0.0,0.0,0.0,0.0,0.0,0.0,0.0,0.0,0.0,0.0,0.0,0.0,0.0,0.0,0.0,0.0,0.0,0.0,0.0,0.0,0.0,0.0,0.0,0.0,0.0,0.0,0.0,0.0,0.0,0.0,0.0,0.0,0.0,0.0,0.0,0.0,0.0,0.0,0.0,0.0,0.0,0.0,0.0,0.0,0.0,0.0,0.0,0.0,0.0,0.0,0.0,0.0,0.0,0.0,0.0,0.0,0.0,0.0,0.0,0.0,0.0,0.0,0.0,0.0,0.0,0.0,0.0,0.0,0.0,-0.5409,-0.522,-0.5111,-0.5188,-0.5299,-0.5455,-0.5677,0.0,0.0,0.0,0.0,0.0,0.0,0.0,0.0,0.0,0.0,0.0,0.0,0.0,0.0,0.0,0.0,0.0,0.0,0.0,0.0,0.0,0.0,0.0,0.0,0.0,0.0,0.0,0.0,0.0,0.0,0.0,0.0,0.0,0.0,0.0,0.0,0.0,0.0,0.0,0.0,0.0,0.0,0.0,0.0,0.0,0.0,0.0,0.0,0.0,0.0,0.0,0.0,0.0,0.0,0.0,0.0,0.0,0.0,0.0,0.0,0.0,0.0,0.0,0.0,0.0,0.0,0.0,0.0,0.0,0.0,0.0,0.0,0.0,0.0,0.0,0.0,0.0,0.0,0.0,0.0,0.0,0.0,0.0,0.0,0.0,0.0,0.0,0.0,0.0,0.0,0.0,0.0,0.0,0.0,0.0,0.0,0.0,0.0,0.0,0.0,0.0,0.0,0.0,0.0,0.0,0.0,0.0,0.0,-0.5439,-0.5431,-0.5402,-0.5422,-0.5597,-0.5751,0.0,0.0,0.0,0.0,0.0,0.0,0.0,0.0,0.0,0.0,0.0,0.0,0.0,0.0,0.0,0.0,0.0,0.0,0.0,0.0,0.0,0.0,0.0,0.0,0.0,0.0,0.0,0.0,0.0,0.0,0.0,0.0,0.0,0.0,0.0,0.0,0.0,0.0,0.0,0.0,0.0,0.0,0.0,0.0,0.0,0.0,0.0,0.0,0.0,0.0,0.0,0.0,0.0,0.0,0.0,0.0,0.0,0.0,0.0,0.0,0.0,0.0,0.0,0.0,0.0,0.0,0.0,0.0,0.0,0.0,0.0,0.0,0.0,0.0,0.0,0.0,0.0,0.0,0.0,0.0,0.0,0.0,0.0,0.0,0.0,0.0,0.0,0.0,0.0,0.0,0.0,0.0,0.0,0.0,0.0,0.0,0.0,0.0,0.0,0.0,0.0,0.0,0.0,0.0,0.0,0.0,0.0,0.0,0.0,-0.5668,-0.5834,-0.5804,-0.559,-0.5767,-0.5998,0.0,0.0,0.0,0.0,0.0,0.0,0.0,0.0,0.0,0.0,0.0,0.0,0.0,0.0,0.0,0.0,0.0,0.0,0.0,0.0,0.0,0.0,0.0,0.0,0.0,0.0,0.0,0.0,0.0,0.0,0.0,0.0,0.0,0.0,0.0,0.0,0.0,0.0,0.0,0.0,0.0,0.0,0.0,0.0,0.0,0.0,0.0,0.0,0.0,0.0,0.0,0.0,0.0,0.0,0.0,0.0,0.0,0.0,0.0,0.0,0.0,0.0,0.0,0.0,0.0,0.0,0.0,0.0,0.0,0.0,0.0,0.0,0.0,0.0,0.0,0.0,0.0,0.0,0.0,0.0,0.0,0.0,0.0,0.0,0.0,0.0,0.0,0.0,0.0,0.0,0.0,0.0,0.0,0.0,0.0,0.0,0.0,0.0,0.0,0.0,0.0,0.0,0.0,0.0,0.0,0.0,0.0,0.0,-0.5891,-0.5969,-0.6176,-0.6149,-0.5955,-0.6144,-0.6303,0.0,0.0,0.0,0.0,0.0,0.0,0.0,0.0,0.0,0.0,0.0,0.0,0.0,0.0,0.0,0.0,0.0,0.0,0.0,0.0,0.0,0.0,0.0,0.0,0.0,0.0,0.0,0.0,0.0,0.0,0.0,0.0,0.0,0.0,0.0,0.0,0.0,0.0,0.0,0.0,0.0,0.0,0.0,0.0,0.0,0.0,0.0,0.0,0.0,0.0,0.0,0.0,0.0,0.0,0.0,0.0,0.0,0.0,0.0,0.0,0.0,0.0,0.0,0.0,0.0,0.0,0.0,0.0,0.0,0.0,0.0,0.0,0.0,0.0,0.0,0.0,0.0,0.0,0.0,0.0,0.0,0.0,0.0,0.0,0.0,0.0,0.0,0.0,0.0,0.0,0.0,0.0,0.0,0.0,0.0,0.0,0.0,0.0,0.0,0.0,0.0,0.0,0.0,0.0,0.0,0.0,0.0,0.0,-0.6028,-0.6338,-0.6406,-0.6474,-0.6463,-0.6627,-0.6689,0.0,0.0,0.0,0.0,0.0,0.0,0.0,0.0,0.0,0.0,0.0,0.0,0.0,0.0,0.0,0.0,0.0,0.0,0.0,0.0,0.0,0.0,0.0,0.0,0.0,0.0,0.0,0.0,0.0,0.0,0.0,0.0,0.0,0.0,0.0,0.0,0.0,0.0,0.0,0.0,0.0,0.0,0.0,0.0,0.0,0.0,0.0,0.0,0.0,0.0,0.0,0.0,0.0,0.0,0.0,0.0,0.0,0.0,0.0,0.0,0.0,0.0,0.0,0.0,0.0,0.0,0.0,0.0,0.0,0.0,0.0,0.0,0.0,0.0,0.0,0.0,0.0,0.0,0.0,0.0,0.0,0.0,0.0,0.0,0.0,0.0,0.0,0.0,0.0,0.0,0.0,0.0,0.0,0.0,0.0,0.0,0.0,0.0,0.0,0.0,0.0,0.0,0.0,0.0,0.0,0.0,0.0,0.0,-0.6554,-0.6799,-0.6795,-0.6787,-0.6787,-0.681,-0.6946,0.0,0.0,0.0,0.0,0.0,0.0,0.0,0.0,0.0,0.0,0.0,0.0,0.0,0.0,0.0,0.0,0.0,0.0,0.0,0.0,0.0,0.0,0.0,0.0,0.0,0.0,0.0,0.0,0.0,0.0,0.0,0.0,0.0,0.0,0.0,0.0,0.0,0.0,0.0,0.0,0.0,0.0,0.0,0.0,0.0,0.0,0.0,0.0,-1.0859,0.0,0.0,0.0,0.0,0.0,0.0,0.0,0.0,0.0,0.0,0.0,0.0,0.0,0.0,0.0,0.0,0.0,0.0,0.0,0.0,0.0,0.0,0.0,0.0,0.0,0.0,0.0,0.0,0.0,0.0,0.0,0.0,0.0,0.0,0.0,0.0,0.0,0.0,0.0,0.0,0.0,0.0,0.0,0.0,0.0,0.0,0.0,0.0,0.0,0.0,0.0,0.0,0.0,0.0,0.0,0.0,0.0,0.0,0.0,-0.6877,-0.7199,-0.7124,-0.7044,-0.7032,-0.7219,-0.7272,0.0,0.0,0.0,0.0,0.0,0.0,0.0,0.0,0.0,0.0,0.0,0.0,0.0,0.0,0.0,0.0,0.0,0.0,0.0,0.0,0.0,0.0,0.0,0.0,0.0,0.0,0.0,0.0,0.0,0.0,0.0,0.0,0.0,0.0,0.0,0.0,0.0,0.0,0.0,0.0,0.0,0.0,0.0,0.0,0.0,0.0,0.0,0.0,0.0,0.0,0.0,0.0,0.0,0.0,0.0,0.0,0.0,0.0,0.0,0.0,0.0,0.0,0.0,0.0,0.0,0.0,0.0,0.0,0.0,0.0,0.0,0.0,0.0,0.0,0.0,0.0,0.0,0.0,0.0,0.0,0.0,0.0,0.0,0.0,0.0,0.0,0.0,0.0,0.0,0.0,0.0,0.0,0.0,0.0,0.0,0.0,0.0,0.0,0.0,0.0,0.0,0.0,0.0,0.0,0.0,0.0,0.0,-0.6818,-0.7155,-0.7492,-0.7338,-0.7257,-0.7334,-0.7639,-0.768,-0.7398,0.0,0.0,0.0,0.0,0.0,0.0,0.0,0.0,0.0,0.0,0.0,0.0,0.0,0.0,0.0,0.0,0.0,0.0,0.0,0.0,0.0,0.0,0.0,0.0,0.0,0.0,0.0,0.0,0.0,0.0,0.0,0.0,0.0,0.0,0.0,0.0,0.0,0.0,-1.3195,-1.3304,0.0,0.0,0.0,0.0,0.0,0.0,0.0,0.0,-1.2304,0.0,0.0,0.0,0.0,0.0,0.0,0.0,0.0,0.0,0.0,0.0,0.0,0.0,0.0,0.0,0.0,0.0,0.0,0.0,0.0,0.0,0.0,0.0,0.0,0.0,0.0,0.0,0.0,0.0,0.0,0.0,0.0,0.0,0.0,0.0,0.0,0.0,0.0,0.0,0.0,0.0,0.0,0.0,0.0,0.0,0.0,0.0,0.0,0.0,0.0,0.0,0.0,0.0,0.0,0.0,0.0,-0.6924,-0.7265,-0.7451,-0.7484,-0.7484,-0.7488,-0.7727,-0.7923,-0.8094,-0.8229,0.0,0.0,0.0,0.0,0.0,0.0,0.0,0.0,0.0,0.0,0.0,0.0,0.0,0.0,0.0,0.0,0.0,0.0,0.0,0.0,0.0,0.0,0.0,0.0,0.0,0.0,0.0,0.0,0.0,0.0,0.0,0.0,0.0,0.0,0.0,0.0,0.0,0.0,0.0,-1.3868,-1.3868,0.0,0.0,0.0,0.0,0.0,0.0,0.0,0.0,-1.3108,0.0,0.0,0.0,0.0,0.0,0.0,0.0,0.0,0.0,0.0,0.0,0.0,0.0,0.0,0.0,0.0,0.0,0.0,0.0,0.0,0.0,0.0,0.0,0.0,0.0,0.0,0.0,0.0,0.0,0.0,0.0,0.0,0.0,0.0,0.0,0.0,0.0,0.0,0.0,0.0,0.0,0.0,0.0,0.0,0.0,0.0,0.0,0.0,0.0,0.0,0.0,0.0,0.0,0.0,0.0,-0.7588,-0.79,-0.815,-0.8095,-0.8115,-0.8115,-0.8095,-0.8334,-0.8426,0.0,0.0,0.0,0.0,0.0,0.0,0.0,0.0,0.0,0.0,0.0,0.0,0.0,0.0,0.0,0.0,0.0,0.0,0.0,0.0,0.0,0.0,0.0,0.0,0.0,0.0,0.0,0.0,0.0,0.0,0.0,0.0,0.0,0.0,0.0,0.0,0.0,0.0,0.0,0.0,-1.4099,-1.402,-1.4104,0.0,0.0,0.0,0.0,0.0,0.0,-1.4103,-1.4127,0.0,0.0,0.0,0.0,0.0,0.0,0.0,0.0,0.0,0.0,0.0,0.0,0.0,0.0,0.0,0.0,0.0,0.0,0.0,0.0,0.0,0.0,0.0,0.0,0.0,0.0,0.0,0.0,0.0,0.0,0.0,0.0,0.0,0.0,0.0,0.0,0.0,0.0,0.0,0.0,0.0,0.0,0.0,0.0,0.0,0.0,0.0,0.0,0.0,0.0,0.0,0.0,0.0,0.0,0.0,-0.8222,-0.856,-0.8862,-0.8969,-0.8828,-0.8688,-0.8529,-0.8652,-0.8718,0.0,0.0,0.0,0.0,0.0,0.0,0.0,0.0,0.0,0.0,0.0,0.0,0.0,0.0,0.0,0.0,0.0,0.0,0.0,0.0,0.0,0.0,0.0,0.0,0.0,0.0,0.0,0.0,0.0,0.0,0.0,0.0,0.0,0.0,0.0,0.0,0.0,0.0,0.0,0.0,0.0,-1.4208,-1.4326,-1.4316,0.0,0.0,0.0,0.0,-1.4834,-1.488,0.0,0.0,0.0,0.0,0.0,0.0,0.0,0.0,0.0,0.0,0.0,0.0,0.0,0.0,0.0,0.0,0.0,0.0,0.0,0.0,0.0,0.0,0.0,0.0,0.0,0.0,0.0,0.0,0.0,0.0,0.0,0.0,0.0,0.0,0.0,0.0,0.0,0.0,0.0,0.0,0.0,0.0,0.0,0.0,0.0,0.0,0.0,0.0,0.0,0.0,0.0,0.0,0.0,0.0,0.0,0.0,-0.8621,-0.8861,-0.9276,-0.98,-0.9085,-0.875,-0.8887,-0.896,-0.9159,0.0,0.0,0.0,0.0,0.0,0.0,0.0,0.0,0.0,0.0,0.0,0.0,0.0,0.0,0.0,0.0,0.0,0.0,0.0,0.0,0.0,0.0,0.0,0.0,0.0,0.0,0.0,0.0,0.0,0.0,0.0,0.0,0.0,0.0,0.0,0.0,0.0,0.0,0.0,0.0,0.0,-1.4741,-1.473,-1.48,-1.4812,0.0,0.0,-1.5096,-1.5379,-1.5424,0.0,0.0,0.0,0.0,0.0,0.0,0.0,0.0,0.0,0.0,0.0,0.0,0.0,0.0,0.0,0.0,0.0,0.0,0.0,0.0,0.0,0.0,0.0,0.0,0.0,0.0,0.0,0.0,0.0,0.0,0.0,0.0,0.0,0.0,0.0,0.0,0.0,0.0,0.0,0.0,0.0,0.0,0.0,0.0,0.0,0.0,0.0,0.0,0.0,0.0,0.0,0.0,0.0,0.0,0.0,-0.9439,-0.904,-0.9594,-1.0074,-1.0387,-1.0001,-0.9793,-0.9756,-0.9746,-0.9822,0.0,0.0,0.0,0.0,0.0,0.0,0.0,0.0,0.0,0.0,0.0,0.0,0.0,0.0,0.0,0.0,0.0,0.0,0.0,0.0,0.0,0.0,0.0,0.0,0.0,0.0,0.0,0.0,0.0,0.0,0.0,0.0,0.0,0.0,0.0,0.0,0.0,0.0,0.0,0.0,0.0,0.0,-1.5637,-1.5915,0.0,0.0,0.0,-1.6633,-1.6819,0.0,0.0,0.0,0.0,0.0,0.0,0.0,0.0,0.0,0.0,0.0,0.0,0.0,0.0,0.0,0.0,0.0,0.0,0.0,0.0,0.0,0.0,0.0,0.0,0.0,0.0,0.0,0.0,0.0,0.0,0.0,0.0,0.0,0.0,0.0,0.0,0.0,0.0,0.0,0.0,0.0,0.0,0.0,0.0,0.0,0.0,0.0,0.0,0.0,0.0,0.0,0.0,0.0,0.0,0.0,0.0,0.0,-0.9711,-1.0401,-1.0833,-1.0993,-1.0872,-1.0732,-1.0567,-1.0506,0.0,0.0,0.0,0.0,0.0,0.0,0.0,0.0,0.0,0.0,0.0,0.0,0.0,0.0,0.0,0.0,0.0,0.0,0.0,0.0,0.0,0.0,0.0,0.0,0.0,0.0,0.0,-1.0522,0.0,0.0,0.0,0.0,0.0,0.0,0.0,0.0,0.0,0.0,0.0,0.0,0.0,0.0,-1.623,-1.6622,-1.7003,-1.74,0.0,0.0,-1.7941,-1.8131,-1.8367,-1.8367,0.0,0.0,0.0,0.0,0.0,0.0,0.0,0.0,0.0,0.0,0.0,0.0,0.0,0.0,0.0,0.0,0.0,0.0,0.0,0.0,0.0,0.0,0.0,0.0,0.0,0.0,0.0,0.0,0.0,0.0,0.0,0.0,0.0,0.0,0.0,0.0,0.0,0.0,0.0,0.0,0.0,0.0,0.0,0.0,0.0,0.0,0.0,0.0,0.0,0.0,0.0,0.0,0.0,0.0,0.0,-1.0981,-1.113,-1.1421,-1.1867,-1.1475,-1.123,-1.1209,-1.1264,-1.1194,0.0,0.0,0.0,0.0,0.0,0.0,0.0,0.0,0.0,0.0,0.0,0.0,0.0,0.0,0.0,0.0,0.0,0.0,0.0,0.0,0.0,0.0,0.0,0.0,0.0,0.0,0.0,0.0,0.0,0.0,0.0,0.0,0.0,0.0,0.0,0.0,0.0,0.0,0.0,0.0,0.0,-1.7315,-1.7569,-1.7738,-1.7954,0.0,0.0,-1.8469,-1.8852,-1.8957,-1.9099,-1.9493,0.0,0.0,0.0,0.0,0.0,0.0,0.0,0.0,0.0,0.0,0.0,0.0,0.0,0.0,0.0,0.0,0.0,0.0,0.0,0.0,0.0,0.0,0.0,0.0,0.0,0.0,0.0,0.0,0.0,0.0,0.0,0.0,0.0,0.0,0.0,0.0,0.0,0.0,0.0,0.0,0.0,0.0,0.0,0.0,0.0,0.0,0.0,0.0,0.0,0.0,0.0,0.0,0.0,-1.1768,-1.1449,-1.2005,-1.2471,-1.2837,-1.2237,-1.202,-1.2192,-1.2008,-1.2015,0.0,0.0,0.0,0.0,0.0,0.0,0.0,0.0,0.0,0.0,0.0,0.0,0.0,0.0,0.0,0.0,0.0,0.0,0.0,0.0,0.0,0.0,0.0,0.0,0.0,0.0,0.0,0.0,-1.1318,-1.1678,-1.2363,0.0,0.0,0.0,0.0,0.0,0.0,0.0,0.0,0.0,0.0,-1.8498,-1.8742,-1.9215,0.0,0.0,-2.0053,-2.0279,-2.0448,-2.0764,-2.0905,-2.0726,-2.0834,0.0,0.0,0.0,0.0,0.0,0.0,0.0,0.0,0.0,0.0,0.0,0.0,0.0,0.0,0.0,0.0,0.0,0.0,0.0,0.0,0.0,0.0,0.0,0.0,0.0,0.0,0.0,0.0,0.0,0.0,0.0,0.0,0.0,0.0,0.0,0.0,0.0,0.0,0.0,0.0,0.0,0.0,0.0,0.0,0.0,0.0,0.0,0.0,0.0,0.0,0.0,0.0,-1.2729,-1.2489,-1.3056,-1.3419,-1.3808,-1.3274,-1.2997,-1.2991,-1.2997,-1.2923,0.0,0.0,0.0,0.0,0.0,0.0,0.0,0.0,0.0,0.0,0.0,0.0,0.0,0.0,0.0,0.0,0.0,0.0,0.0,0.0,0.0,0.0,0.0,0.0,0.0,0.0,0.0,0.0,-1.1678,-1.2116,-1.2852,0.0,0.0,0.0,0.0,0.0,0.0,0.0,0.0,0.0,0.0,-1.9643,-1.9937,-2.0473,-2.0957,-2.1202,-2.1458,-2.1698,-2.1841,-2.2156,-2.2306,-2.2044,0.0,0.0,0.0,0.0,0.0,0.0,0.0,0.0,0.0,0.0,0.0,0.0,0.0,0.0,0.0,0.0,0.0,0.0,0.0,0.0,0.0,0.0,0.0,0.0,0.0,0.0,0.0,0.0,0.0,0.0,0.0,0.0,0.0,0.0,0.0,0.0,0.0,0.0,0.0,0.0,0.0,0.0,0.0,0.0,0.0,0.0,0.0,0.0,0.0,0.0,0.0,0.0,0.0,-1.3768,-1.4352,-1.4079,-1.4192,-1.4623,-1.4348,-1.4067,-1.3798,-1.4067,-1.3972,-1.3572,0.0,0.0,0.0,0.0,0.0,0.0,0.0,0.0,0.0,0.0,0.0,0.0,0.0,0.0,0.0,0.0,0.0,0.0,0.0,0.0,0.0,0.0,0.0,0.0,0.0,0.0,-1.1704,-1.2194,-1.2686,0.0,0.0,0.0,0.0,0.0,0.0,0.0,0.0,0.0,0.0,-2.0917,-2.0746,-2.1299,-2.1361,-2.1602,-2.2105,-2.2184,-2.237,-2.2843,-2.2918,-2.3009,0.0,0.0,0.0,0.0,0.0,0.0,0.0,0.0,0.0,0.0,0.0,0.0,0.0,0.0,0.0,0.0,0.0,0.0,0.0,0.0,0.0,0.0,0.0,0.0,0.0,0.0,0.0,0.0,0.0,0.0,0.0,0.0,0.0,0.0,0.0,0.0,0.0,0.0,0.0,0.0,-0.9881,-1.0082,0.0,0.0,0.0,0.0,0.0,0.0,0.0,0.0,0.0,0.0,0.0,0.0,-1.4657,-1.4946,-1.5306,-1.5539,-1.5619,-1.5339,-1.5157,-1.5069,-1.4966,-1.4824,-1.4712,0.0,0.0,0.0,0.0,0.0,0.0,0.0,0.0,0.0,0.0,0.0,0.0,0.0,0.0,0.0,0.0,0.0,0.0,0.0,0.0,0.0,0.0,0.0,0.0,0.0,-1.2503,0.0,0.0,0.0,0.0,0.0,0.0,0.0,0.0,0.0,0.0,0.0,-1.9877,-2.1669,-2.1684,-2.165,-2.1888,-2.2217,-2.2623,0.0,0.0,0.0,0.0,0.0,0.0,0.0,0.0,0.0,0.0,0.0,0.0,0.0,0.0,-2.3739,-2.3217,-2.2866,-2.2787,-2.3223,0.0,0.0,0.0,0.0,0.0,0.0,0.0,0.0,0.0,0.0,0.0,0.0,0.0,0.0,0.0,0.0,-0.6744,0.0,0.0,0.0,0.0,0.0,0.0,0.0,0.0,-0.968,-1.0002,-1.0427,-1.0739,-1.1059,0.0,-1.187,-1.2049,0.0,0.0,0.0,0.0,0.0,0.0,0.0,0.0,-1.5529,-1.5736,-1.6103,-1.6346,-1.6455,-1.6277,-1.6185,-1.6088,-1.5857,-1.5771,-1.6009,-1.5859,-1.5606,0.0,0.0,0.0,0.0,0.0,0.0,0.0,0.0,0.0,0.0,0.0,0.0,0.0,0.0,0.0,0.0,0.0,0.0,0.0,0.0,0.0,0.0,0.0,-1.344,0.0,0.0,0.0,0.0,0.0,0.0,0.0,0.0,0.0,-1.7253,-1.8836,-2.0664,-2.217,-2.2306,-2.2427,-2.284,0.0,0.0,0.0,0.0,0.0,0.0,0.0,-2.5549,-2.5956,-2.5712,-2.5554,-2.5871,-2.6046,-2.6101,-2.6108,0.0,0.0,-2.4626,-2.4178,-2.407,-2.4527,-2.5194,-2.5433,-2.4544,-2.4499,-2.4558,0.0,0.0,0.0,0.0,0.0,0.0,0.0,0.0,-0.6426,-0.6657,0.0,0.0,0.0,0.0,0.0,0.0,0.0,0.0,0.0,0.0,-1.017,-1.0507,-1.0948,-1.1265,-1.1758,-1.2325,-1.2831,-1.3199,-1.3408,-1.3202,0.0,0.0,0.0,0.0,0.0,0.0,-1.6283,-1.673,-1.6454,-1.6677,-1.7274,-1.7228,-1.7145,-1.7017,-1.6768,-1.6931,-1.7307,-1.6855,-1.6563,-1.6523,-1.6321,0.0,0.0,0.0,0.0,0.0,0.0,0.0,0.0,0.0,0.0,0.0,0.0,0.0,0.0,0.0,0.0,0.0,0.0,0.0,0.0,-1.3959,0.0,0.0,0.0,0.0,0.0,0.0,0.0,0.0,0.0,0.0,-1.9682,-2.0234,-2.1153,-2.2526,0.0,0.0,0.0,0.0,-2.4987,-2.5895,-2.6289,-2.6512,-2.6779,-2.6373,-2.6388,-2.731,0.0,0.0,-2.7793,-2.785,-2.7834,-2.7898,-2.7825,-2.7267,-2.566,-2.5003,-2.4798,-2.524,-2.5792,-2.5869,-2.5621,-2.5761,-2.5914,-0.7054,0.0,0.0,0.0,0.0,-0.6061,-0.6186,-0.6431,-0.6667,-0.6962,-0.7255,-0.7495,0.0,0.0,0.0,0.0,0.0,0.0,-1.0137,-1.0597,-1.0945,-1.1279,-1.1709,-1.2029,-1.2358,-1.2661,-1.2967,-1.3406,-1.3974,-1.415,-1.4209,-1.4255,0.0,0.0,0.0,0.0,-1.6965,-1.7572,-1.7467,-1.7684,-1.8287,-1.8549,-1.8557,-1.8213,-1.8274,-1.8197,-1.8037,-1.7979,-1.7861,-1.7431,-1.7347,0.0,0.0,0.0,0.0,0.0,0.0,0.0,0.0,0.0,0.0,0.0,0.0,0.0,0.0,0.0,0.0,0.0,0.0,0.0,-1.4764,-1.5135,-1.5491,0.0,0.0,0.0,0.0,0.0,0.0,0.0,0.0,0.0,-2.1409,-2.1625,-2.209,0.0,0.0,-2.4163,-2.4717,-2.5408,-2.6243,-2.7147,0.0,0.0,0.0,-2.8674,-2.8667,-2.864,-2.8296,-2.8114,-2.829,-2.8379,-2.8434,-2.8472,-2.8472,-2.8262,-2.7739,-2.6383,-2.5885,-2.6909,-2.7613,-2.7833,-2.7575,-2.7292,-2.6985,-0.7763,-0.7397,-0.6912,-0.6595,-0.6403,-0.6403,-0.6532,-0.6719,-0.7026,-0.733,-0.7696,-0.7857,-0.8177,-0.8609,-0.9141,0.0,0.0,0.0,-1.0847,-1.1286,-1.1667,-1.1978,-1.2174,-1.2562,-1.2853,-1.315,-1.3332,-1.3847,-1.4479,-1.4907,-1.5184,-1.5184,0.0,0.0,-1.697,-1.7422,-1.7895,-1.8541,-1.8501,-1.8691,-1.9306,-1.9538,-1.9637,-1.9502,-1.9457,-1.9346,-1.9161,-1.9077,-1.8874,-1.8497,-1.8335,-1.8105,0.0,0.0,0.0,0.0,0.0,0.0,0.0,0.0,0.0,0.0,0.0,-1.5018,-1.5078,0.0,0.0,0.0,-1.5087,-1.5486,-1.5802,-1.6052,0.0,0.0,0.0,0.0,0.0,0.0,0.0,-2.0434,-2.1403,-2.2249,-2.2818,-2.3252,-2.3647,-2.388,-2.4657,-2.5409,-2.6043,0.0,-2.7389,-2.8334,-2.8669,-2.8974,-2.9585,-2.9913,-2.9992,-2.9881,-2.9636,-2.9477,-2.9499,-2.9515,-2.9587,-2.9626,-2.9587,-2.9587,-2.9587,-2.851,-2.7725,-2.8246,-2.9092,-2.9446,-2.8724,-2.8293,-2.8065,-0.8589,-0.8418,-0.7606,-0.7184,-0.699,-0.699,-0.7122,-0.7311,-0.7489,-0.7807,-0.8242,-0.828,-0.8606,-0.9291,-0.9936,0.0,0.0,-1.1418,-1.1811,-1.1898,-1.2349,-1.2562,-1.2577,-1.2892,-1.3264,-1.363,-1.3991,-1.4441,-1.4992,-1.5527,-1.602,-1.6512,-1.675,-1.7248,-1.8071,-1.8505,-1.9,-1.9486,-1.9349,-1.9635,-2.0473,-2.0391,-2.0473,-2.0736,-2.0412,-2.0386,-2.0508,-2.0075,-1.9725,-1.9725,-1.9349,-1.9154,-1.906,0.0,0.0,0.0,0.0,0.0,0.0,0.0,0.0,0.0,0.0,0.0,0.0,0.0,0.0,0.0,-1.5785,0.0,-1.6838,-1.6821,0.0,0.0,0.0,-1.8557,-1.9119,-1.978,-2.0475,-2.1139,0.0,0.0,0.0,0.0,-2.5528,-2.5002,-2.5742,-2.6671,-2.7686,-2.8036,-2.8529,-2.9342,-2.9661,-2.9853,-3.0,-3.03,-3.0593,-3.0855,-3.0986,-3.0868,-3.0914,-3.0948,-3.0942,-3.0914,-3.0958,-3.0918,-3.0895,-3.0734,-3.0505,-2.9152,-3.0112,-3.0742,-2.9445,-2.909,-2.9132,-0.8946,-0.8881,-0.8548,-0.8082,-0.759,-0.7729,-0.7864,-0.7919,-0.818,-0.8508,-0.8754,-0.8975,-0.9503,-1.0273,-1.0624,-1.1047,-1.1511,-1.1969,-1.2215,-1.2364,-1.2745,-1.2892,-1.2906,-1.3371,-1.3742,-1.4022,-1.4243,-1.4784,-1.556,-1.5724,-1.6421,-1.7635,-1.7746,-1.7911,-1.8106,-1.878,-1.9365,-1.9759,-1.9722,-2.0421,-2.1788,-2.1446,-2.1203,-2.1472,-2.1551,-2.1535,-2.1309,-2.1286,-2.1062,-2.0585,-2.0528,-2.0215,-1.981,-1.9727,0.0,0.0,0.0,0.0,0.0,0.0,0.0,0.0,0.0,-1.6927,-1.6989,0.0,-1.6947,0.0,-1.7967,-1.8502,-1.8012,-1.8246,0.0,0.0,-1.9621,-2.0234,-2.0834,-2.1542,-2.2194,-2.2831,-2.3644,-2.4324,-2.4828,-2.5914,-2.6763,-2.7025,-2.73,-2.7592,-2.7989,-2.8704,-2.9278,-2.9645,-2.987,-3.006,-3.0359,-3.0634,-3.0912,-3.1009,-3.1112,-3.1196,-3.1235,-3.1274,-3.1308,-3.1235,-3.1218,-3.1196,-3.1168,-3.114,-3.1043,-3.0777,-3.1091,-3.1321,-3.0798,-3.0381,-3.0063,-0.9679,-0.9618,-0.9462,-0.9093,-0.8709,-0.8445,-0.8438,-0.8493,-0.8795,-0.9023,-0.936,-0.9825,-1.035,-1.1028,-1.1315,-1.1657,-1.2011,-1.2463,-1.2669,-1.2753,-1.3075,-1.33,-1.3386,-1.3842,-1.4147,-1.444,-1.4809,-1.5354,-1.6013,-1.6388,-1.7064,-1.8098,-1.8513,-1.8841,-1.9125,-1.9716,-2.0225,-2.0711,-2.0884,-2.1502,-2.2387,-2.2054,-2.2008,-2.2185,-2.2353,-2.2337,-2.2178,-2.2255,-2.2116,-2.1724,-2.1578,-2.1323,-2.1001,-2.0752,-2.052,0.0,0.0,0.0,0.0,0.0,0.0,0.0,0.0,0.0,0.0,0.0,-1.8165,0.0,-1.9441,0.0,-1.9098,-1.9182,-1.9524,-2.0053,-2.0677,-2.1219,-2.1831,-2.251,-2.3162,-2.3784,-2.4633,-2.534,-2.5842,-2.6909,-2.7765,-2.8263,-2.8478,-2.8674,-2.8882,-2.9319,-2.9722,-3.0,-3.0172,-3.0359,-3.0692,-3.1221,-3.1584,-3.1698,-3.2072,-3.2412,-3.2412,-3.2468,-3.2485,-3.2412,-3.2412,-3.2293,-3.1907,-3.1438,-3.1235,-3.1368,-3.1496,-3.1551,-3.1483,-3.1179,-3.0979,-1.0513,-1.0299,-1.0293,-1.0143,-0.9959,-0.9192,-0.9024,-0.9161,-0.9341,-0.9595,-0.9921,-1.0673,-1.1162,-1.1573,-1.1957,-1.2251,-1.2409,-1.2858,-1.3067,-1.3089,-1.336,-1.3594,-1.3865,-1.4208,-1.4584,-1.5028,-1.5539,-1.5936,-1.6385,-1.7157,-1.7726,-1.8204,-1.9138,-1.9943,-2.0435,-2.0819,-2.1316,-2.1902,-2.2309,-2.2625,-2.2732,-2.2713,-2.2792,-2.2969,-2.3008,-2.2969,-2.3135,-2.3041,-2.2983,-2.2904,-2.2605,-2.2467,-2.2333,-2.1821,-2.1471,0.0,-2.1256,0.0,0.0,0.0,0.0,0.0,0.0,0.0,0.0,-1.8977,-1.9287,-1.9966,-2.0459,-2.0563,-2.0195,-2.003,-2.0241,-2.0894,-2.1443,-2.2061,-2.2638,-2.3232,-2.3813,-2.4467,-2.5481,-2.6382,-2.6901,-2.7821,-2.8527,-2.903,-2.9513,-2.9913,-3.0085,-2.9983,-3.0017,-3.0458,-3.0758,-3.1158,-3.1422,-3.1972,-3.2507,-3.2672,-3.3185,-3.3813,-3.3727,-3.3744,-3.3778,-3.3761,-3.371,-3.3522,-3.2866,-3.206,-3.1613,-3.1854,-3.2128,-3.2152,-3.172,-3.16,-3.1671,-1.1123,-1.0911,-1.0749,-1.0588,-1.0363,-1.0187,-1.0079,-0.9994,-1.0019,-1.0178,-1.0471,-1.1093,-1.1573,-1.1936,-1.2457,-1.2704,-1.2866,-1.3258,-1.3404,-1.3411,-1.347,-1.3778,-1.4238,-1.4463,-1.4789,-1.5288,-1.5734,-1.6219,-1.6826,-1.7284,-1.7865,-1.8594,-1.9525,-2.0318,0.0,0.0,0.0,0.0,-2.2914,-2.376,-2.4566,-2.4138,-2.394,-2.4196,-2.3857,0.0,-2.3657,-2.3846,-2.3815,-2.3627,-2.3763,0.0,0.0,0.0,0.0,0.0,0.0,0.0,0.0,0.0,0.0,0.0,-2.1642,-2.104,-1.9922,-1.9836,-2.0009,-2.0442,-2.0831,-2.1192,-2.1335,-2.1528,-2.1886,-2.2573,-2.3048,-2.3644,-2.4273,-2.475,-2.523,-2.582,-2.6541,-2.7193,-2.7724,-2.8168,-2.8817,-2.9959,-3.0655,-3.1225,-3.1785,-3.0898,-3.0494,-3.1229,-3.2067,-3.2731,-3.285,-3.3102,-3.3386,-3.3444,-3.3618,-3.3911,-3.3985,-3.4026,-3.4031,-3.3968,-3.3859,-3.3877,-3.3624,-3.3117,-3.2895,-3.3362,-3.3813,-3.3723,-3.2015,-3.1671,-3.1746,-1.1564,0.0,-1.126,-1.1186,0.0,0.0,-1.1037,-1.0956,-1.0757,-1.0919,-1.1287,-1.1721,-1.2084,-1.2445,-1.2821,-1.31,-1.3258,-1.3418,-1.3587,-1.3733,-1.3874,-1.4186,-1.4736,-1.5057,-1.5459,-1.5795,-1.6434,-1.6858,-1.7191,-1.7757,-1.8435,-1.8993,-1.9935,-2.0828,-2.1504,-2.265,-2.3027,-2.271,-2.3553,-2.4766,-2.609,-2.5189,-2.4736,-2.4849,0.0,0.0,0.0,0.0,0.0,0.0,0.0,0.0,0.0,0.0,0.0,-2.3615,-2.3559,-2.3401,-2.2971,-2.2971,-2.2868,-2.2787,-2.2764,-2.2332,-2.1341,-2.1219,-2.1341,-2.1772,-2.2329,-2.2639,-2.248,-2.2773,-2.3083,-2.3416,-2.3969,-2.4642,-2.5429,-2.5994,-2.6608,-2.7443,-2.8003,-2.8547,-2.9012,-2.8743,-2.928,-3.0703,-3.2079,-3.2704,-3.2433,-3.179,-3.1594,-3.2247,-3.284,-3.333,-3.3389,-3.3922,-3.4235,-3.4294,-3.4717,-3.5046,-3.5081,-3.5139,-3.5163,-3.5098,-3.5081,-3.4995,-3.4593,-3.4582,-3.4553,-3.4174,-3.4409,-3.4419,-3.3089,-3.2882,-3.28,-1.2003,-1.1861,-1.1906,-1.1932,-1.1857,-1.1902,-1.1928,-1.1921,0.0,0.0,0.0,-1.2305,-1.2592,-1.298,-1.325,-1.3433,-1.3587,-1.3638,-1.3814,-1.4131,-1.4351,-1.4675,-1.5242,-1.5668,-1.607,-1.6389,-1.709,-1.7392,-1.7473,-1.829,-1.8887,-1.9433,-2.0412,-2.1363,-2.2131,-2.3585,-2.4019,-2.3582,-2.4346,-2.5632,-2.7274,-2.6216,-2.5562,-2.5618,-2.5534,-2.5448,-2.5338,-2.5413,-2.5455,-2.5527,-2.5502,-2.5495,-2.5661,-2.543,-2.5204,-2.4933,-2.4899,-2.4648,-2.4108,-2.4038,-2.3898,-2.3612,-2.3576,-2.329,-2.2719,-2.2503,-2.2639,-2.3092,-2.3862,-2.4103,-2.3609,-2.3954,-2.4262,-2.4307,-2.4797,-2.5534,-2.6505,-2.7032,-2.7668,-2.8703,-2.9188,-2.9681,-3.0097,-2.9638,-2.9739,-3.1417,-3.3161,-3.418,-3.3162,-3.2859,-3.289,-3.3238,-3.3648,-3.3828,-3.3914,-3.4517,-3.5053,-3.5087,-3.5744,-3.6266,-3.6284,-3.6284,-3.6284,-3.6163,-3.6284,-3.6008,-3.5559,-3.578,-3.5879,-3.4737,-3.4812,-3.4955,-3.4616,-3.4473,-3.418,-1.2673,-1.2472,-1.2804,-1.2685,-1.24,-1.2635,-1.2818,-1.2928,-1.2218,-1.2009,-1.2305,-1.2673,-1.29,-1.3207,-1.3635,-1.3916,-1.3938,-1.4201,-1.451,0.0,-1.4764,-1.5093,-1.5794,-1.5856,-1.6277,-1.6968,-1.7286,-1.7473,-1.7708,-1.8362,-1.8976,-1.9588,-2.0643,-2.1834,-2.3211,-2.4263,-2.4814,-2.4957,-2.5645,-2.663,-2.7822,-2.7186,-2.6823,-2.6992,-2.6631,-2.6306,-2.5828,-2.6238,-2.6214,-2.5917,-2.6163,-2.6434,-2.6337,-2.6325,-2.6207,-2.6083,-2.6036,-2.5855,-2.5377,-2.5342,-2.518,-2.4791,-2.4732,-2.4294,-2.332,-2.3282,-2.3416,-2.3706,-2.4098,-2.4471,-2.4746,-2.5166,-2.554,-2.6075,-2.6377,-2.6804,-2.7505,-2.7853,-2.8297,-2.8949,-2.9426,-2.997,-3.0385,-3.0505,-3.1016,-3.2344,-3.3631,-3.4464,-3.4343,-3.4222,-3.4024,-3.4147,-3.4734,-3.5205,-3.5182,-3.5572,-3.5753,-3.5865,-3.6071,-3.6284,-3.6284,-3.6284,-3.6284,-3.6284,-3.6284,-3.6215,-3.6094,-3.6197,-3.617,-3.5818,-3.5928,-3.5946,-3.5818,-3.5835,-3.5473,-1.3293,-1.3234,-1.3381,-1.3383,-1.324,-1.3369,-1.3502,-1.356,-1.3215,-1.3092,-1.3175,-1.348,-1.3639,-1.3805,-1.4103,-1.4245,-1.4253,-1.4547,-1.4859,-1.5102,-1.5332,-1.5666,-1.6129,-1.6403,-1.6734,-1.7131,-1.7383,-1.77,-1.7887,-1.8652,-1.9361,-2.019,-2.1542,-2.2744,-2.3687,-2.4733,-2.5378,-2.5571,-2.6289,-2.7117,-2.7942,-2.766,-2.7572,-2.749,-2.7467,-2.7233,-2.6933,-2.726,-2.72,-2.6796,-2.7216,-2.7227,-2.7059,-2.7197,-2.7123,-2.6919,-2.6872,-2.68,-2.6524,-2.6538,-2.6577,-2.6384,-2.6117,-2.5778,-2.535,-2.4909,-2.4752,-2.5093,-2.5418,-2.5681,-2.5794,-2.6255,-2.6627,-2.6688,-2.7097,-2.7652,-2.8302,-2.8755,-2.929,-3.007,-3.0556,-3.104,-3.1512,-3.1812,-3.2217,-3.3144,-3.402,-3.4595,-3.4756,-3.4822,-3.4772,-3.4868,-3.5239,-3.5543,-3.5622,-3.5844,-3.5958,-3.5941,-3.6156,-3.6284,-3.6284,-3.6284,-3.6284,-3.6284,-3.6284,-3.6284,-3.6284,-3.6284,-3.6284,-3.6284,-3.6284,-3.6284,-3.6284,-3.6284,-3.5904,-1.3977,-1.3967,-1.3979,-1.4156,-1.4258,-1.42,-1.4193,-1.4193,-1.42,-1.4193,-1.4258,-1.4223,-1.423,-1.4316,-1.4538,-1.4653,-1.4732,-1.487,-1.52,-1.5579,-1.5836,-1.6218,-1.6535,-1.6968,-1.7131,-1.7212,-1.7538,-1.7861,-1.8155,-1.8918,-1.9841,-2.095,-2.2505,-2.3493,-2.3861,-2.5094,-2.5785,-2.5903,-2.6781,-2.7575,-2.8196,-2.8196,-2.8107,-2.8061,-2.82,-2.8252,-2.7988,-2.8197,-2.8223,-2.7907,-2.8138,-2.8159,-2.7906,-2.8034,-2.8051,-2.7722,-2.7717,-2.7645,-2.7442,-2.7471,-2.7545,-2.7545,-2.7188,-2.711,-2.7204,-2.6772,-2.6342,-2.6421,-2.6663,-2.6835,-2.6922,-2.736,-2.7629,-2.7489,-2.7871,-2.8528,-2.9194,-2.9622,-3.0207,-3.1188,-3.1625,-3.1977,-3.2508,-3.2757,-3.3118,-3.3678,-3.4217,-3.4546,-3.4691,-3.5058,-3.5308,-3.5337,-3.5458,-3.5594,-3.5622,-3.58,-3.5915,-3.5907,-3.6114,-3.6259,-3.6301,-3.6284,-3.6284,-3.6284,-3.6284,-3.6284,-3.6284,-3.6284,-3.6284,-3.6284,-3.6284,-3.6284,-3.6284,-3.6284,-3.6146,-1.4491,-1.4824,-1.4889,-1.5242,-1.5434,-1.5141,-1.5043,-1.5209,-1.5072,-1.5079,-1.5165,-1.4482,-1.433,-1.4516,-1.4772,-1.4969,-1.5233,-1.5509,-1.5808,-1.6242,-1.6347,-1.6609,-1.696,-1.7049,-1.7294,-1.7619,-1.7691,-1.7942,-1.8379,-1.9009,-2.0152,-2.1655,-2.3093,-2.3744,-2.3941,-2.544,-2.6104,-2.5909,-2.7434,-2.8384,-2.8679,-2.8707,-2.8828,-2.8969,-2.9235,-2.9194,-2.8746,-2.8868,-2.8896,-2.8712,-2.8838,-2.8935,-2.8881,-2.8892,-2.8817,-2.87,-2.8639,-2.8578,-2.8206,-2.7754,-2.7668,-2.7779,-2.7925,-2.8082,-2.8299,-2.8536,-2.8119,-2.7361,-2.7294,-2.7643,-2.8103,-2.8322,-2.8652,-2.9045,-2.9246,-2.9709,-3.0228,-3.06,-3.0866,-3.1407,-3.1739,-3.215,-3.2547,-3.2812,-3.3234,-3.3925,-3.4299,-3.4546,-3.4691,-3.5011,-3.5308,-3.5337,-3.5458,-3.5577,-3.5622,-3.5711,-3.5827,-3.5924,-3.6071,-3.6233,-3.6259,-3.6284,-3.6284,-3.6284,-3.6284,-3.6284,-3.6284,-3.6284,-3.6284,-3.6284,-3.6284,-3.6284,-3.6284,-3.6284,-3.6197,-1.5267,-1.5559,-1.5481,-1.562,-1.5876,-1.5748,-1.5748,-1.5831,-1.5756,-1.5673,-1.5553,-1.5212,-1.5021,-1.5043,-1.5249,-1.5457,-1.5546,-1.5921,-1.6229,-1.6394,-1.6566,-1.6722,-1.7049,-1.7123,-1.7367,-1.7691,-1.8031,-1.829,-1.8709,-1.9789,-2.1015,-2.2119,-2.3231,-2.3841,-2.3911,-2.544,-2.6336,-2.6404,-2.7704,-2.8625,-2.9146,-2.9079,-2.9128,-2.9301,-2.9588,-2.9704,-2.9523,-2.9827,-2.9765,-2.9468,-2.9694,-2.9815,-2.9475,-2.9666,-2.9661,-2.9314,-2.9199,-2.9098,-2.8954,-2.9037,-2.9076,-2.9152,-2.8999,-2.903,-2.9357,-2.9243,-2.9039,-2.8897,-2.8556,-2.8372,-2.8525,-2.8716,-2.9099,-2.954,-2.9803,-3.0097,-3.0522,-3.0821,-3.1117,-3.1552,-3.1853,-3.2221,-3.2703,-3.3134,-3.3566,-3.406,-3.4364,-3.4579,-3.4627,-3.4899,-3.5198,-3.5291,-3.5429,-3.5549,-3.5577,-3.5711,-3.5844,-3.5941,-3.6088,-3.6208,-3.6345,-3.6284,-3.6284,-3.6318,-3.6353,-3.6353,-3.6284,-3.6284,-3.6284,-3.6284,-3.6284,-3.6284,-3.6284,-3.6284,-3.6284,-1.5934,-1.6201,-1.6121,-1.6277,-1.6484,-1.6417,-1.6327,-1.6252,-1.6252,-1.6079,-1.5824,-1.5824,-1.5748,-1.559,-1.5658,-1.5741,-1.5816,-1.6229,-1.6394,-1.6476,-1.6648,-1.6894,-1.7139,-1.7196,-1.7448,-1.7789,-1.829,-1.8726,-1.9282,-2.0531,-2.1693,-2.2581,-2.3406,-2.3901,-2.4267,-2.5622,-2.6499,-2.6759,-2.7974,-2.8883,-2.9379,-2.9346,-2.9405,-2.9588,-2.9874,-2.9977,-3.0068,-3.0408,-3.0493,-3.0232,-3.056,-3.0596,-3.0265,-3.0459,-3.0455,-3.0,-2.9873,-2.9799,-2.9799,-3.0074,-3.0152,-3.019,-2.9971,-3.0051,-3.0268,-3.0112,-3.0108,-3.0317,-2.9927,-2.9551,-2.9084,-2.9284,-2.9547,-2.9721,-2.9988,-3.028,-3.0702,-3.1014,-3.1382,-3.1965,-3.2315,-3.2522,-3.2951,-3.3666,-3.4446,-3.4764,-3.498,-3.5086,-3.5153,-3.5497,-3.5819,-3.5894,-3.6021,-3.5958,-3.5729,-3.5938,-3.6072,-3.628,-3.6532,-3.6955,-3.6965,-3.7042,-3.6939,-3.7353,-3.6904,-3.6628,-3.6697,-3.6628,-3.6284,-3.6284,-3.6284,-3.6284,-3.6284,-3.6284,-3.6284,-1.637,-1.6902,-1.7204,-1.7245,-1.731,-1.7139,-1.6894,-1.6656,-1.6476,-1.6237,-1.6087,-1.6087,-1.6087,-1.6004,-1.5824,-1.5831,-1.6079,-1.6319,-1.6484,-1.6648,-1.6738,-1.6984,-1.7392,-1.7286,-1.7448,-1.7959,-1.8371,-1.9227,-2.0402,-2.1006,-2.1863,-2.3008,-2.358,-2.4139,-2.4897,-2.6015,-2.6695,-2.6809,-2.8234,-2.9231,-2.9508,-2.9703,-2.9794,-2.9886,-3.0045,-3.0306,-3.0487,-3.0578,-3.0824,-3.1169,-3.1235,-3.1185,-3.1149,-3.115,-3.1148,-3.1071,-3.0939,-3.0782,-3.0785,-3.0547,-3.0394,-3.0432,-3.0696,-3.0921,-3.1005,-3.1309,-3.1446,-3.13,-3.1319,-3.1021,-3.0165,-3.0257,-3.0341,-3.0202,-3.0291,-3.0609,-3.1087,-3.1397,-3.1854,-3.2728,-3.3242,-3.3321,-3.3106,-3.4533,-3.5559,-3.6055,-3.6413,-3.6462,-3.6416,-3.6803,-3.7036,-3.7216,-3.7246,-3.7138,-3.6033,-3.6299,-3.6797,-3.7019,-3.7399,-3.81,-3.8528,-3.8784,-3.8543,-3.8267,-3.7767,-3.7422,-3.7301,-3.6939,-3.6456,-3.6284,-3.6284,-3.6284,-3.6284,-3.6284,-3.6284,-1.6794,-1.7095,-1.7293,-1.7481,-1.7538,-1.7383,-1.7229,-1.7147,-1.6976,-1.673,-1.6492,-1.6327,-1.6245,-1.6095,-1.6154,-1.6237,-1.6312,-1.6484,-1.6648,-1.6738,-1.6894,-1.7139,-1.7392,-1.7448,-1.761,-1.804,-1.8477,-1.9444,-2.0736,-2.1287,-2.2131,-2.3037,-2.357,-2.4236,-2.5124,-2.6136,-2.6695,-2.6901,-2.8326,-2.9357,-2.9885,-2.9931,-2.9977,-3.0045,-3.0136,-3.0306,-3.0578,-3.0781,-3.0949,-3.1306,-3.1484,-3.1589,-3.1734,-3.1651,-3.1804,-3.1996,-3.1668,-3.136,-3.1174,-3.1087,-3.1034,-3.0786,-3.1048,-3.1286,-3.1582,-3.189,-3.2074,-3.2085,-3.2315,-3.2125,-3.169,-3.1307,-3.1166,-3.129,-3.1536,-3.1806,-3.2235,-3.254,-3.2946,-3.3575,-3.4091,-3.4286,-3.4457,-3.511,-3.6236,-3.7297,-3.7126,-3.6806,-3.676,-3.6966,-3.7336,-3.7468,-3.7533,-3.748,-3.7249,-3.728,-3.7547,-3.7704,-3.7967,-3.8225,-3.8585,-3.886,-3.8715,-3.8784,-3.8405,-3.8008,-3.7767,-3.706,-3.6577,-3.6404,-3.6404,-3.6284,-3.6284,-3.6284,-3.6284,-1.7279,-1.7512,-1.7613,-1.7759,-1.8014,-1.7789,-1.7635,-1.7554,-1.7383,-1.7139,-1.6812,-1.6722,-1.6484,-1.6327,-1.6409,-1.6484,-1.6484,-1.6648,-1.673,-1.673,-1.6976,-1.7221,-1.7392,-1.7529,-1.7772,-1.8227,-1.8842,-1.9807,-2.0922,-2.1542,-2.2294,-2.329,-2.3657,-2.4405,-2.5467,-2.6309,-2.6838,-2.7306,-2.8517,-2.9564,-3.0136,-3.0045,-3.0057,-3.0216,-3.0306,-3.0487,-3.0679,-3.096,-3.1229,-3.1395,-3.1661,-3.1937,-3.2152,-3.2277,-3.2503,-3.2777,-3.2472,-3.2162,-3.1845,-3.172,-3.1576,-3.1363,-3.1453,-3.1656,-3.1963,-3.2169,-3.2372,-3.2561,-3.2832,-3.2863,-3.2818,-3.2518,-3.2241,-3.2176,-3.237,-3.2674,-3.3004,-3.3285,-3.3864,-3.4589,-3.5208,-3.5591,-3.5791,-3.6181,-3.7038,-3.8277,-3.7726,-3.7396,-3.7416,-3.7642,-3.79,-3.8137,-3.8288,-3.8471,-3.8484,-3.8667,-3.843,-3.8458,-3.8836,-3.8909,-3.8917,-3.9089,-3.9198,-3.9232,-3.8991,-3.856,-3.7991,-3.7249,-3.6904,-3.6715,-3.6422,-3.6284,-3.6284,-3.6284,-3.6404,-1.7715,-1.8072,-1.8073,-1.8301,-1.8585,-1.8442,-1.8193,-1.7951,-1.7781,-1.7456,-1.7131,-1.7049,-1.6894,-1.673,-1.6648,-1.6648,-1.6648,-1.673,-1.673,-1.673,-1.6976,-1.7221,-1.7392,-1.7529,-1.7976,-1.8521,-1.9245,-2.0127,-2.1248,-2.1684,-2.2524,-2.3511,-2.3754,-2.4615,-2.6225,-2.6557,-2.7153,-2.7957,-2.8969,-2.9748,-3.0136,-3.0205,-3.0216,-3.0216,-3.0487,-3.0679,-3.0972,-3.1139,-3.1395,-3.1661,-3.1849,-3.2213,-3.2624,-3.3006,-3.336,-3.3344,-3.327,-3.3178,-3.3053,-3.2515,-3.2225,-3.2074,-3.2003,-3.2031,-3.2182,-3.23,-3.2561,-3.2846,-3.2988,-3.3171,-3.3479,-3.3671,-3.3378,-3.2609,-3.2824,-3.3079,-3.3229,-3.3498,-3.4303,-3.5639,-3.6422,-3.7042,-3.7358,-3.7462,-3.7863,-3.8212,-3.8439,-3.851,-3.8461,-3.8661,-3.9229,-3.9492,-3.936,-3.9227,-3.9682,-4.0003,-3.9563,-3.9325,-3.9776,-4.0089,-3.9983,-4.0092,-4.0181,-4.0146,-3.9577,-3.9146,-3.8715,-3.8043,-3.7646,-3.737,-3.6904,-3.6663,-3.6835,-3.6973,-3.6766,-1.7782,-1.8249,-1.8172,-1.8398,-1.8807,-1.8692,-1.8451,-1.8282,-1.8031,-1.7789,-1.7456,-1.7221,-1.7049,-1.6976,-1.6812,-1.673,-1.673,-1.673,-1.673,-1.6738,-1.7139,-1.731,-1.7473,-1.7708,-1.825,-1.9026,-1.9731,-2.0549,-2.1532,-2.2034,-2.2766,-2.3647,-2.3841,-2.4753,-2.6494,-2.6668,-2.7265,-2.8522,-2.9198,-2.9748,-3.0148,-3.0205,-3.0216,-3.0216,-3.0601,-3.0883,-3.0984,-3.1229,-3.1395,-3.1673,-3.1849,-3.2201,-3.2711,-3.3142,-3.3484,-3.3615,-3.3753,-3.3788,-3.3682,-3.3462,-3.3091,-3.2711,-3.2576,-3.2415,-3.2355,-3.2489,-3.2704,-3.2988,-3.3227,-3.3521,-3.3813,-3.4088,-3.4062,-3.3796,-3.4017,-3.4351,-3.455,-3.5087,-3.5753,-3.6504,-3.689,-3.7121,-3.748,-3.7759,-3.803,-3.8306,-3.8594,-3.8672,-3.8805,-3.8969,-3.9239,-3.9609,-3.9661,-3.9764,-3.9969,-4.0087,-3.9868,-3.9697,-4.0133,-4.0485,-4.0583,-4.068,-4.0823,-4.0716,-4.0164,-3.975,-3.9319,-3.8905,-3.8553,-3.8198,-3.7887,-3.7818,-3.787,-3.7828,-3.7638,-1.7858,-1.8319,-1.8276,-1.8485,-1.8943,-1.8859,-1.8772,-1.8603,-1.8282,-1.8031,-1.7781,-1.7465,-1.7221,-1.7049,-1.6894,-1.6812,-1.673,-1.673,-1.673,-1.6738,-1.7147,-1.7392,-1.7473,-1.7959,-1.8562,-1.9359,-2.0087,-2.0911,-2.1835,-2.232,-2.2969,-2.3667,-2.3841,-2.4733,-2.6551,-2.6758,-2.7355,-2.8685,-2.9279,-2.9736,-3.0091,-3.0194,-3.0216,-3.0306,-3.0691,-3.0984,-3.1074,-3.1318,-3.1572,-3.1849,-3.2113,-3.2463,-3.297,-3.3313,-3.3641,-3.381,-3.4134,-3.4323,-3.4254,-3.4152,-3.3833,-3.3288,-3.3036,-3.2853,-3.264,-3.2704,-3.2917,-3.3227,-3.3452,-3.3675,-3.3951,-3.421,-3.4414,-3.4601,-3.4758,-3.5213,-3.5604,-3.6037,-3.6461,-3.6846,-3.706,-3.7241,-3.7464,-3.77,-3.803,-3.8348,-3.8537,-3.8672,-3.8805,-3.8914,-3.9239,-3.9504,-3.9677,-3.9833,-4.0037,-4.0087,-4.0087,-4.012,-4.0286,-4.0436,-4.0534,-4.0728,-4.0871,-4.0853,-4.0457,-4.0405,-4.0043,-3.979,-3.941,-3.914,-3.8853,-3.8874,-3.8866,-3.8841,-3.8668,-1.7966,-1.8256,-1.8375,-1.8667,-1.9028,-1.9006,-1.8993,-1.8922,-1.8603,-1.8282,-1.804,-1.7781,-1.7456,-1.7212,-1.7139,-1.6976,-1.682,-1.6812,-1.6812,-1.6894,-1.7229,-1.7473,-1.7554,-1.8351,-1.8921,-1.9448,-2.0411,-2.1221,-2.1939,-2.2446,-2.3144,-2.3754,-2.3871,-2.4702,-2.6292,-2.6694,-2.7414,-2.8668,-2.9246,-2.9725,-3.0171,-3.0171,-3.0216,-3.0216,-3.0691,-3.0984,-3.1074,-3.1496,-3.1849,-3.2025,-3.2463,-3.2797,-3.33,-3.3556,-3.381,-3.4076,-3.4507,-3.4756,-3.4706,-3.4687,-3.4377,-3.3836,-3.3547,-3.3175,-3.2966,-3.3,-3.3143,-3.3452,-3.3605,-3.3813,-3.4059,-3.4332,-3.4601,-3.492,-3.5198,-3.5524,-3.591,-3.6289,-3.6616,-3.6923,-3.7089,-3.7254,-3.7464,-3.7759,-3.8046,-3.8332,-3.848,-3.8632,-3.875,-3.8952,-3.9185,-3.9451,-3.9677,-3.9833,-4.0037,-4.0087,-4.0138,-4.0188,-4.0337,-4.0436,-4.0534,-4.0728,-4.0871,-4.0853,-4.0819,-4.0819,-4.0763,-4.0395,-4.0135,-3.9882,-3.9772,-3.9839,-3.9849,-3.9753,-3.971,-1.8045,-1.8337,-1.854,-1.8742,-1.8991,-1.9146,-1.9152,-1.9002,-1.8772,-1.8451,-1.8273,-1.7853,-1.7619,-1.7538,-1.7383,-1.731,-1.7229,-1.7229,-1.7229,-1.7221,-1.7456,-1.7708,-1.8027,-1.8749,-1.9303,-1.9844,-2.0732,-2.1682,-2.2261,-2.2648,-2.3144,-2.3754,-2.3851,-2.4548,-2.5876,-2.6477,-2.7485,-2.8699,-2.9259,-2.9714,-3.0148,-3.0171,-3.0227,-3.0216,-3.0691,-3.0984,-3.1074,-3.1773,-3.2213,-3.23,-3.255,-3.2896,-3.3398,-3.3641,-3.381,-3.416,-3.4507,-3.4839,-3.4964,-3.5075,-3.5048,-3.4743,-3.423,-3.3881,-3.364,-3.3324,-3.3354,-3.3605,-3.3799,-3.4074,-3.4346,-3.4601,-3.4986,-3.5429,-3.5653,-3.5846,-3.6148,-3.6399,-3.6739,-3.6923,-3.715,-3.727,-3.7464,-3.7716,-3.803,-3.8348,-3.844,-3.8544,-3.875,-3.8843,-3.9077,-3.9451,-3.9729,-3.9884,-4.0037,-4.0087,-4.0121,-4.0121,-4.0271,-4.0468,-4.0566,-4.0728,-4.0823,-4.0871,-4.0853,-4.0853,-4.0853,-4.0711,-4.056,-4.0405,-4.0452,-4.0441,-4.0643,-4.0678,-4.0665,-1.8086,-1.8199,-1.8347,-1.8627,-1.8882,-1.8966,-1.9067,-1.9054,-1.8922,-1.8692,-1.8442,-1.8193,-1.7861,-1.7691,-1.7546,-1.7465,-1.7392,-1.7392,-1.7392,-1.7383,-1.7619,-1.7781,-1.8126,-1.8918,-1.9555,-2.0014,-2.101,-2.1745,-2.2366,-2.2618,-2.3144,-2.3667,-2.3841,-2.4584,-2.5847,-2.6491,-2.7352,-2.8577,-2.9272,-2.9714,-3.016,-3.0182,-3.0227,-3.0318,-3.0691,-3.1062,-3.133,-3.2038,-3.24,-3.2487,-3.2736,-3.3068,-3.3471,-3.3628,-3.3894,-3.4327,-3.4743,-3.5003,-3.5236,-3.5386,-3.5452,-3.5131,-3.4684,-3.4203,-3.3862,-3.3592,-3.3536,-3.3744,-3.3922,-3.4196,-3.4549,-3.4883,-3.5329,-3.5767,-3.5958,-3.61,-3.6211,-3.6538,-3.68,-3.6999,-3.7165,-3.7329,-3.748,-3.7759,-3.8046,-3.8274,-3.8423,-3.8537,-3.875,-3.8805,-3.9023,-3.9468,-3.9729,-3.9884,-3.9986,-4.0087,-4.0138,-4.0171,-4.032,-4.0468,-4.0631,-4.0776,-4.0823,-4.0871,-4.0871,-4.0871,-4.0871,-4.0871,-4.0802,-4.0733,-4.0871,-4.0935,-4.1047,-4.1157,-4.1233,-1.7998,-1.7979,-1.8046,-1.8303,-1.8544,-1.8637,-1.8861,-1.9104,-1.8973,-1.8789,-1.8683,-1.8523,-1.8112,-1.7772,-1.77,-1.7627,-1.7473,-1.7554,-1.7473,-1.7554,-1.7708,-1.787,-1.8172,-1.9024,-1.9534,-2.005,-2.1038,-2.1802,-2.2366,-2.2706,-2.3144,-2.3667,-2.3841,-2.4543,-2.5633,-2.6328,-2.741,-2.8443,-2.9228,-2.9703,-3.0137,-3.0182,-3.0227,-3.0306,-3.0691,-3.1241,-3.1673,-3.2125,-3.24,-3.24,-3.281,-3.324,-3.3641,-3.3713,-3.4063,-3.459,-3.4908,-3.5154,-3.5399,-3.5548,-3.5627,-3.5347,-3.4989,-3.445,-3.4203,-3.4016,-3.3831,-3.3882,-3.4074,-3.4346,-3.475,-3.5243,-3.5604,-3.591,-3.6148,-3.6211,-3.6336,-3.6677,-3.6999,-3.6999,-3.7301,-3.748,-3.7599,-3.7732,-3.8014,-3.8322,-3.8423,-3.8576,-3.875,-3.886,-3.9131,-3.9573,-3.9729,-3.9833,-3.9986,-4.0087,-4.0138,-4.0188,-4.037,-4.0517,-4.0728,-4.084,-4.0871,-4.0871,-4.0871,-4.0871,-4.0871,-4.0871,-4.0871,-4.0871,-4.0871,-4.0982,-4.1047,-4.1221,-4.1313,-1.793,-1.7823,-1.7976,-1.8062,-1.7996,-1.8147,-1.8476,-1.8834,-1.862,-1.8635,-1.8638,-1.8514,-1.8184,-1.7951,-1.7951,-1.787,-1.7878,-1.7878,-1.7878,-1.7878,-1.7878,-1.8121,-1.851,-1.9247,-1.9796,-2.0233,-2.1351,-2.2064,-2.2422,-2.2706,-2.3144,-2.3754,-2.3851,-2.4313,-2.5284,-2.6232,-2.6993,-2.7755,-2.8834,-2.9691,-3.0045,-3.0182,-3.0216,-3.0306,-3.0691,-3.1229,-3.1673,-3.2125,-3.24,-3.2487,-3.2822,-3.324,-3.3641,-3.3713,-3.4063,-3.4673,-3.5003,-3.5168,-3.5399,-3.5737,-3.6031,-3.605,-3.564,-3.5404,-3.5071,-3.4725,-3.4382,-3.4203,-3.4317,-3.4683,-3.5016,-3.5524,-3.5861,-3.6037,-3.6226,-3.6476,-3.66,-3.6785,-3.6999,-3.715,-3.7345,-3.748,-3.7539,-3.7775,-3.803,-3.8364,-3.8513,-3.8632,-3.875,-3.8843,-3.9239,-3.9625,-3.9729,-3.9781,-3.9986,-4.0087,-4.0138,-4.0188,-4.0387,-4.0534,-4.0697,-4.084,-4.0871,-4.0871,-4.0871,-4.0871,-4.0871,-4.0871,-4.0871,-4.0871,-4.0918,-4.0982,-4.1093,-4.1267,-4.1377,-1.7794,-1.7686,-1.7697,-1.7685,-1.7828,-1.7825,-1.8054,-1.8309,-1.8288,-1.8371,-1.8512,-1.8329,-1.8267,-1.829,-1.8201,-1.8193,-1.8282,-1.829,-1.8282,-1.8282,-1.8282,-1.8371,-1.8539,-1.925,-1.9808,-2.0153,-2.1126,-2.1845,-2.2296,-2.2618,-2.3047,-2.3754,-2.3841,-2.4272,-2.5083,-2.6168,-2.6982,-2.7655,-2.8778,-2.9588,-2.9931,-3.0159,-3.0408,-3.051,-3.0883,-3.1241,-3.1673,-3.2025,-3.2213,-3.2475,-3.2736,-3.3154,-3.3641,-3.3713,-3.4147,-3.4825,-3.5003,-3.5236,-3.5562,-3.5912,-3.6166,-3.6377,-3.6009,-3.5961,-3.567,-3.5238,-3.4824,-3.4617,-3.47,-3.4831,-3.5148,-3.5653,-3.5988,-3.6052,-3.6289,-3.6616,-3.6816,-3.6938,-3.7044,-3.721,-3.7405,-3.7449,-3.7567,-3.7759,-3.8056,-3.8357,-3.8537,-3.8672,-3.875,-3.8914,-3.9239,-3.952,-3.9677,-3.9781,-3.9986,-4.0138,-4.0138,-4.0238,-4.0337,-4.0485,-4.0583,-4.0728,-4.0871,-4.0871,-4.0871,-4.0871,-4.0871,-4.0871,-4.0871,-4.0871,-4.0935,-4.0982,-4.1076,-4.1186,-4.1324,-1.7598,-1.7558,-1.7314,-1.7372,-1.7608,-1.7484,-1.7642,-1.799,-1.8036,-1.8106,-1.8299,-1.813,-1.831,-1.8461,-1.8505,-1.8531,-1.862,-1.87,-1.8531,-1.8442,-1.8531,-1.8612,-1.87,-1.9191,-1.976,-2.0268,-2.0884,-2.159,-2.2171,-2.2441,-2.2872,-2.358,-2.3841,-2.4186,-2.4898,-2.6038,-2.7058,-2.7788,-2.8754,-2.9485,-2.9736,-3.008,-3.0443,-3.0894,-3.0984,-3.1241,-3.1673,-3.1937,-3.2125,-3.2388,-3.2562,-3.3056,-3.3556,-3.3713,-3.4063,-3.499,-3.5086,-3.5236,-3.5562,-3.5912,-3.6246,-3.6363,-3.6211,-3.6143,-3.6155,-3.5624,-3.5082,-3.4961,-3.4971,-3.5023,-3.5228,-3.5733,-3.5988,-3.6052,-3.6289,-3.6616,-3.6877,-3.6999,-3.7044,-3.727,-3.7405,-3.7524,-3.7626,-3.7801,-3.804,-3.8318,-3.8553,-3.8672,-3.875,-3.8969,-3.9309,-3.952,-3.9677,-3.9833,-4.002,-4.0087,-4.0138,-4.0188,-4.0337,-4.0436,-4.0534,-4.0728,-4.0888,-4.0871,-4.0871,-4.0871,-4.0871,-4.0871,-4.0871,-4.0871,-4.0918,-4.0935,-4.1012,-4.1134,-4.1226,-1.747,-1.7332,-1.7245,-1.7153,-1.707,-1.7009,-1.7248,-1.7559,-1.7596,-1.7679,-1.792,-1.8168,-1.8234,-1.8353,-1.8576,-1.8683,-1.8763,-1.878,-1.8692,-1.8683,-1.8692,-1.8772,-1.8878,-1.911,-1.9607,-2.0373,-2.0897,-2.1534,-2.2171,-2.2441,-2.2794,-2.3406,-2.3754,-2.41,-2.4778,-2.5939,-2.6926,-2.771,-2.8652,-2.9349,-2.9714,-3.0023,-3.0466,-3.0894,-3.0984,-3.1241,-3.1584,-3.1849,-3.2125,-3.2388,-3.2562,-3.3043,-3.3543,-3.3713,-3.4147,-3.466,-3.5003,-3.5236,-3.5494,-3.5978,-3.6312,-3.6443,-3.6554,-3.6711,-3.6546,-3.5982,-3.5268,-3.4943,-3.5078,-3.534,-3.5439,-3.5797,-3.5988,-3.61,-3.6304,-3.6616,-3.6877,-3.6999,-3.7105,-3.7329,-3.7464,-3.7599,-3.7685,-3.7801,-3.8081,-3.8343,-3.8576,-3.8711,-3.875,-3.9023,-3.9362,-3.952,-3.9677,-3.9884,-4.002,-4.007,-4.0138,-4.0171,-4.0271,-4.0419,-4.0534,-4.0745,-4.0888,-4.084,-4.0871,-4.0871,-4.0871,-4.0871,-4.0871,-4.0871,-4.0871,-4.0871,-4.0965,-4.1059,-4.1152,-1.7254,-1.7116,-1.7038,-1.6968,-1.6908,-1.6908,-1.7009,-1.7165,-1.7202,-1.735,-1.7606,-1.7721,-1.8055,-1.8362,-1.844,-1.8725,-1.8966,-1.9002,-1.8922,-1.8922,-1.9002,-1.9002,-1.8993,-1.9073,-1.9734,-2.0356,-2.0741,-2.1336,-2.2208,-2.2344,-2.2706,-2.3222,-2.358,-2.4024,-2.4588,-2.562,-2.659,-2.7344,-2.8385,-2.9237,-2.9588,-3.0,-3.0443,-3.0703,-3.0972,-3.1139,-3.1395,-3.1761,-3.2038,-3.23,-3.2475,-3.2884,-3.3398,-3.3725,-3.4076,-3.4673,-3.5003,-3.5154,-3.5494,-3.5978,-3.6405,-3.6484,-3.6772,-3.7035,-3.6859,-3.6296,-3.5425,-3.5049,-3.5125,-3.5517,-3.5519,-3.5797,-3.5988,-3.6037,-3.6304,-3.6554,-3.68,-3.6923,-3.7105,-3.7329,-3.7405,-3.7583,-3.7743,-3.7918,-3.8081,-3.8351,-3.8616,-3.8711,-3.8805,-3.9023,-3.9362,-3.952,-3.9746,-3.9884,-4.002,-4.007,-4.0087,-4.0121,-4.0221,-4.037,-4.0485,-4.0631,-4.0745,-4.0793,-4.084,-4.0888,-4.0871,-4.0871,-4.0871,-4.0871,-4.0871,-4.0918,-4.0935,-4.0982,-4.1105,-1.7038,-1.6908,-1.6908,-1.6908,-1.6908,-1.6908,-1.6899,-1.6839,-1.6848,-1.7012,-1.7286,-1.7297,-1.7669,-1.83,-1.8525,-1.8779,-1.9274,-1.9292,-1.9143,-1.9152,-1.9152,-1.9152,-1.9152,-1.9323,-1.9723,-2.042,-2.0558,-2.1038,-2.1947,-2.2353,-2.2608,-2.3057,-2.3493,-2.3841,-2.4308,-2.5298,-2.5982,-2.6926,-2.8107,-2.9025,-2.9612,-2.9966,-3.0306,-3.0566,-3.0871,-3.105,-3.1306,-3.1572,-3.1937,-3.23,-3.2487,-3.2723,-3.3313,-3.3556,-3.3979,-3.4577,-3.4921,-3.5154,-3.5399,-3.5978,-3.6405,-3.6405,-3.6772,-3.7134,-3.722,-3.6573,-3.5653,-3.5301,-3.5289,-3.5517,-3.5534,-3.5733,-3.5925,-3.6037,-3.6226,-3.6554,-3.6723,-3.6846,-3.7044,-3.7225,-3.7405,-3.7583,-3.7801,-3.7918,-3.8065,-3.8294,-3.8616,-3.8711,-3.8805,-3.8969,-3.9255,-3.9537,-3.9746,-3.9935,-4.0037,-4.007,-4.0087,-4.0121,-4.0238,-4.0355,-4.0387,-4.0485,-4.06,-4.0697,-4.0745,-4.084,-4.084,-4.0871,-4.0871,-4.0871,-4.0871,-4.0918,-4.0935,-4.0982,-4.1029,-1.6908,-1.6908,-1.6908,-1.6908,-1.6908,-1.6908,-1.676,-1.6612,-1.6612,-1.663,-1.6747,-1.7045,-1.7334,-1.7807,-1.84,-1.8916,-1.9201,-1.9292,-1.9292,-1.9222,-1.9301,-1.9301,-1.9231,-1.9292,-1.9723,-2.0347,-2.0493,-2.1084,-2.1873,-2.2217,-2.253,-2.2891,-2.3406,-2.3841,-2.3978,-2.4989,-2.5971,-2.6847,-2.8105,-2.9192,-2.9851,-2.9942,-3.0148,-3.0499,-3.0871,-3.1062,-3.1318,-3.1584,-3.1937,-3.23,-3.24,-3.2736,-3.3313,-3.3556,-3.3823,-3.4243,-3.466,-3.5072,-3.5249,-3.5912,-3.6405,-3.6484,-3.6758,-3.7148,-3.7163,-3.6923,-3.6183,-3.5839,-3.5629,-3.5517,-3.5534,-3.5668,-3.5831,-3.5958,-3.6148,-3.6414,-3.6662,-3.6862,-3.7044,-3.7165,-3.7345,-3.7583,-3.786,-3.7934,-3.8065,-3.8278,-3.8504,-3.8655,-3.8821,-3.904,-3.9255,-3.9537,-3.9694,-3.9884,-3.9986,-4.0087,-4.0037,-4.0054,-4.0171,-4.0288,-4.0355,-4.0387,-4.0436,-4.0551,-4.0648,-4.0745,-4.084,-4.0871,-4.0871,-4.0871,-4.0871,-4.0871,-4.0871,-4.0935,-4.0982,-1.67,-1.6908,-1.6908,-1.683,-1.676,-1.6751,-1.6621,-1.6473,-1.6403,-1.6412,-1.6491,-1.6713,-1.718,-1.7789,-1.8485,-1.8926,-1.9228,-1.9292,-1.9292,-1.9292,-1.9292,-1.9292,-1.9292,-1.932,-1.9659,-2.0099,-2.0438,-2.0778,-2.1553,-2.2152,-2.253,-2.2618,-2.3232,-2.3667,-2.3841,-2.4543,-2.5606,-2.6726,-2.8112,-2.9212,-2.9622,-2.9908,-3.0057,-3.0397,-3.0793,-3.0972,-3.1229,-3.1496,-3.1849,-3.2125,-3.2313,-3.255,-3.297,-3.3386,-3.381,-3.3894,-3.466,-3.5072,-3.5168,-3.5831,-3.6166,-3.6484,-3.6665,-3.6852,-3.7035,-3.7244,-3.6772,-3.5967,-3.5644,-3.5532,-3.5534,-3.5668,-3.5782,-3.5958,-3.6085,-3.6352,-3.66,-3.6862,-3.706,-3.7181,-3.7345,-3.7583,-3.7801,-3.786,-3.8033,-3.8278,-3.8488,-3.8567,-3.8788,-3.9094,-3.9255,-3.9537,-3.9694,-3.9833,-3.9935,-4.0037,-3.9952,-3.9952,-3.9969,-4.0103,-4.0171,-4.0288,-4.015,-4.0317,-4.0468,-4.0614,-4.0728,-4.084,-4.0888,-4.0888,-4.0871,-4.0871,-4.0871,-4.0918,-4.0982,-1.6482,-1.6769,-1.6769,-1.6691,-1.6533,-1.6542,-1.6403,-1.6272,-1.6272,-1.6281,-1.6342,-1.6517,-1.7098,-1.7843,-1.8348,-1.8733,-1.9136,-1.9246,-1.9292,-1.9222,-1.9222,-1.9152,-1.9161,-1.9188,-1.9379,-1.9843,-2.018,-2.0656,-2.1222,-2.1836,-2.2353,-2.2441,-2.3057,-2.3493,-2.3841,-2.4288,-2.5201,-2.6736,-2.792,-2.8826,-2.9268,-2.968,-2.9874,-3.0239,-3.0612,-3.0894,-3.1062,-3.1318,-3.1661,-3.2038,-3.23,-3.2475,-3.281,-3.33,-3.3713,-3.3894,-3.4577,-3.5003,-3.5249,-3.5656,-3.6152,-3.6391,-3.6652,-3.6936,-3.6839,-3.7463,-3.7411,-3.5913,-3.5518,-3.5436,-3.5484,-3.5539,-3.5782,-3.591,-3.6085,-3.6289,-3.6492,-3.6739,-3.6999,-3.7121,-3.7285,-3.7583,-3.7743,-3.7844,-3.8017,-3.8319,-3.8472,-3.8535,-3.8772,-3.9077,-3.9276,-3.9435,-3.9239,-3.9344,-3.9446,-3.9598,-3.9648,-3.9648,-3.9665,-3.9563,-3.9443,-3.9493,-3.9457,-3.9693,-4.008,-4.0334,-4.0397,-4.0645,-4.0905,-4.0888,-4.0871,-4.0871,-4.0871,-4.0836,-4.0884,-1.6342,-1.6342,-1.6351,-1.6342,-1.6342,-1.6342,-1.6281,-1.6132,-1.6132,-1.6132,-1.6202,-1.6438,-1.6926,-1.7515,-1.7971,-1.8364,-1.8788,-1.9136,-1.9116,-1.9082,-1.9002,-1.8931,-1.894,-1.9003,-1.9218,-1.9543,-1.9886,-2.0377,-2.1089,-2.1595,-2.2082,-2.2441,-2.2882,-2.3309,-2.3784,-2.4308,-2.5037,-2.6341,-2.7441,-2.8261,-2.8859,-2.936,-2.968,-2.9977,-3.042,-3.0769,-3.0972,-3.1229,-3.1572,-3.1937,-3.2213,-3.2475,-3.2723,-3.3313,-3.3628,-3.3894,-3.441,-3.4839,-3.5168,-3.5656,-3.6072,-3.6457,-3.6794,-3.6971,-3.6768,-3.6866,-3.6501,-3.5805,-3.5421,-3.523,-3.5258,-3.5409,-3.5668,-3.5846,-3.6022,-3.6226,-3.6414,-3.6739,-3.6938,-3.706,-3.7225,-3.7524,-3.7759,-3.7801,-3.8033,-3.8335,-3.8488,-3.8623,-3.8788,-3.9094,-3.9189,-3.9215,-3.8785,-3.8706,-3.869,-3.8723,-3.8638,-3.8603,-3.8652,-3.8466,-3.8311,-3.8427,-3.8749,-3.895,-3.9253,-3.9693,-4.0014,-4.0072,-4.0281,-4.0703,-4.0853,-4.0802,-4.056,-4.0353,-4.0555,-1.6008,-1.6008,-1.6008,-1.607,-1.6202,-1.6202,-1.607,-1.5938,-1.5938,-1.6,-1.6132,-1.6289,-1.6696,-1.7316,-1.7779,-1.8179,-1.8656,-1.897,-1.9036,-1.9002,-1.8851,-1.878,-1.8718,-1.8816,-1.8977,-1.9147,-1.9451,-1.9919,-2.058,-2.12,-2.1785,-2.2171,-2.2706,-2.3144,-2.362,-2.4313,-2.4975,-2.5554,-2.6923,-2.805,-2.8756,-2.9268,-2.968,-2.9886,-3.0318,-3.0679,-3.0972,-3.1229,-3.1496,-3.1761,-3.2213,-3.2388,-3.2649,-3.3142,-3.3569,-3.3725,-3.4243,-3.466,-3.5072,-3.5494,-3.5898,-3.6391,-3.6665,-3.6817,-3.6607,-3.6329,-3.5984,-3.5554,-3.531,-3.5104,-3.5228,-3.5359,-3.5619,-3.5782,-3.5958,-3.61,-3.6352,-3.6677,-3.6877,-3.6999,-3.7165,-3.7449,-3.7626,-3.786,-3.8107,-3.8335,-3.856,-3.8711,-3.886,-3.8891,-3.8937,-3.8781,-3.8334,-3.7936,-3.7936,-3.7751,-3.758,-3.7578,-3.7641,-3.754,-3.7503,-3.7939,-3.821,-3.836,-3.8393,-3.8679,-3.8979,-3.9259,-3.9641,-4.0161,-4.0496,-4.0647,-4.0336,-3.9871,-4.0003,-1.5726,-1.5805,-1.5805,-1.5876,-1.6,-1.6,-1.5929,-1.5805,-1.5805,-1.5938,-1.6132,-1.6149,-1.6484,-1.709,-1.7557,-1.8019,-1.8416,-1.8786,-1.8789,-1.8763,-1.8683,-1.8612,-1.854,-1.8549,-1.8567,-1.8691,-1.8857,-1.9243,-2.0247,-2.0762,-2.1425,-2.2073,-2.2539,-2.2882,-2.3466,-2.4287,-2.4706,-2.5081,-2.6288,-2.7909,-2.8668,-2.9154,-2.9485,-2.9794,-3.0136,-3.0499,-3.0793,-3.105,-3.1306,-3.1661,-3.1937,-3.2313,-3.2562,-3.2884,-3.3398,-3.3725,-3.4063,-3.4481,-3.4908,-3.5399,-3.5817,-3.6325,-3.6563,-3.6585,-3.6212,-3.5736,-3.5597,-3.5082,-3.4999,-3.4994,-3.5067,-3.5279,-3.5474,-3.5703,-3.591,-3.61,-3.6274,-3.6523,-3.68,-3.6999,-3.7165,-3.7373,-3.7594,-3.7828,-3.7978,-3.8254,-3.8504,-3.8639,-3.8739,-3.8706,-3.8537,-3.8228,-3.7733,-3.7403,-3.7053,-3.6734,-3.6446,-3.6491,-3.6585,-3.6784,-3.6899,-3.7283,-3.7533,-3.7567,-3.7665,-3.7733,-3.7984,-3.835,-3.8999,-3.9701,-3.9829,-3.9819,-3.9646,-3.9198,-3.9163,-1.5576,-1.5805,-1.5805,-1.5797,-1.5797,-1.5805,-1.5805,-1.5805,-1.5805,-1.5859,-1.6061,-1.607,-1.6315,-1.6837,-1.7282,-1.7765,-1.8122,-1.8461,-1.8603,-1.8514,-1.8434,-1.8273,-1.8193,-1.8121,-1.829,-1.8342,-1.8452,-1.8955,-2.0117,-2.0576,-2.1176,-2.1887,-2.2264,-2.2706,-2.3135,-2.3851,-2.4252,-2.4733,-2.6004,-2.7381,-2.8594,-2.9006,-2.929,-2.9588,-2.9874,-3.0239,-3.0679,-3.0972,-3.1139,-3.1407,-3.1849,-3.2125,-3.2475,-3.281,-3.324,-3.3641,-3.3894,-3.4327,-3.4825,-3.5575,-3.6072,-3.6325,-3.6549,-3.6361,-3.5723,-3.5508,-3.5211,-3.4698,-3.4607,-3.475,-3.4935,-3.5133,-3.5379,-3.5653,-3.5861,-3.6052,-3.6211,-3.6461,-3.6677,-3.6845,-3.7027,-3.7282,-3.7621,-3.7822,-3.7923,-3.8125,-3.8455,-3.859,-3.8575,-3.8311,-3.8008,-3.7531,-3.707,-3.6622,-3.6222,-3.5607,-3.5352,-3.5425,-3.5669,-3.5984,-3.6093,-3.6207,-3.6455,-3.6738,-3.684,-3.6937,-3.7161,-3.7466,-3.7921,-3.8259,-3.8614,-3.8698,-3.8594,-3.8491,-3.8353,-1.5355,-1.5426,-1.5426,-1.5426,-1.5426,-1.5726,-1.5805,-1.5805,-1.5805,-1.5867,-1.5859,-1.5867,-1.6043,-1.6482,-1.6981,-1.7459,-1.7746,-1.8285,-1.8442,-1.8353,-1.8273,-1.8121,-1.804,-1.8031,-1.8031,-1.8129,-1.8096,-1.8637,-1.9759,-2.0256,-2.0833,-2.1566,-2.2176,-2.2706,-2.3232,-2.3784,-2.4068,-2.4676,-2.5863,-2.7125,-2.8594,-2.8881,-2.9117,-2.9485,-2.9691,-3.0057,-3.0487,-3.0781,-3.1062,-3.1318,-3.1673,-3.2125,-3.2388,-3.2736,-3.3068,-3.3471,-3.3725,-3.4243,-3.4825,-3.548,-3.5817,-3.6031,-3.6253,-3.6066,-3.5377,-3.5549,-3.5039,-3.4502,-3.4443,-3.4683,-3.4868,-3.5067,-3.5329,-3.5539,-3.5748,-3.5988,-3.6163,-3.6414,-3.6585,-3.6675,-3.6854,-3.66,-3.674,-3.6917,-3.711,-3.7164,-3.7361,-3.7802,-3.7899,-3.7502,-3.7131,-3.6721,-3.6257,-3.5859,-3.5411,-3.516,-3.5058,-3.5218,-3.5328,-3.5475,-3.5484,-3.5475,-3.5701,-3.6134,-3.6129,-3.6096,-3.6383,-3.6586,-3.6486,-3.67,-3.7322,-3.773,-3.7792,-3.7594,-3.7249,-1.5133,-1.5196,-1.5196,-1.5196,-1.5275,-1.5576,-1.5735,-1.5805,-1.5805,-1.5805,-1.5805,-1.5805,-1.5971,-1.6283,-1.6798,-1.7266,-1.7541,-1.804,-1.8282,-1.8273,-1.8121,-1.804,-1.8031,-1.8031,-1.8031,-1.8057,-1.84,-1.8929,-1.958,-2.009,-2.0875,-2.1692,-2.2185,-2.2618,-2.3144,-2.361,-2.4018,-2.4723,-2.5758,-2.704,-2.8112,-2.8657,-2.8839,-2.9301,-2.9588,-2.9966,-3.0318,-3.0679,-3.096,-3.1229,-3.1584,-3.1937,-3.23,-3.2562,-3.2896,-3.3313,-3.3725,-3.4152,-3.4574,-3.482,-3.5022,-3.511,-3.5686,-3.564,-3.5171,-3.5161,-3.4797,-3.4364,-3.4404,-3.4616,-3.4802,-3.5016,-3.5213,-3.5424,-3.5668,-3.5846,-3.5976,-3.6228,-3.6261,-3.6305,-3.6279,-3.6032,-3.5784,-3.5927,-3.6069,-3.612,-3.6168,-3.669,-3.711,-3.6727,-3.6388,-3.6092,-3.576,-3.5396,-3.5164,-3.5046,-3.4994,-3.5058,-3.5105,-3.5215,-3.5291,-3.5396,-3.5487,-3.5594,-3.5712,-3.5808,-3.5707,-3.5751,-3.5898,-3.6134,-3.6454,-3.6791,-3.6973,-3.6887,-3.6611,-1.4999,-1.5125,-1.5204,-1.5125,-1.5204,-1.5363,-1.5576,-1.5735,-1.5805,-1.5735,-1.5726,-1.5735,-1.5845,-1.6229,-1.6647,-1.7055,-1.7398,-1.7738,-1.7908,-1.7959,-1.7878,-1.7878,-1.7959,-1.7959,-1.7959,-1.8275,-1.8663,-1.9077,-1.9521,-2.0279,-2.1128,-2.1826,-2.2176,-2.253,-2.2882,-2.3416,-2.3891,-2.4512,-2.5435,-2.6647,-2.776,-2.8169,-2.8522,-2.8969,-2.9405,-2.9691,-3.0045,-3.0408,-3.0781,-3.105,-3.1229,-3.1773,-3.2125,-3.2388,-3.281,-3.3275,-3.3746,-3.3853,-3.3896,-3.4033,-3.4152,-3.4251,-3.4708,-3.4927,-3.4868,-3.459,-3.4356,-3.4182,-3.4074,-3.4346,-3.4631,-3.4817,-3.5016,-3.5279,-3.5524,-3.5657,-3.5758,-3.5858,-3.5845,-3.5811,-3.5708,-3.542,-3.4944,-3.4934,-3.5166,-3.5198,-3.5275,-3.5545,-3.588,-3.5871,-3.5629,-3.5679,-3.5316,-3.5065,-3.4899,-3.4899,-3.4899,-3.4994,-3.5041,-3.5105,-3.5211,-3.5304,-3.5458,-3.552,-3.5577,-3.5605,-3.5622,-3.5622,-3.5684,-3.5858,-3.6076,-3.6241,-3.6603,-3.6551,-3.6422,-1.4346,-1.4418,-1.4561,-1.4633,-1.4641,-1.4935,-1.5213,-1.5355,-1.5355,-1.5355,-1.5355,-1.5355,-1.5501,-1.5555,-1.6163,-1.648,-1.6821,-1.7188,-1.7471,-1.7554,-1.7635,-1.7554,-1.7644,-1.7831,-1.7823,-1.8121,-1.8576,-1.9141,-1.9522,-2.0272,-2.1016,-2.1544,-2.2008,-2.2264,-2.2618,-2.3047,-2.3503,-2.4099,-2.4927,-2.6004,-2.7119,-2.7592,-2.8088,-2.8696,-2.929,-2.9588,-2.9874,-3.0318,-3.0691,-3.0972,-3.1229,-3.1572,-3.2038,-3.2276,-3.2649,-3.2769,-3.3085,-3.3165,-3.3077,-3.3252,-3.3356,-3.3399,-3.3715,-3.3786,-3.3864,-3.4008,-3.4002,-3.3888,-3.3937,-3.421,-3.4481,-3.4683,-3.4883,-3.5148,-3.5305,-3.5289,-3.5344,-3.5276,-3.5232,-3.501,-3.4903,-3.461,-3.4146,-3.4171,-3.4366,-3.4362,-3.4449,-3.4716,-3.485,-3.4937,-3.5037,-3.512,-3.5102,-3.4885,-3.4899,-3.4899,-3.4899,-3.4947,-3.4994,-3.5041,-3.5135,-3.5274,-3.54,-3.5475,-3.5577,-3.5577,-3.5622,-3.5622,-3.5622,-3.5667,-3.5824,-3.5983,-3.6122,-3.6233,-3.6284,-1.4137,-1.4129,-1.4209,-1.4281,-1.4353,-1.4497,-1.4713,-1.4856,-1.5125,-1.5196,-1.5196,-1.5196,-1.5204,-1.5336,-1.5947,-1.6343,-1.6401,-1.7125,-1.7473,-1.7473,-1.7392,-1.7392,-1.7498,-1.7596,-1.7661,-1.7885,-1.8294,-1.8752,-1.929,-2.021,-2.1015,-2.1392,-2.1839,-2.2008,-2.2353,-2.2794,-2.3144,-2.374,-2.4469,-2.5289,-2.6051,-2.6875,-2.771,-2.8326,-2.8951,-2.9371,-2.976,-3.0114,-3.051,-3.0793,-3.1038,-3.1407,-3.1777,-3.2104,-3.2054,-3.2193,-3.2314,-3.2333,-3.2319,-3.2437,-3.263,-3.28,-3.2718,-3.2839,-3.3124,-3.3376,-3.3564,-3.3662,-3.3896,-3.4074,-3.4278,-3.4549,-3.4817,-3.5082,-3.4981,-3.4891,-3.4829,-3.4729,-3.4513,-3.4237,-3.3923,-3.3654,-3.3514,-3.3566,-3.3674,-3.389,-3.4076,-3.421,-3.441,-3.4528,-3.466,-3.4726,-3.4823,-3.4787,-3.4851,-3.4899,-3.4899,-3.4899,-3.4947,-3.4994,-3.5088,-3.5245,-3.5383,-3.5475,-3.5594,-3.5594,-3.5639,-3.5639,-3.5622,-3.5622,-3.5711,-3.5861,-3.6036,-3.6165,-3.6216,-1.3985,-1.3992,-1.4049,-1.4057,-1.4137,-1.4129,-1.4201,-1.4425,-1.4848,-1.5125,-1.5125,-1.5125,-1.5133,-1.5201,-1.5814,-1.6141,-1.637,-1.6877,-1.7229,-1.731,-1.7229,-1.7229,-1.7229,-1.731,-1.7318,-1.7507,-1.7854,-1.8524,-1.9168,-2.0058,-2.0925,-2.1392,-2.1562,-2.183,-2.2185,-2.253,-2.2891,-2.332,-2.3977,-2.4798,-2.517,-2.6135,-2.7313,-2.7694,-2.8444,-2.912,-2.9418,-2.9726,-3.0057,-3.051,-3.08,-3.1134,-3.1363,-3.1565,-3.1472,-3.1537,-3.1605,-3.157,-3.1552,-3.1616,-3.1688,-3.1752,-3.1757,-3.2117,-3.2536,-3.2897,-3.3156,-3.3424,-3.366,-3.3868,-3.4157,-3.4317,-3.4558,-3.4604,-3.4475,-3.4193,-3.392,-3.3804,-3.3597,-3.3352,-3.3355,-3.3076,-3.3244,-3.3346,-3.3555,-3.3658,-3.3864,-3.3949,-3.405,-3.4201,-3.4349,-3.4497,-3.4643,-3.4787,-3.4851,-3.4899,-3.4899,-3.4899,-3.4899,-3.4947,-3.4994,-3.5182,-3.5383,-3.5475,-3.5549,-3.5594,-3.5639,-3.5639,-3.5622,-3.5622,-3.5711,-3.58,-3.5949,-3.6079,-3.6191,-1.3185,-1.3193,-1.3557,-1.3775,-1.4057,-1.4137,-1.4129,-1.4209,-1.4274,-1.4489,-1.4713,-1.4705,-1.4729,-1.4937,-1.553,-1.5851,-1.6044,-1.6549,-1.6838,-1.6902,-1.6902,-1.6902,-1.6902,-1.6984,-1.6976,-1.7261,-1.7713,-1.8369,-1.9217,-2.0056,-2.0826,-2.1096,-2.1374,-2.1651,-2.2008,-2.2362,-2.2725,-2.3018,-2.3545,-2.4115,-2.4591,-2.5285,-2.6282,-2.6943,-2.7724,-2.836,-2.8834,-2.9455,-2.9852,-3.0295,-3.0384,-3.0557,-3.0701,-3.0748,-3.0667,-3.0667,-3.0758,-3.0785,-3.0842,-3.0983,-3.1081,-3.1391,-3.1582,-3.1877,-3.2241,-3.2574,-3.2846,-3.3157,-3.3452,-3.3744,-3.3922,-3.407,-3.4211,-3.4113,-3.3932,-3.3487,-3.3034,-3.2839,-3.2684,-3.2696,-3.2702,-3.2858,-3.3043,-3.3256,-3.3398,-3.3555,-3.3813,-3.3949,-3.3949,-3.4101,-3.43,-3.4448,-3.4594,-3.4739,-3.4851,-3.4899,-3.4899,-3.4899,-3.4899,-3.4947,-3.493,-3.5135,-3.5337,-3.5475,-3.5566,-3.5594,-3.5639,-3.5639,-3.5622,-3.5622,-3.5622,-3.5756,-3.5844,-3.5975,-3.6148,-1.29,-1.29,-1.3119,-1.3339,-1.3557,-1.355,-1.3695,-1.3848,-1.3848,-1.4065,-1.4353,-1.4361,-1.4423,-1.4603,-1.5224,-1.5584,-1.574,-1.6152,-1.6363,-1.6417,-1.65,-1.6492,-1.6574,-1.6664,-1.6746,-1.7097,-1.7733,-1.8473,-1.9196,-1.9847,-2.0473,-2.0826,-2.1114,-2.1383,-2.183,-2.2097,-2.2451,-2.2744,-2.3154,-2.3535,-2.4027,-2.4805,-2.5627,-2.6303,-2.6947,-2.7643,-2.8054,-2.8634,-2.9037,-2.9438,-2.9613,-2.9756,-2.9905,-2.9985,-2.9927,-2.9905,-2.9932,-3.0146,-3.0241,-3.0457,-3.0761,-3.1061,-3.1347,-3.1656,-3.2036,-3.2372,-3.2632,-3.2945,-3.3241,-3.3536,-3.3656,-3.3776,-3.3758,-3.3689,-3.3064,-3.252,-3.2333,-3.2279,-3.2235,-3.24,-3.2514,-3.2734,-3.2935,-3.3096,-3.3309,-3.3503,-3.371,-3.3848,-3.3899,-3.3949,-3.4151,-3.4333,-3.4497,-3.4643,-3.4756,-3.4851,-3.4899,-3.4899,-3.4899,-3.4947,-3.4994,-3.5182,-3.5337,-3.5429,-3.552,-3.5594,-3.5639,-3.5639,-3.5639,-3.5622,-3.5622,-3.5667,-3.5756,-3.5888,-3.6062,-1.2753,-1.2826,-1.2826,-1.2893,-1.29,-1.29,-1.3119,-1.3346,-1.3419,-1.3637,-1.3863,-1.3973,-1.4243,-1.4591,-1.4981,-1.5293,-1.5686,-1.6075,-1.6139,-1.6177,-1.6177,-1.6252,-1.6417,-1.6507,-1.6582,-1.6984,-1.7677,-1.8161,-1.8746,-1.9516,-2.0201,-2.0654,-2.0835,-2.1105,-2.1472,-2.183,-2.2185,-2.2432,-2.2677,-2.3028,-2.3622,-2.4317,-2.5016,-2.5693,-2.632,-2.6931,-2.7327,-2.7668,-2.8029,-2.8441,-2.8958,-2.8998,-2.9117,-2.9172,-2.9302,-2.9248,-2.9398,-2.9674,-2.9998,-3.0216,-3.052,-3.0911,-3.1123,-3.1421,-3.1803,-3.2096,-3.2444,-3.2789,-3.3086,-3.3311,-3.3364,-3.3354,-3.3321,-3.305,-3.2309,-3.1764,-3.1766,-3.1769,-3.1996,-3.215,-3.2373,-3.2609,-3.2827,-3.2989,-3.315,-3.3414,-3.3555,-3.3694,-3.3797,-3.3899,-3.405,-3.4201,-3.4399,-3.4497,-3.4707,-3.4756,-3.4851,-3.4899,-3.4899,-3.4994,-3.5058,-3.5152,-3.5291,-3.5429,-3.552,-3.5549,-3.5594,-3.5639,-3.5639,-3.5639,-3.5639,-3.5622,-3.5711,-3.58,-3.5975,-1.215,-1.2452,-1.2452,-1.2599,-1.29,-1.29,-1.2973,-1.2973,-1.3046,-1.3046,-1.3271,-1.3465,-1.3848,-1.4614,-1.5232,-1.5568,-1.5602,-1.5883,-1.6057,-1.6095,-1.6012,-1.6087,-1.617,-1.6252,-1.6319,-1.6834,-1.7475,-1.8156,-1.851,-1.9362,-2.0019,-2.0382,-2.0654,-2.0925,-2.1392,-2.1651,-2.1811,-2.2059,-2.2511,-2.2872,-2.3309,-2.3844,-2.4364,-2.5013,-2.5612,-2.614,-2.6661,-2.7327,-2.7787,-2.8079,-2.831,-2.8385,-2.8526,-2.8578,-2.8698,-2.8901,-2.904,-2.9365,-2.9754,-2.9998,-3.0381,-3.0685,-3.0986,-3.1211,-3.1596,-3.1817,-3.2155,-3.2489,-3.2761,-3.3129,-3.3141,-3.2976,-3.2872,-3.2312,-3.1678,-3.1514,-3.1425,-3.1597,-3.1898,-3.2038,-3.2206,-3.2428,-3.2633,-3.2812,-3.3005,-3.3203,-3.3414,-3.3555,-3.3694,-3.3848,-3.3949,-3.4101,-3.425,-3.4448,-3.4643,-3.4691,-3.4804,-3.4851,-3.4899,-3.4947,-3.4994,-3.5041,-3.5182,-3.5337,-3.5475,-3.552,-3.5549,-3.5639,-3.5639,-3.5639,-3.5639,-3.5622,-3.5667,-3.5739,-3.5871]}]]